     2.11           OBSERVATION DATA    G (GPS)             RINEX VERSION / TYPE
teqc 2010Oct21 OPUS Account 20111027 15:26:35UTC            PGM / RUN BY / DATE
N 1524                                                      MARKER NAME
1217                                                        MARKER NUMBER
CSMIDDLETON NGS                                             OBSERVER / AGENCY
0220390614 TRIMBLE R7 2.32                                  REC # / TYPE / VERS
12611996 TRM41249.00 NONE                                   ANT # / TYPE
  -760046.9733 -5531294.0719  3073250.1223                  APPROX POSITION XYZ
        2.0000        0.0000        0.0000                  ANTENNA: DELTA H/E/N
     1     1                                                WAVELENGTH FACT L1/2
     5    L1    L2    C1    P1    P2                        # / TYPES OF OBSERV
    15                                                      LEAP SECONDS
  2011     8    15     0     0   30.0000000     GPS         TIME OF FIRST OBS
                                                            END OF HEADER
 11  8 15  0  0 30.0000000  0  8G12G10G28G17G05G04G09G02
 -23581280.40657 -18093509.93455  22607178.4844                   22607176.2074
 -40914675.51258 -31841612.65256  21352111.4614                   21352109.8364
-111681453.67256 -86988231.49253  23894438.4844                   23894438.9884
 -94974418.15657 -73955003.61355  22485839.9614                   22485838.3054
 -12023306.84457  -9311315.83254  23604713.3594                   23604715.1484
 -74242828.31658 -57804260.19956  20676414.4534                   20676412.2934
 -41766544.85957 -32471699.05954  22675528.7344                   22675528.1094
 -52442424.07058 -40819789.93756  20865745.0004                   20865741.1134
 11  8 15  0  1  0.0000000  0  8G12G10G28G17G05G04G09G02
 -23770022.37547 -18240581.57845  22571261.9844                   22571259.7194
 -41066453.58248 -31959881.24246  21323229.1644                   21323227.9534
-111687480.12946 -86992927.55943  23893291.4304                   23893292.1844
 -95034602.73447 -74001900.70345  22474387.2114                   22474385.5204
 -12231157.27047  -9473277.06244  23565161.6724                   23565161.9184
 -74287749.15648 -57839263.48046  20667865.6254                   20667864.2774
 -41814433.89547 -32509015.22745  22666415.2664                   22666415.4494
 -52572668.26648 -40921278.89846  20840960.4144                   20840956.6054
 11  8 15  0  1 30.0000000  0  8G12G10G28G17G05G04G09G02
 -23958466.29347 -18387420.97345  22535401.9144                   22535400.4924
 -41217647.28148 -32077694.48846  21294458.0164                   21294456.4384
-111693199.97746 -86997384.66043  23892202.8674                   23892204.0004
 -95094609.66847 -74048659.37145  22462968.1094                   22462966.7584
 -12438877.47747  -9635136.81244  23525633.6174                   23525634.1054
 -74332276.98048 -57873960.50046  20659392.4304                   20659390.9414
 -41861824.32047 -32545942.87145  22657396.6174                   22657396.9144
 -52702483.84048 -41022433.86346  20816257.4774                   20816253.3954
 11  8 15  0  2  0.0000000  0  8G12G10G28G17G05G04G09G02
 -24146618.11347 -18534032.76645  22499597.6954                   22499595.6094
 -41368262.83248 -32195057.23446  21265796.9224                   21265795.6484
-111698623.33246 -87001610.79743  23891171.3914                   23891172.2114
 -95154446.86747 -74095285.77045  22451581.6484                   22451579.9454
 -12646473.23447  -9796899.60545  23486129.3444                   23486129.8954
 -74376422.91448 -57908359.95746  20650991.6414                   20650990.4574
 -41908727.55547 -32582490.89845  22648471.7894                   22648471.3284
 -52831879.79348 -41123261.84846  20791634.0394                   20791630.2974
 11  8 15  0  2 30.0000000  0  8G12G10G28G17G05G04G09G02
 -24334481.70347 -18680419.96145  22463848.7504                   22463846.5274
 -41518304.33248 -32311972.66046  21237245.0944                   21237243.4574
-111703758.98446 -87005612.71943  23890193.7274                   23890195.0274
 -95214120.35547 -74141784.60545  22440226.3134                   22440224.1134
 -12853947.85547  -9958567.98445  23446647.7584                   23446648.3754
 -74420195.78948 -57942468.70746  20642662.1484                   20642660.6484
 -41955153.03147 -32618666.63744  22639637.9614                   22639637.0744
 -52960863.01248 -41223768.23046  20767089.2664                   20767085.7384
 11  8 15  0  3  0.0000000  0  8G12G10G28G17G05G04G09G02
 -24522046.90647 -18826574.64145  22428156.0234                   22428154.3594
 -41667761.93448 -32428433.09846  21208804.0944                   21208802.3914
-111708601.32446 -87009386.05543  23889272.6414                   23889273.3754
 -95273622.02347 -74188149.55145  22428903.1024                   22428901.3404
 -13061291.19147 -10120134.07445  23407191.7664                   23407192.5204
 -74463590.57848 -57976282.85246  20634404.4614                   20634403.2344
 -42001096.88347 -32654467.07844  22630894.5394                   22630894.0664
 -53089426.76648 -41323947.75046  20742624.4224                   20742620.6254
 11  8 15  0  3 30.0000000  0  8G12G10G28G17G05G04G09G02
 -24709311.32447 -18972494.93745  22392521.1024                   22392519.1604
 -41816633.19548 -32544436.65246  21180474.8284                   21180473.0904
-111713152.12146 -87012932.31643  23888407.5234                   23888407.3674
 -95332951.36747 -74234380.23045  22417613.5944                   22417611.5474
 -13268500.34847 -10281595.62945  23367761.2344                   23367761.5514
 -74506609.70748 -58009804.27046  20626218.3284                   20626216.4964
 -42046562.01647 -32689894.49644  22622242.6724                   22622242.5514
 -53217571.60548 -41423800.85546  20718239.2194                   20718235.3164
 11  8 15  0  4  0.0000000  0  8G12G10G28G17G05G04G09G02
 -24896267.01247 -19118174.66445  22356944.7114                   22356942.1764
 -41964910.02348 -32659977.00446  21152258.6174                   21152257.1724
-111717407.89846 -87016248.61343  23887597.5004                   23887597.5594
 -95392102.43447 -74280471.99245  22406357.1174                   22406355.6524
 -13475566.95747 -10442946.09445  23328357.6484                   23328357.8204
 -74549249.94548 -58043030.44546  20618104.1724                   20618102.5514
 -42091545.63747 -32724946.71145  22613683.0394                   22613682.3794
 -53345292.18048 -41523323.35246  20693934.7114                   20693931.1914
 11  8 15  0  4 30.0000000  0  8G12G10G28G17G05G04G09G02
 -25082912.23047 -19263612.45745  22321426.7114                   22321424.9064
 -42112591.54348 -32775053.49646  21124155.6804                   21124154.3204
-111721371.45346 -87019337.23443  23886842.9774                   23886843.3874
 -95451075.63747 -74326425.16445  22395135.4694                   22395133.6024
 -13682488.92247 -10604183.87145  23288981.5084                   23288981.9064
 -74591514.81648 -58075964.12546  20610061.3754                   20610059.6844
 -42136052.09847 -32759627.09444  22605214.1724                   22605213.2854
 -53472590.11348 -41622516.52046  20669710.8754                   20669706.8054
 11  8 15  0  5  0.0000000  0  8G12G10G28G17G05G04G09G02
 -25269239.15647 -19408802.23045  22285970.4534                   22285968.0784
 -42259670.23048 -32889660.23446  21096167.5394                   21096166.0474
-111725039.29746 -87022195.40643  23886144.8834                   23886145.6844
 -95509864.81647 -74372234.93745  22383947.9614                   22383946.0904
 -13889258.23047 -10765302.66445  23249634.7274                   23249634.8674
 -74633401.44148 -58108603.07446  20602090.5314                   20602088.9304
 -42180079.26647 -32793934.02344  22596835.4454                   22596835.0084
 -53599460.79748 -41721376.77046  20645568.0554                   20645564.3794
 11  8 15  0  5 30.0000000  0  8G12G10G28G17G05G04G09G02
 -25455247.54747 -19553743.80545  22250573.9924                   22250572.0234
 -42406146.20748 -33003797.33246  21068293.9224                   21068292.1724
-111728416.20346 -87024826.85543  23885502.0784                   23885503.3714
 -95568472.25447 -74417903.09845  22372795.4384                   22372793.2734
 -14095874.48847 -10926302.19544  23210316.5084                   23210316.8634
 -74674914.45748 -58140950.89546  20594190.9454                   20594188.9804
 -42223632.77747 -32827871.86744  22588547.8524                   22588547.3674
 -53725907.18448 -41819906.39546  20621506.2894                   20621502.4694
 11  8 15  0  6  0.0000000  0  8G12G10G28G17G05G04G09G02
 -24065506.39148 -18470828.58245  22515032.9534                   22515030.6954
 -40976589.86748 -31889857.30146  21340329.7664                   21340328.0204
-110156080.91046 -85799630.67243  24184707.4694                   24184708.5904
 -94051472.80547 -73235825.61745  22661470.5944                   22661468.4654
 -12726904.86747  -9859572.49245  23470822.9304                   23470823.1454
 -73140632.27748 -56945406.35246  20886155.0554                   20886153.4614
 -40691291.59047 -31633839.79744  22880142.6484                   22880142.4344
 -52276503.22748 -40690500.69946  20897318.7034                   20897314.6254
 11  8 15  0  6 30.0000000  0  8G12G10G28G17G05G04G09G02
 -24250864.71148 -18615263.59445  22479760.4224                   22479758.2734
 -41121848.13748 -32003045.54346  21312687.9224                   21312686.1724
-110158875.04746 -85801808.00843  24184176.4844                   24184177.3364
 -94109708.75447 -73281204.31245  22650388.6954                   22650387.1884
 -12933200.48047 -10020322.19944  23431565.4144                   23431566.2704
 -73181399.59848 -56977173.11346  20878397.6254                   20878395.8554
 -40733901.13747 -31667042.08244  22872034.1564                   22872033.8634
 -52402096.87148 -40788365.85546  20873418.9304                   20873415.0784
 11  8 15  0  7  0.0000000  0  8G12G10G28G17G05G04G09G02
 -24435890.53547 -18759439.51645  22444551.3594                   22444549.3594
 -41266490.57848 -32115753.91446  21285163.3134                   21285161.4964
-110161377.52746 -85803758.16842  24183699.8364                   24183702.4264
 -94167754.81247 -73326435.03945  22639343.2114                   22639341.0434
 -13139327.46947 -10180940.49644  23392341.3204                   23392340.9384
 -73221794.24248 -57008649.47746  20870710.5704                   20870709.2504
 -40776039.67247 -31699877.34045  22864015.7424                   22864015.0594
 -52527261.71548 -40885896.88746  20849600.6024                   20849596.7424
 11  8 15  0  7 30.0000000  0  8G12G10G28G17G05G04G09G02
 -24620579.50848 -18903352.97345  22409405.7344                   22409403.9574
 -41410513.31648 -32227979.41046  21257756.9694                   21257754.9774
-110163588.71146 -85805481.26243  24183279.7814                   24183280.9344
 -94225608.75047 -73371516.07845  22628333.5394                   22628332.0514
 -13345281.11747 -10341423.77045  23353149.2734                   23353149.4654
 -73261816.69948 -57039835.80946  20863094.5394                   20863092.9574
 -40817708.93747 -31732346.93445  22856086.0394                   22856085.5904
 -52651996.44548 -40983092.76646  20825864.4924                   20825860.4104
 11  8 15  0  8  0.0000000  0  8G12G10G28G17G05G04G09G02
 -24804930.12547 -19047002.75445  22374324.5084                   22374322.8754
 -41553915.12948 -32339721.06646  21230468.3444                   21230466.6054
-110165510.95746 -85806979.26243  24182914.1564                   24182914.8874
 -94283270.62947 -73416447.44945  22617361.3444                   22617359.7704
 -13551060.12547 -10501770.93445  23313991.0944                   23313991.0124
 -73301470.28948 -57070734.73046  20855548.6724                   20855547.2504
 -40858912.82447 -31764453.91445  22848245.6484                   22848245.2584
 -52776302.67248 -41079954.74246  20802210.1564                   20802206.1484
 11  8 15  0  8 30.0000000  0  8G12G10G28G17G05G04G09G02
 -24988937.07048 -19190384.75045  22339309.6414                   22339307.6484
 -41696691.37548 -32450975.26646  21203298.8204                   21203297.0204
-110167144.30546 -85808252.04342  24182603.3834                   24182603.2234
 -94340737.79747 -73461227.12145  22606425.5394                   22606423.8984
 -13756658.81247 -10661977.58245  23274866.8204                   23274866.7344
 -73340755.10948 -57101346.29346  20848072.9064                   20848071.9574
 -40899652.07447 -31796198.82044  22840493.0704                   22840492.3204
 -52900178.64148 -41176481.45346  20778637.0084                   20778633.1914
 11  8 15  0  9  0.0000000  0  8G12G10G28G17G05G04G09G02
 -25172600.23848 -19333498.87145  22304359.6484                   22304357.9064
 -41838842.46148 -32561742.32846  21176248.5234                   21176246.6334
-110168492.79346 -85809302.90243  24182347.0634                   24182346.9844
 -94398011.34847 -73505855.90245  22595526.8364                   22595525.1094
 -13962076.07847 -10822042.88345  23235776.4304                   23235776.8324
 -73379675.70748 -57131674.05146  20840666.6724                   20840665.3284
 -40939931.90247 -31827585.74645  22832828.2034                   22832827.7854
 -53023626.91848 -41272674.91046  20755146.1174                   20755141.6414
 11  8 15  0  9 30.0000000  0  8G12G10G28G17G05G04G09G02
 -25355912.73448 -19476339.73846  22269476.5634                   22269474.4614
 -41980361.76648 -32672017.09446  21149318.3524                   21149316.8014
-110169553.94946 -85810129.90243  24182145.4534                   24182145.1414
 -94455086.65647 -73550330.22345  22584665.8754                   22584664.2774
 -14167305.16047 -10981961.54745  23196723.1414                   23196723.1294
 -73418229.93448 -57161716.31646  20833330.1564                   20833328.3954
 -40979751.34847 -31858613.93444  22825250.8204                   22825250.2814
 -53146643.98048 -41368532.34846  20731736.2814                   20731732.1914
 11  8 15  0 10  0.0000000  0  8G12G10G28G17G05G04G09G02
 -25538872.20348 -19618905.52345  22234660.6174                   22234658.4224
 -42121247.89148 -32781798.46546  21122508.2504                   21122506.9964
-110170330.10946 -85810734.80543  24181997.3984                   24181998.2274
 -94511963.45747 -73594649.86745  22573842.4694                   22573841.0434
 -14372343.26647 -11141731.41845  23157705.6334                   23157705.4224
 -73456420.71148 -57191475.37946  20826062.7344                   20826061.2934
 -41019114.21947 -31889286.35244  22817760.2734                   22817760.1804
 -53269230.84048 -41464054.55946  20708408.6094                   20708404.4774
 11  8 15  0 10 30.0000000  0  8G12G10G28G17G05G04G09G02
 -25721476.40247 -19761194.48446  22199912.0084                   22199910.0824
 -42261498.59048 -32891084.69546  21095819.7344                   21095818.0514
-110170823.41846 -85811119.27743  24181903.0084                   24181904.3524
 -94568641.38347 -73638814.53945  22563056.8524                   22563056.0044
 -14577187.51647 -11301350.18045  23118724.6414                   23118725.1994
 -73494250.40648 -57220953.08246  20818863.7344                   20818861.7974
 -41058023.29747 -31919605.17644  22810356.0944                   22810356.2774
 -53391388.26648 -41559242.15646  20685162.9844                   20685158.9534
 11  8 15  0 11  0.0000000  0  8G12G10G28G17G05G04G09G02
 -25903720.80947 -19903203.08645  22165232.1254                   22165230.1454
 -42401109.94548 -32999872.75046  21069251.9694                   21069250.2774
-110171034.00046 -85811283.48443  24181863.1954                   24181864.3554
 -94625117.54347 -73682821.99245  22552309.9304                   22552308.6564
 -14781833.22747 -11460814.25445  23079781.8204                   23079781.8444
 -73531719.67248 -57250149.92646  20811733.5394                   20811732.0124
 -41096480.32047 -31949571.73444  22803037.9384                   22803038.2504
 -53513115.07848 -41654094.19946  20661999.2034                   20661994.9734
 11  8 15  0 11 30.0000000  0  8G12G10G28G17G05G04G09G02
 -26085602.84848 -20044929.32845  22130620.8054                   22130618.8834
 -42540080.42248 -33108161.41046  21042807.2814                   21042805.6174
-110170963.98846 -85811229.04743  24181876.4064                   24181878.2734
 -94681392.01247 -73726672.28145  22541601.6954                   22541600.0704
 -14986277.61347 -11620121.45745  23040877.3134                   23040877.0004
 -73568830.98448 -57279067.85246  20804671.7424                   20804670.1414
 -41134488.72347 -31979188.72344  22795804.9844                   22795805.3794
 -53634412.16848 -41748611.40646  20638917.2114                   20638912.9024
 11  8 15  0 12  0.0000000  0  8G12G10G28G17G05G04G09G02
 -26267121.70347 -20186372.56645  22096079.0474                   22096076.7774
 -42678409.33648 -33215950.15646  21016483.9304                   21016482.4654
-110170617.14146 -85810958.85943  24181942.1414                   24181944.5704
 -94737465.93047 -73770366.28545  22530930.6884                   22530929.2194
 -15190519.16847 -11779270.61345  23002011.5004                   23002011.4454
 -73605588.02748 -57307709.71946  20797677.2194                   20797675.6764
 -41172053.15647 -32008459.77744  22788657.3834                   22788657.1024
 -53755281.60948 -41842795.37146  20615916.0554                   20615911.8444
 11  8 15  0 12 30.0000000  0  8G12G10G28G17G05G04G09G02
 -26448274.96948 -20327530.93046  22061606.7584                   22061604.5864
 -42816095.80148 -33323238.28946  20990283.0864                   20990282.1024
-110169995.70746 -85810474.66443  24182060.7034                   24182061.8754
 -94793338.84447 -73813903.66845  22520298.8834                   22520297.2814
 -15394555.59447 -11938259.93445  22963184.3054                   22963184.0314
 -73641993.72348 -57336077.81646  20790749.4144                   20790747.7384
 -41209177.56247 -32037387.94944  22781592.1484                   22781592.3634
 -53875724.64548 -41936647.07046  20592996.6884                   20592992.6884
 11  8 15  0 13  0.0000000  0  8G12G10G28G17G05G04G09G02
 -26629058.53548 -20468401.23046  22027204.4774                   22027202.6764
 -42953136.08648 -33430022.90246  20964205.0864                   20964203.8674
-110169100.34046 -85809777.11343  24182231.4694                   24182232.6334
 -94849008.50847 -73857282.67245  22509705.3674                   22509703.9264
 -15598381.77347 -12097085.44945  22924397.5314                   22924397.2544
 -73678048.98848 -57364172.84046  20783888.0704                   20783886.7544
 -41245863.27347 -32065974.28944  22774611.3284                   22774611.6024
 -53995740.32448 -42030165.76246  20570158.5314                   20570154.0704
 11  8 15  0 13 30.0000000  0  7G12G10G17G05G04G09G02
 -25234040.56248 -19381374.22746  22292668.0554                   22292665.7504
 -41514099.89148 -32308695.97746  21238044.5704                   21238042.8324
 -93329048.93447 -72672898.63345  22798944.0634                   22798942.3054
 -14226564.82047 -11028137.05545  23185445.4064                   23185445.3524
 -72138331.46148 -56164392.96946  21076886.8524                   21076885.3674
 -39706688.94947 -30866617.74244  23067506.8204                   23067506.6884
 -52539902.09448 -40895746.34846  20847195.6484                   20847191.3714
 11  8 15  0 14  0.0000000  0  7G12G10G17G05G04G09G02
 -25414066.44948 -19521654.12946  22258410.1334                   22258407.9844
 -41649830.75848 -32414460.27746  21212215.5864                   21212214.1294
 -93384299.50847 -72715951.07845  22788430.3524                   22788428.4654
 -14429951.79747 -11186620.31245  23146742.3134                   23146742.4344
 -72173682.01648 -56191938.88746  21070159.9694                   21070158.2734
 -39742496.49647 -30894519.78144  23060692.6644                   23060693.0044
 -52659054.64548 -40988592.47746  20824521.3754                   20824517.2584
 11  8 15  0 14 30.0000000  0  7G12G10G17G05G04G09G02
 -25593703.24248 -19661630.83246  22224226.3134                   22224224.1804
 -41784898.07448 -32519707.51646  21186513.3284                   21186512.2464
 -93439333.66447 -72758834.86345  22777957.7894                   22777956.1524
 -14633108.44147 -11344924.08645  23108082.9304                   23108082.6684
 -72208677.45348 -56219208.07846  21063500.4614                   21063499.0474
 -39777863.65647 -30922078.67645  23053962.4614                   23053962.7734
 -52777770.41848 -41081098.25046  20801930.5474                   20801926.6414
 11  8 15  0 15  0.0000000  0  7G12G10G17G05G04G09G02
 -25772944.65648 -19801299.45346  22190117.8984                   22190115.7624
 -41919296.15248 -32624433.27746  21160938.0004                   21160936.6374
 -93494146.46947 -72801546.16445  22767526.8754                   22767525.5664
 -14836027.85547 -11503043.00445  23069469.0004                   23069468.1524
 -72243316.37548 -56246199.46546  21056908.8594                   21056907.5594
 -39812789.91847 -30949294.02344  23047316.4064                   23047316.6914
 -52896046.32048 -41173261.28146  20779423.2504                   20779419.0664
 11  8 15  0 15 30.0000000  0  7G12G10G17G05G04G09G02
 -25951788.43048 -19940658.23446  22156085.1484                   22156082.4804
 -42053023.66448 -32728636.51246  21135490.5554                   21135489.5394
 -93548738.43447 -72844085.37545  22757138.5784                   22757137.0274
 -15038707.67647 -11660975.23845  23030899.7034                   23030899.4304
 -72277601.62948 -56272915.26246  21050384.6644                   21050383.4964
 -39847279.18747 -30976168.85544  23040753.6094                   23040753.5704
 -53013883.50848 -41265082.43746  20756999.7504                   20756995.3554
 11  8 15  0 16  0.0000000  0  7G12G10G17G05G04G09G02
 -26130229.54347 -20079703.24646  22122129.0864                   22122126.6454
 -42186076.19948 -32832313.79746  21110171.9144                   21110170.4384
 -93603105.61747 -72886449.44145  22746792.8204                   22746790.7274
 -15241142.03547 -11818716.18445  22992377.6564                   22992377.5634
 -72311532.52748 -56299354.94546  21043927.8054                   21043926.6054
 -39881331.65247 -31002703.31644  23034273.9384                   23034273.7504
 -53131280.11348 -41356560.28946  20734659.8984                   20734655.5744
 11  8 15  0 16 30.0000000  0  7G12G10G17G05G04G09G02
 -26308269.77347 -20218435.88746  22088248.7034                   22088246.0354
 -42318456.37948 -32935467.16046  21084980.4694                   21084979.1214
 -93657252.50847 -72928641.84845  22736489.1334                   22736486.7584
 -15443332.60247 -11976267.18745  22953902.5864                   22953901.7274
 -72345116.27348 -56325524.11346  21037536.7974                   21037535.2234
 -39914955.56247 -31028903.82844  23027874.7734                   23027875.3984
 -53248241.52048 -41447699.04346  20712402.7424                   20712398.6454
 11  8 15  0 17  0.0000000  0  7G12G10G17G05G04G09G02
 -26485906.00447 -20356853.71546  22054445.8594                   22054443.4574
 -42450162.08248 -33038094.96946  21059917.9774                   21059916.3284
 -93711177.72747 -72970661.53145  22726227.4304                   22726225.3834
 -15645275.85247 -12133625.48045  22915473.5004                   22915472.8244
 -72378354.48448 -56351424.02746  21031212.2974                   21031210.2114
 -39948153.34447 -31054772.29744  23021558.0784                   23021558.4654
 -53364767.89548 -41538498.79346  20690228.1954                   20690224.5824
 11  8 15  0 17 30.0000000  0  7G12G10G17G05G04G09G02
 -26663133.43748 -20494953.00046  22020720.9534                   22020718.6294
 -42581189.57848 -33140194.29746  21034983.8444                   21034982.4024
 -93764878.78947 -73012506.53945  22716008.5164                   22716006.7154
 -15846966.89547 -12290787.28945  22877093.3594                   22877092.5314
 -72411247.54748 -56377054.99646  21024952.9614                   21024951.3094
 -39980926.42647 -31080309.82444  23015321.4774                   23015321.3714
 -53480858.09048 -41628958.66846  20668137.1564                   20668133.2584
 11  8 15  0 18  0.0000000  0  7G12G10G17G05G04G09G02
 -26839953.66848 -20632734.97746  21987072.7194                   21987070.9224
 -42711540.87948 -33241766.71946  21010178.9064                   21010177.7424
 -93818358.59847 -73054179.15245  22705830.8284                   22705830.2814
 -16048406.32047 -12447752.95345  22838759.9694                   22838759.4534
 -72443801.39848 -56402421.65646  21018758.1564                   21018756.5594
 -40013281.69547 -31105521.79744  23009164.6414                   23009165.0004
 -53596516.41848 -41719082.02046  20646128.2344                   20646124.2464
 11  8 15  0 18 30.0000000  0  7G12G10G17G05G04G09G02
 -27016361.94148 -20770195.96146  21953503.3524                   21953500.9344
 -42841212.60548 -33342809.59446  20985503.2584                   20985501.6174
 -93871614.84047 -73095677.53945  22695697.1174                   22695695.3404
 -16249589.21147 -12604518.75445  22800476.3594                   22800475.8094
 -72476016.63348 -56427524.44946  21012627.5314                   21012626.3164
 -40045221.11347 -31130409.71544  23003086.7814                   23003086.7344
 -53711742.21148 -41808868.34046  20624201.5634                   20624197.4024
 11  8 15  0 19  0.0000000  0  7G12G10G17G05G04G09G02
 -27192358.89547 -20907336.42646  21920012.2584                   21920010.1134
 -42970206.11748 -33443324.00846  20960956.7114                   20960955.1094
 -93924649.84847 -73137003.54345  22685605.2504                   22685603.7624
 -16450515.91847 -12761084.93445  22762241.5554                   22762240.6884
 -72507898.27748 -56452367.29746  21006560.6174                   21006559.1884
 -40076750.69147 -31154978.28144  22997086.6334                   22997087.4144
 -53826538.84848 -41898320.24646  20602356.3444                   20602351.9654
 11  8 15  0 19 30.0000000  0  7G12G10G17G05G04G09G02
 -27367942.60248 -21044154.87946  21886599.8594                   21886597.4064
 -43098520.82048 -33543309.47346  20936539.0234                   20936537.5314
 -93977463.98847 -73178157.43445  22675554.5394                   22675553.5274
 -16651184.13747 -12917449.69145  22724054.9144                   22724053.8834
 -72539450.03148 -56476953.09046  21000556.8134                   21000555.8244
 -40107874.84447 -31179230.92244  22991164.2034                   22991164.5634
 -53940908.13348 -41987439.16446  20580592.7424                   20580588.4614
 11  8 15  0 20  0.0000000  0  7G12G10G17G05G04G09G02
 -27543112.17248 -21180650.63346  21853266.5944                   21853263.8954
 -43226156.70748 -33642765.98446  20912250.9614                   20912249.1994
 -94030058.08247 -73219139.87945  22665546.3524                   22665545.2234
 -16851592.30547 -13073611.82845  22685918.8914                   22685918.3134
 -72570675.33648 -56501284.50446  20994614.8054                   20994613.3914
 -40138598.36747 -31203171.39144  22985317.7194                   22985318.0314
 -54054853.18748 -42076227.51246  20558909.3834                   20558905.7504
 11  8 15  0 20 30.0000000  0  7G12G10G17G05G04G09G02
 -27717862.89848 -21316820.01246  21820012.1254                   21820009.6134
 -43353109.93748 -33741690.55946  20888092.4844                   20888090.8014
 -94082429.41447 -73259948.75045  22655580.8284                   22655578.9304
 -17051735.35247 -13229567.36345  22647832.6254                   22647831.8554
 -72601574.43448 -56525361.72746  20988734.7114                   20988733.4384
 -40168922.30947 -31226800.49244  22979547.3054                   22979547.2934
 -54168371.61348 -42164683.41446  20537307.6804                   20537303.8794
 11  8 15  0 21  0.0000000  0  7G12G10G17G05G04G09G02
 -27892194.64148 -21452662.91046  21786837.6414                   21786835.7934
 -43479381.54748 -33840083.99646  20864063.7034                   20864062.0514
 -94134579.91847 -73300585.55545  22645657.1414                   22645655.1564
 -17251612.72347 -13385315.86745  22609797.5864                   22609796.5394
 -72632152.00448 -56549188.40646  20982916.2274                   20982914.6524
 -40198852.52747 -31250122.80144  22973851.9304                   22973852.1414
 -54281466.92248 -42252809.62946  20515786.6564                   20515782.6214
 11  8 15  0 21 30.0000000  0  7G12G10G17G05G04G09G02
 -26490679.98048 -20360573.54746  22053537.1024                   22053534.9964
 -42029546.87548 -32710342.66846  21139958.0004                   21139956.5164
 -92611088.55547 -72113449.47345  22935567.8674                   22935566.1724
 -15875796.26247 -12313251.00445  22871606.0004                   22871605.4384
 -71086990.59848 -55345166.53946  21276950.7814                   21276949.3134
 -38652972.61747 -30045541.09844  23268023.0864                   23268023.2034
 -52818717.34448 -41113004.76246  20794138.1954                   20794134.1134
 11  8 15  0 22  0.0000000  0  7G12G10G17G05G04G09G02
 -26664166.80947 -20495758.06646  22020523.7894                   22020521.6724
 -42154451.64548 -32807671.04746  21116189.2504                   21116187.8714
 -92662796.37147 -72153741.32045  22925728.3834                   22925726.5474
 -16075134.66047 -12468579.55145  22833673.2974                   22833672.5044
 -71116933.01648 -55368498.29346  21271252.9454                   21271251.2034
 -38682126.02747 -30068258.09444  23262475.4384                   23262475.4064
 -52930970.23848 -41200474.55146  20772777.3984                   20772773.1884
 11  8 15  0 22 30.0000000  0  7G12G10G17G05G04G09G02
 -26837227.96148 -20630610.89546  21987591.3134                   21987588.9734
 -42278671.05548 -32904465.37946  21092551.3834                   21092549.7584
 -92714282.26647 -72193860.23845  22915930.4064                   22915929.0904
 -16274199.30547 -12623694.79345  22795792.8834                   22795791.8524
 -71146561.77348 -55391585.64846  21265614.8444                   21265613.3794
 -38710896.68047 -30090676.84444  23257000.6644                   23257000.9414
 -53042803.58648 -41287617.41446  20751496.1724                   20751492.3404
 11  8 15  0 23  0.0000000  0  7G12G10G17G05G04G09G02
 -27009862.00848 -20765130.91446  21954740.0474                   21954737.9344
 -42402205.23448 -33000725.77046  21069043.5784                   21069041.8204
 -92765547.47347 -72233807.18745  22906175.2504                   22906174.0204
 -16472988.68047 -12778595.52345  22757964.1884                   22757963.2814
 -71175880.65648 -55414431.53546  21260035.2894                   21260034.0944
 -38739289.49247 -30112801.16444  23251597.5864                   23251597.6804
 -53154219.88748 -41374435.31646  20730294.7194                   20730290.6214
 11  8 15  0 23 30.0000000  0  7G12G10G17G05G04G09G02
 -27182065.34048 -20899315.30946  21921970.7974                   21921968.6844
 -42525051.94948 -33096450.46546  21045666.5164                   21045665.0904
 -92816589.71947 -72273580.43445  22896461.8984                   22896460.8984
 -16671498.86747 -12933278.71145  22720188.8984                   22720188.5084
 -71204890.59448 -55437036.69146  21254514.8444                   21254513.6804
 -38767306.88347 -30134632.94544  23246266.2584                   23246266.9534
 -53265218.93048 -41460928.07046  20709171.9614                   20709167.4734
 11  8 15  0 24  0.0000000  0  7G12G10G17G05G04G09G02
 -27353838.42648 -21033164.45346  21889283.9384                   21889281.4734
 -42647212.35948 -33191640.37546  21022420.2114                   21022418.4614
 -92867411.53147 -72313181.87545  22886790.9144                   22886789.7624
 -16869729.12947 -13087743.77345  22682466.9844                   22682466.2774
 -71233596.65248 -55459405.05946  21249052.2344                   21249050.6484
 -38794954.58247 -30156176.67644  23241005.4384                   23241005.3324
 -53375803.98048 -41547098.23846  20688128.4384                   20688124.2704
 11  8 15  0 24 30.0000000  0  7G12G10G17G05G04G09G02
 -27525180.31248 -21166677.59046  21856678.2344                   21856675.8794
 -42768687.27348 -33286296.13346  20999304.0314                   20999302.8674
 -92918014.11747 -72352612.52045  22877162.3284                   22877160.8634
 -17067678.79347 -13241990.18445  22644798.3674                   22644797.4694
 -71262003.00848 -55481539.89846  21243646.8444                   21243645.6994
 -38822237.92247 -30177436.48844  23235813.0704                   23235813.5704
 -53485978.15248 -41632948.23846  20667162.9614                   20667159.0394
 11  8 15  0 25  0.0000000  0  7G12G10G17G05G04G09G02
 -27696088.40247 -21299852.71146  21824155.5234                   21824153.2624
 -42889474.45348 -33380416.00446  20976318.8204                   20976317.6174
 -92968396.32047 -72391871.42645  22867574.3594                   22867573.1884
 -17265344.58647 -13396015.39845  22607183.4774                   22607182.8244
 -71290111.31248 -55503442.48846  21238298.1954                   21238296.5944
 -38849159.87947 -30198414.70744  23230690.6884                   23230690.3284
 -53595741.71548 -41718478.29746  20646275.6334                   20646271.5434
 11  8 15  0 25 30.0000000  0  7G12G10G17G05G04G09G02
 -27866562.01248 -21432689.27746  21791715.6024                   21791713.1054
 -43009575.31248 -33474001.07446  20953464.6174                   20953462.7774
 -93018559.77747 -72430959.87145  22858029.1414                   22858027.1644
 -17462725.57447 -13549818.71145  22569623.4454                   22569622.5554
 -71317926.23448 -55525116.46546  21233004.8674                   21233003.6604
 -38875726.27747 -30219115.87944  23225635.1954                   23225634.7974
 -53705098.05148 -41803691.02346  20625465.7664                   20625461.6454
 11  8 15  0 26  0.0000000  0  7G12G10G17G05G04G09G02
 -28036594.80148 -21565182.33246  21759359.0864                   21759357.1094
 -43128984.59448 -33567047.26246  20930742.0634                   20930740.4224
 -93068500.12947 -72469874.46945  22848525.1254                   22848524.0004
 -17659814.69947 -13703394.59045  22532118.5084                   22532117.7424
 -71345446.21548 -55546560.63346  21227768.3754                   21227766.6414
 -38901936.68747 -30239539.62544  23220647.2194                   23220647.6024
 -53814044.18048 -41888584.10546  20604734.0234                   20604729.8594
 11  8 15  0 26 30.0000000  0  7G12G10G17G05G04G09G02
 -28206189.98847 -21697334.42246  21727086.4534                   21727084.2854
 -43247706.92648 -33659558.16446  20908150.0704                   20908147.8594
 -93118222.48847 -72508619.18745  22839063.7584                   22839062.2274
 -17856615.00447 -13856745.40245  22494668.6724                   22494667.7384
 -71372679.03948 -55567781.04346  21222585.7894                   21222584.6484
 -38927800.02347 -30259692.93444  23215725.9454                   23215726.2074
 -53922586.45348 -41973162.49646  20584079.0944                   20584074.9224
 11  8 15  0 27  0.0000000  0  8G12G10G25G17G05G04G09G02
 -28375344.62548 -21829143.21946  21694897.2584                   21694895.2034
 -43365740.92248 -33751532.68746  20885688.8914                   20885687.3484
   4428667.93856   3462459.63753  24586062.1884                   24586063.8324
 -93167725.76647 -72547193.19945  22829643.7344                   22829642.0234
 -18053122.91447 -14009868.39145  22457274.6094                   22457273.4694
 -71399626.52048 -55588779.10246  21217458.2664                   21217456.3954
 -38953319.37147 -30279578.21544  23210869.2034                   23210869.7194
 -54030725.52048 -42057426.69946  20563500.7664                   20563496.8094
 11  8 15  0 27 30.0000000  0  8G12G10G25G17G05G04G09G02
 -28544058.91448 -21960608.87946  21662792.1564                   21662789.7074
 -43483087.75048 -33842971.76646  20863358.5084                   20863356.8634
   4226897.90246   3305236.28143  24547666.8834                   24547668.6684
 -93217012.04747 -72585598.13345  22820264.8054                   22820262.7194
 -18249338.16047 -14162763.31245  22419935.8134                   22419934.4734
 -71426293.45348 -55609558.55146  21212383.6724                   21212381.8634
 -38978500.28546 -30299199.76244  23206077.0864                   23206078.5164
 -54138464.92648 -42141379.47746  20542998.6724                   20542994.8594
 11  8 15  0 28  0.0000000  0  8G12G10G25G17G05G04G09G02
 -28712333.89548 -22091732.22746  21630770.2194                   21630768.4534
 -43599749.66448 -33933877.15246  20841158.0784                   20841156.5634
   4025307.26246   3148152.73843  24509304.7034                   24509307.3714
 -93266084.26247 -72623836.25045  22810926.7114                   22810924.9844
 -18445261.06247 -14315430.44545  22382652.5704                   22382651.9534
 -71452685.68448 -55630123.95346  21207361.6644                   21207359.5434
 -39003350.17247 -30318563.37144  23201349.1804                   23201349.5004
 -54245809.15248 -42225024.31646  20522572.0234                   20522568.0944
 11  8 15  0 28 30.0000000  0  8G12G10G25G17G05G04G09G02
 -28880174.83248 -22222517.36346  21598831.2424                   21598828.7704
 -43715733.46148 -34024254.12546  20819087.2504                   20819086.1214
   3823890.75446   2991204.84843  24470977.3674                   24470979.4614
 -93314949.57047 -72661913.13345  22801627.7274                   22801626.6294
 -18640896.63747 -14467873.67645  22345424.4224                   22345423.9064
 -71478813.32048 -55650483.16846  21202389.3204                   21202388.1024
 -39027880.03547 -30337677.62144  23196681.0474                   23196681.7154
 -54352767.07448 -42308368.15246  20502218.2974                   20502214.3674
 11  8 15  0 29  0.0000000  0  8G12G10G25G17G05G04G09G02
 -29047577.80148 -22352961.22346  21566975.5704                   21566973.5204
 -43831037.00448 -34114101.03546  20797145.8054                   20797143.9614
   3622651.87146   2834395.43843  24432683.2034                   24432684.6804
 -93363606.11347 -72699827.36744  22792368.6804                   22792367.5864
 -18836240.70747 -14620089.78145  22308251.7194                   22308250.1844
 -71504677.20348 -55670636.87546  21197467.9924                   21197466.0864
 -39052092.38746 -30356544.46144  23192073.4694                   23192074.5744
 -54459338.53148 -42391410.83646  20481938.4694                   20481934.3134
 11  8 15  0 29 30.0000000  0  8G12G10G25G17G05G04G09G02
 -27639114.41048 -21255457.27346  21834997.2504                   21834994.9774
 -42370234.84448 -32975813.62946  21075127.4144                   21075125.5904
   4997020.54346   3905332.14543  24694216.3594                   24694217.7154
 -91836631.10547 -71509976.75445  23082942.7664                   23082941.4694
 -17455863.14847 -13544470.84845  22570928.5704                   22570928.1954
 -69954858.16048 -54462985.70746  21492388.3364                   21492386.7544
 -37500569.14147 -29147565.37944  23487318.9384                   23487319.6334
 -52990100.20348 -41246549.78946  20761525.1334                   20761521.3674
 11  8 15  0 30  0.0000000  0  8G12G10G25G17G05G04G09G02
 -27805631.63748 -21385210.94946  21803310.2974                   21803308.0164
 -42484172.18448 -33064595.96946  21053445.4144                   21053443.8874
   4796147.36746   3748807.65243  24655991.3914                   24655993.2774
 -91884865.99647 -71547562.41844  23073763.9694                   23073762.7274
 -17650612.64147 -13696223.62545  22533868.9774                   22533868.1054
 -69980198.47348 -54482731.43746  21487566.4534                   21487564.9804
 -37524153.75047 -29165943.05944  23482831.1724                   23482831.9614
 -53095898.75048 -41328990.21146  20741392.6174                   20741388.5594
 11  8 15  0 30 30.0000000  0  8G12G10G25G17G05G04G09G02
 -27971701.12148 -21514615.73046  21771707.8674                   21771705.7234
 -42597423.52048 -33152843.75046  21031894.6884                   21031892.4494
   4595461.77046   3592429.35543  24617801.6724                   24617804.4344
 -91932887.97347 -71584982.19144  23064624.9924                   23064624.1644
 -17845059.25047 -13847740.42645  22496867.3204                   22496866.3094
 -70005279.23848 -54502274.91846  21482793.4144                   21482792.3054
 -37547428.35547 -29184079.16044  23478401.9224                   23478402.3364
 -53201311.27048 -41411129.83246  20721333.1334                   20721329.0354
 11  8 15  0 31  0.0000000  0  8G12G10G25G17G05G04G09G02
 -28137315.82448 -21643666.14846  21740192.5864                   21740189.9774
 -42709983.59448 -33240552.89546  21010475.2664                   21010473.6644
   4394970.99646   3436202.85544  24579649.9384                   24579651.9964
 -91980692.04747 -71622232.14544  23055528.3914                   23055527.0084
 -18039195.43747 -13999015.30945  22459923.9694                   22459923.6254
 -70030098.11348 -54521614.34045  21478070.7814                   21478069.2734
 -37570392.12147 -29201973.08644  23474031.4694                   23474033.0314
 -53306334.06648 -41492965.76646  20701348.1174                   20701343.7154
 11  8 15  0 31 30.0000000  0  8G12G10G25G17G05G04G09G02
 -28302468.82448 -21772356.78146  21708764.7894                   21708762.5634
 -42821847.19548 -33327719.32046  20989188.1644                   20989186.1954
   4194681.85546   3280133.45744  24541536.8204                   24541537.8794
 -92028273.06647 -71659308.31644  23046474.1564                   23046472.7464
 -18233013.75847 -14150042.51245  22423042.1884                   22423040.6214
 -70054652.59448 -54540747.73446  21473398.3444                   21473396.7544
 -37593043.98447 -29219623.94944  23469721.1484                   23469722.4884
 -53410963.44948 -41574495.13746  20681437.4064                   20681433.6564
 11  8 15  0 32  0.0000000  0  8G12G10G25G17G05G04G09G02
 -28467158.70348 -21900686.54746  21677425.7194                   21677423.0274
 -42933014.30948 -33414343.03546  20968033.8284                   20968032.2734
   3994595.78947   3124222.29344  24503461.0634                   24503463.4384
 -92075631.50847 -71696211.05944  23037462.1174                   23037460.5904
 -18426512.32847 -14300820.57045  22386220.3524                   22386219.5394
 -70078946.17648 -54559677.82845  21468775.3054                   21468774.0744
 -37615388.27046 -29237035.14544  23465469.9454                   23465470.3014
 -53515201.78948 -41655719.80946  20661601.7664                   20661597.7734
 11  8 15  0 32 30.0000000  0  8G12G10G25G17G05G04G09G02
 -28631383.62548 -22028654.01246  21646174.5864                   21646172.0704
 -43043484.80548 -33500423.93046  20947011.8524                   20947010.3674
   3794714.68047   2968470.83244  24465425.4844                   24465426.5944
 -92122767.55947 -71732940.49245  23028493.3364                   23028491.0944
 -18619689.04747 -14451347.83245  22349459.8204                   22349458.9884
 -70102981.57048 -54578406.74246  21464201.8284                   21464199.9064
 -37637428.85247 -29254209.68744  23461275.9844                   23461276.6214
 -53619050.71948 -41736641.04346  20641839.7274                   20641835.9774
 11  8 15  0 33  0.0000000  0  8G12G10G25G17G05G04G09G02
 -28795141.18748 -22156257.28946  21615012.4454                   21615010.6054
 -43153257.71148 -33585961.25446  20926122.5944                   20926121.0164
   3595041.20747   2812881.14144  24427428.6094                   24427430.4184
 -92169680.17247 -71769495.82844  23019565.6884                   23019564.1484
 -18812540.60947 -14601621.71545  22312761.2894                   22312760.2774
 -70126760.68048 -54596935.95345  21459676.9534                   21459674.8364
 -37659168.98847 -29271150.11344  23457138.7504                   23457139.0274
 -53722511.17648 -41817259.57846  20622152.0634                   20622147.8244
 11  8 15  0 33 30.0000000  0  8G12G10G25G17G05G04G09G02
 -28958431.66848 -22283496.61346  21583939.6254                   21583937.2974
 -43262335.07048 -33670956.58246  20905366.0864                   20905364.5744
   3395574.90247   2657452.89144  24389471.2584                   24389473.1804
 -92216371.77747 -71805878.94145  23010680.4384                   23010679.4494
 -19005066.93047 -14751642.16845  22276124.6414                   22276123.7384
 -70150288.47348 -54615269.33646  21455200.0004                   21455198.1094
 -37680615.14146 -29287861.44944  23453057.5704                   23453058.6334
 -53825587.35948 -41897578.67646  20602537.0704                   20602533.3714
 11  8 15  0 34  0.0000000  0  8G12G10G25G17G05G04G09G02
 -29121254.16448 -22410371.27346  21552954.8754                   21552953.0704
 -43370717.91848 -33755410.73446  20884741.8674                   20884739.9694
   3196316.36747   2502186.54744  24351553.6254                   24351554.9654
 -92262843.94147 -71842091.05545  23001837.3284                   23001835.8634
 -19197267.01247 -14901408.41846  22239550.4774                   22239549.0554
 -70173569.21548 -54633410.20746  21450769.5314                   21450767.6954
 -37701773.01647 -29304348.16444  23449031.4454                   23449032.6024
 -53928281.60548 -41977600.15646  20582995.1174                   20582991.1724
 11  8 15  0 34 30.0000000  0  8G12G10G25G17G05G04G09G02
 -29283607.81248 -22536880.59446  21522060.7504                   21522058.3484
 -43478406.53148 -33839323.93046  20864249.2344                   20864247.2544
   2997267.02046   2347083.18444  24313675.5314                   24313677.2274
 -92309097.26647 -71878132.67244  22993035.2274                   22993034.0634
 -19389139.20747 -15050919.15246  22203038.3594                   22203037.4964
 -70196606.23048 -54651361.17246  21446385.6334                   21446384.4734
 -37722646.84847 -29320613.56644  23445059.2424                   23445059.9734
 -54030596.38748 -42057325.95746  20563525.2194                   20563521.1604
 11  8 15  0 35  0.0000000  0  8G12G10G25G17G05G04G09G02
 -29445491.78148 -22663023.93046  21491254.9064                   21491252.7344
 -43585401.71148 -33922696.78146  20843888.3674                   20843886.7114
   2798428.22746   2192143.87143  24275837.6414                   24275838.7544
 -92355132.30947 -71914004.18045  22984275.2424                   22984274.6024
 -19580681.54747 -15200172.86745  22166588.9384                   22166587.8204
 -70219402.82448 -54669124.78946  21442047.5234                   21442046.3954
 -37743241.31246 -29336661.24244  23441140.4614                   23441141.3324
 -54132533.91848 -42136757.78146  20544127.2344                   20544123.4344
 11  8 15  0 35 30.0000000  0  8G12G10G25G17G05G04G09G02
 -29606903.54748 -22788799.32046  21460539.2424                   21460536.7194
 -43691702.91848 -34005528.87946  20823660.0234                   20823658.2274
   2599802.16046   2037370.31343  24238039.9694                   24238042.1174
 -92400948.61347 -71949705.24245  22975556.6724                   22975555.9304
 -19771891.60947 -15349167.66845  22130202.7034                   22130201.5354
 -70241961.14548 -54686702.73446  21437754.5864                   21437753.5004
 -37763560.13346 -29352494.16844  23437274.3984                   23437275.0554
 -54234095.40648 -42215896.60946  20524800.6954                   20524796.8484
 11  8 15  0 36  0.0000000  0  8G12G10G25G17G05G04G09G02
 -29767841.45748 -22914205.46946  21429913.8674                   21429911.6884
 -43797310.17248 -34087820.23846  20803563.5704                   20803561.8284
   2401390.58246   1882763.90243  24200283.9224                   24200285.2154
 -92446546.57047 -71985236.17245  22966880.3284                   22966878.9414
 -19962767.16047 -15497901.80546  22093880.2734                   22093879.7154
 -70264284.32048 -54704097.45745  21433507.0474                   21433505.7194
 -37783607.63747 -29368115.64844  23433459.4534                   23433459.1054
 -54335283.13748 -42294744.18446  20505545.3914                   20505541.2424
 11  8 15  0 36 30.0000000  0  8G12G10G25G17G05G04G09G02
 -29928300.02348 -23039238.10246  21399379.4774                   21399377.3834
 -43902219.99648 -34169568.14146  20783599.8834                   20783598.3014
   2203199.16046   1728329.05943  24162569.3444                   24162570.5664
 -92491922.45747 -72020594.07445  22958245.6174                   22958244.3984
 -20153302.05947 -15646370.49645  22057622.2344                   22057621.7934
 -70286371.52048 -54721308.30545  21429303.7034                   21429302.6564
 -37803383.95747 -29383525.82444  23429695.4224                   23429696.8094
 -54436094.73048 -42373298.67246  20486361.6724                   20486357.4104
 11  8 15  0 37  0.0000000  0  8G12G10G25G17G05G04G09G02
 -30088280.11348 -23163897.89546  21368936.5234                   21368934.3484
 -44006434.96548 -34250774.60246  20763768.4694                   20763767.0904
   2005227.24646   1574065.22743  24124896.2114                   24124897.6484
 -92537079.11747 -72055781.12545  22949652.4064                   22949651.4884
 -20343496.98447 -15794574.27346  22021429.4694                   22021428.6914
 -70308227.60548 -54738339.05145  21425144.8054                   21425143.5124
 -37822895.84447 -29398729.96544  23425983.3674                   23425983.7074
 -54536534.48048 -42451563.41046  20467248.6254                   20467244.6804
 11  8 15  0 37 30.0000000  0  8G12G10G25G17G05G04G09G02
 -28672363.52748 -22060586.25446  21638376.1174                   21638374.0274
 -42534540.60548 -33103843.92246  21043860.7664                   21043859.4454
   3382894.46946   2647572.13743  24387058.0314                   24387058.7384
 -91006603.86347 -70863203.05945  23240891.6334                   23240891.0004
 -18957931.80947 -14714913.04346  22285093.9924                   22285092.9844
 -68754443.77748 -53527598.46145  21720820.2734                   21720818.8134
 -36266735.82447 -28186137.81644  23722110.7034                   23722111.5204
 -53061189.61348 -41301944.03146  20747997.6094                   20747993.2504
 11  8 15  0 38  0.0000000  0  8G12G10G25G17G05G04G09G02
 -28831394.83648 -22184506.73446  21608113.6024                   21608111.5234
 -42637379.45348 -33183978.07446  21024291.1094                   21024289.3284
   3185353.92646   2493644.48043  24349467.2194                   24349468.9344
 -91051335.30547 -70898058.78144  23232379.3914                   23232378.9734
 -19147452.71947 -14862591.60545  22249028.8444                   22249028.5984
 -68775859.77748 -53544286.27745  21716744.6724                   21716743.5634
 -36285744.49247 -28200949.82844  23718492.8914                   23718494.1764
 -53160904.36748 -41379643.83646  20729022.6254                   20729018.4454
 11  8 15  0 38 30.0000000  0  8G12G10G25G17G05G04G09G02
 -28989943.84848 -22308051.39846  21577942.3754                   21577940.2344
 -42739524.85548 -33263571.88746  21004853.3984                   21004852.0234
   2988037.37147   2339891.34843  24311919.4144                   24311920.7974
 -91095849.10247 -70932744.91045  23223909.1334                   23223908.2734
 -19336627.86747 -15010000.74246  22213030.0084                   22213028.9304
 -68797054.27747 -53560801.51645  21712711.4774                   21712710.4184
 -36304502.06247 -28215566.19544  23714923.7034                   23714924.6604
 -53260253.72748 -41457058.92246  20710116.6024                   20710112.6134
 11  8 15  0 39  0.0000000  0  8G12G10G25G17G05G04G09G02
 -29148015.64148 -22431224.20346  21547862.7504                   21547860.4534
 -42840983.88347 -33342630.85546  20985546.3054                   20985544.8014
   2790939.89847   2186308.91844  24274413.0554                   24274413.9884
 -91140151.84447 -70967266.59044  23215478.7424                   23215478.5274
 -19525461.85547 -15157144.05546  22177096.2974                   22177095.2304
 -68818036.85248 -53577151.60945  21708718.7424                   21708717.7194
 -36323019.60547 -28229995.51244  23711399.6254                   23711400.8164
 -53359246.21148 -41534195.91446  20691279.0314                   20691274.8324
 11  8 15  0 39 30.0000000  0  8G12G10G25G17G05G04G09G02
 -29305609.81648 -22554024.83246  21517873.4924                   21517871.0984
 -42941758.46547 -33421156.50046  20966369.7504                   20966367.6914
   2594062.02747   2032897.64144  24236948.0234                   24236949.5984
 -91184245.27747 -71001625.16045  23207087.9304                   23207087.0314
 -19713953.75847 -15304020.80945  22141227.1414                   22141226.5864
 -68838811.78148 -53593339.89845  21704765.4924                   21704764.5824
 -36341302.68447 -28244242.12944  23707920.7274                   23707921.9144
 -53457885.01648 -41611057.32046  20672508.7974                   20672504.6414
 11  8 15  0 40  0.0000000  0  8G12G10G25G17G05G04G09G02
 -29462722.13348 -22676449.99246  21487975.7114                   21487973.6684
 -43041845.92247 -33499146.71146  20947323.4304                   20947321.9614
   2397408.28947   1879661.02044  24199525.8284                   24199527.9654
 -91228126.94547 -71035818.70744  23198737.7194                   23198736.7154
 -19902098.68047 -15450627.18446  22105424.8364                   22105423.7074
 -68859379.06248 -53609366.39145  21700851.9384                   21700850.2934
 -36359352.75047 -28258307.20743  23704485.8594                   23704487.0314
 -53556169.52048 -41687642.64846  20653806.0864                   20653802.0004
 11  8 15  0 40 30.0000000  0  8G12G10G25G17G05G04G09G02
 -29619348.48848 -22798496.48846  21458170.7814                   21458168.5354
 -43141244.46547 -33576600.11746  20928408.6954                   20928407.3054
   2200982.87147   1726602.30944  24162147.2814                   24162149.0164
 -91271794.60247 -71069845.51644  23190428.1254                   23190427.0984
 -20089892.37947 -15596959.88746  22069688.6414                   22069687.6454
 -68879739.10948 -53625231.39545  21696977.1094                   21696976.2344
 -36377171.57847 -28272192.06243  23701095.4924                   23701095.4494
 -53654098.91448 -41763951.27046  20635170.4144                   20635166.2734
 11  8 15  0 41  0.0000000  0  8G12G10G25G17G05G04G09G02
 -29775485.94547 -22920162.01246  21428458.9384                   21428456.9534
 -43239952.29347 -33653515.29746  20909625.2344                   20909623.5354
   2004789.54747   1573724.43844  24124813.1254                   24124814.3914
 -91315246.43047 -71103704.13344  23182160.0704                   23182158.8484
 -20277330.65247 -15743015.64146  22034020.3754                   22034019.5944
 -68899892.77348 -53640935.56645  21693142.1954                   21693141.0594
 -36394761.30947 -28285898.44544  23697748.9304                   23697749.2814
 -53751673.28948 -41839983.25846  20616602.8674                   20616598.3674
 11  8 15  0 41 30.0000000  0  8G12G10G25G17G05G04G09G02
 -29931132.93747 -23041445.36746  21398840.3284                   21398837.7274
 -43337970.57848 -33729893.18046  20890973.0234                   20890971.2424
   1808829.56347   1421028.41444  24087523.3284                   24087524.9654
 -91358483.45347 -71137395.35944  23173932.1094                   23173931.3404
 -20464411.78147 -15888793.08646  21998420.0084                   21998419.2154
 -68919843.50448 -53656481.61345  21689346.1094                   21689344.1884
 -36412126.68447 -28299429.98044  23694444.2584                   23694444.2584
 -53848895.02048 -41915740.44946  20598101.9844                   20598097.9884
 11  8 15  0 42  0.0000000  0  8G12G10G25G17G05G04G09G02
 -30086290.41047 -23162347.27046  21369314.9924                   21369312.5354
 -43435301.99248 -33805735.84046  20872451.3834                   20872449.8444
   1613102.74647   1268514.07444  24050277.7504                   24050279.3984
 -91401507.96547 -71170920.99644  23165744.6174                   23165743.2624
 -20651136.06247 -16034292.47346  21962887.4614                   21962886.4574
 -68939595.96148 -53671873.17645  21685586.7814                   21685586.1524
 -36429273.94147 -28312791.56643  23691180.5554                   23691181.4384
 -53945767.98848 -41991225.88346  20579667.9844                   20579663.6724
 11  8 15  0 42 30.0000000  0  8G12G10G25G17G05G04G09G02
 -30240956.41847 -23282866.22346  21339883.2274                   21339880.7194
 -43531946.59448 -33881043.31646  20854060.6884                   20854059.1724
   1417611.10547   1116182.98044  24013076.5784                   24013078.4804
 -91444319.96547 -71204281.03544  23157597.8284                   23157596.1054
 -20837500.86347 -16179511.74646  21927423.2034                   21927421.9574
 -68959152.71548 -53687112.22345  21681865.7734                   21681864.3484
 -36446206.96547 -28325986.18744  23687958.7504                   23687959.2814
 -54042293.81248 -42066440.80946  20561299.1094                   20561295.3484
 11  8 15  0 43  0.0000000  0  8G12G10G25G17G05G04G09G02
 -30395128.12148 -23403000.00046  21310544.8594                   21310542.7234
 -43627903.38348 -33955814.84046  20835800.6954                   20835798.8754
   1222357.83247    964037.63344  23975921.2584                   23975922.5664
 -91486917.71147 -71237474.12144  23149491.6414                   23149490.8134
 -21023502.99247 -16324448.41046  21892028.1254                   21892027.5824
 -68978515.34448 -53702200.01645  21678181.0864                   21678179.7464
 -36462928.74647 -28339016.24243  23684776.8674                   23684777.6884
 -54138473.03148 -42141385.66046  20542997.1644                   20542993.2114
 11  8 15  0 43 30.0000000  0  8G12G10G25G17G05G04G09G02
 -30548806.00047 -23522748.98846  21281301.0394                   21281298.5594
 -43723174.99648 -34030052.45746  20817671.0314                   20817669.2664
   1027342.90647    812077.98844  23938810.7424                   23938812.1684
 -91529304.18747 -71270502.57844  23141425.9614                   23141425.1134
 -21209142.18447 -16469102.28546  21856702.0474                   21856701.5314
 -68997688.22748 -53717139.95745  21674532.9064                   21674531.6524
 -36479445.24646 -28351886.33243  23681632.9144                   23681634.3754
 -54234309.71148 -42216063.58246  20524760.1094                   20524756.0234
 11  8 15  0 44  0.0000000  0  8G12G10G25G17G05G04G09G02
 -30701988.89847 -23642112.27746  21252151.4614                   21252149.0314
 -43817762.40647 -34103756.93746  20799671.6804                   20799669.8874
    832567.63747    660305.10944  23901746.5634                   23901748.0044
 -91571480.05147 -71303366.91444  23133400.0004                   23133398.6054
 -21394416.67647 -16613471.97346  21821445.8134                   21821444.7664
 -69016674.92248 -53731934.80145  21670919.7894                   21670918.4654
 -36495760.94947 -28364599.94144  23678528.9924                   23678530.7154
 -54329805.99648 -42290476.27346  20506587.6254                   20506583.5234
 11  8 15  0 44 30.0000000  0  8G12G10G25G17G05G04G09G02
 -30854675.42248 -23761088.78946  21223095.7194                   21223093.6134
 -43911666.30148 -34176928.80546  20781802.3834                   20781800.8594
    638033.86747    508720.41844  23864728.2114                   23864729.6054
 -91613445.15647 -71336067.04344  23125415.0004                   23125413.7114
 -21579324.50847 -16757555.94946  21786258.9534                   21786257.6414
 -69035478.09448 -53746586.65245  21667341.3134                   21667340.2544
 -36511880.36347 -28377160.60944  23675461.8204                   23675462.4964
 -54424963.77748 -42364625.19147  20488479.8984                   20488475.7424
 11  8 15  0 45  0.0000000  0  8G12G10G25G17G05G04G09G02
 -31006859.89547 -23879674.09446  21194136.2974                   21194133.7894
 -44004883.70347 -34249565.73446  20764063.8834                   20764062.6214
    443747.52747    357328.50044  23827755.6484                   23827757.2734
 -91655196.07447 -71368600.25444  23117470.0234                   23117468.3914
 -21763859.39847 -16901349.32046  21751143.2344                   21751141.7234
 -69054096.12548 -53761094.23445  21663798.5864                   21663797.0354
 -36527803.66447 -28389568.45744  23672431.7814                   23672432.7034
 -54519781.09848 -42438508.81647  20470436.6254                   20470432.5474
 11  8 15  0 45 30.0000000  0  8G12G10G25G17G05G04G09G02
 -31158540.48848 -23997866.76646  21165272.5084                   21165269.8594
 -44097414.14848 -34321667.37146  20746456.0084                   20746454.2624
    249711.18447    206131.39544  23790832.0004                   23790833.4144
 -91696732.27047 -71400966.14144  23109565.8204                   23109564.1524
 -21948018.60947 -17044849.96146  21716098.5704                   21716097.4454
 -69072531.31648 -53775459.35245  21660290.4064                   21660289.4184
 -36543534.15247 -28401826.03944  23669438.5864                   23669439.2734
 -54614258.73848 -42512127.75846  20452458.1644                   20452454.0084
 11  8 15  0 46  0.0000000  0  8G12G10G25G17G05G04G09G02
 -29734292.02748 -22888062.77746  21436297.5314                   21436295.4924
 -42613836.91447 -33165633.16446  21028771.0704                   21028769.4224
   1631351.79346   1282734.48044  24053749.0864                   24053751.2034
 -90162633.66047 -70205564.67244  23401494.6024                   23401493.6454
 -20556375.70747 -15960452.84446  21980919.3364                   21980918.2774
 -67515367.19548 -52562084.74245  21956609.0234                   21956607.5394
 -34983656.61347 -27186337.13344  23966272.6334                   23966274.2734
 -53132977.32048 -41357882.49646  20734336.8284                   20734332.6684
 11  8 15  0 46 30.0000000  0  8G12G10G25G17G05G04G09G02
 -29884962.00448 -23005467.95346  21407625.8674                   21407624.2114
 -42704997.88748 -33236667.69146  21011423.8524                   21011421.8914
   1437819.21947   1131929.95344  24016921.9064                   24016923.2154
 -90203742.47747 -70237597.54345  23393672.4304                   23393671.2234
 -20739779.61347 -16103364.93046  21946018.8204                   21946017.6724
 -67533446.68448 -52576172.66845  21953168.6174                   21953167.2424
 -34999015.62947 -27198305.27744  23963351.0554                   23963351.1414
 -53226784.00448 -41430978.60947  20716485.8984                   20716481.8324
 11  8 15  0 47  0.0000000  0  8G12G10G25G17G05G04G09G02
 -30035124.48848 -23122477.69146  21379051.6254                   21379048.7774
 -42795475.31248 -33307169.57446  20994206.5784                   20994204.8164
   1244540.98047    981323.58244  23980142.0394                   23980143.5044
 -90244638.64147 -70269464.75845  23385890.2274                   23385888.7584
 -20922803.10547 -16245980.58646  21911190.3204                   21911189.0664
 -67551352.51648 -52590125.30145  21949761.2974                   21949759.6454
 -35014195.50847 -27210133.81243  23960462.2274                   23960462.7234
 -53320258.31248 -41503815.73847  20698698.5004                   20698694.1454
 11  8 15  0 47 30.0000000  0  8G12G10G25G17G05G04G09G02
 -30184776.80948 -23239089.89546  21350573.5474                   21350570.9694
 -42885268.08648 -33377137.97346  20977119.3524                   20977117.7934
   1051520.88347    830918.35244  23943412.0004                   23943412.9184
 -90285320.20747 -70301164.71145  23378147.9614                   23378147.7154
 -21105442.10247 -16388296.64146  21876435.3914                   21876434.1884
 -67569085.59448 -52603943.30945  21946387.0394                   21946385.4494
 -35029198.44547 -27221824.46544  23957606.4224                   23957608.1174
 -53413400.09448 -41576393.75447  20680973.6724                   20680969.5984
 11  8 15  0 48  0.0000000  0  8G12G10G25G17G05G04G09G02
 -30333918.01248 -23355303.83646  21322192.5864                   21322190.6884
 -42974377.52348 -33446573.89146  20960162.6174                   20960160.7974
    858760.47347    680715.47744  23906730.3054                   23906731.7774
 -90325788.16447 -70332698.25844  23370447.7344                   23370446.9344
 -21287694.97747 -16530311.82446  21841753.8364                   21841752.4614
 -67586648.97748 -52617629.08245  21943044.4924                   21943043.6884
 -35044028.99647 -27233380.78144  23954784.6414                   23954785.4224
 -53506211.73848 -41648714.51247  20663312.7664                   20663308.1254
 11  8 15  0 48 30.0000000  0  8G12G10G25G17G05G04G09G02
 -30482545.82048 -23471117.72346  21293910.0004                   21293907.3794
 -43062804.09848 -33515477.71946  20943335.4844                   20943334.3054
    666261.89847    530716.62944  23870099.1954                   23870100.7114
 -90366042.41847 -70364065.25845  23362787.7584                   23362787.3364
 -21469559.58647 -16672024.46146  21807145.9144                   21807144.5204
 -67604044.80548 -52631184.29745  21939734.0314                   21939732.8324
 -35058690.94147 -27244805.72744  23951994.6174                   23951996.1484
 -53598694.87548 -41720779.28946  20645713.6024                   20645709.5514
 11  8 15  0 49  0.0000000  0  8G12G10G25G17G05G04G09G02
 -30630658.09448 -23586529.88746  21265724.9614                   21265723.0784
 -43150547.95748 -33583849.55146  20926638.4534                   20926636.7384
    474027.94147    380923.99244  23833518.4924                   23833519.6644
 -90406082.28947 -70395265.21944  23355168.4304                   23355167.9344
 -21651032.60947 -16813431.94946  21772613.1564                   21772611.6684
 -67621275.07848 -52644610.52345  21936455.2194                   21936454.4654
 -35073187.45747 -27256101.78144  23949237.3594                   23949238.3284
 -53690850.37548 -41792588.76646  20628176.7344                   20628172.6294
 11  8 15  0 49 30.0000000  0  8G12G10G25G17G05G04G09G02
 -30778251.28948 -23701537.58246  21237639.1884                   21237636.3594
 -43237607.46148 -33651688.12946  20910071.8134                   20910069.8914
    282062.87547    231340.84844  23796988.3834                   23796989.8014
 -90445905.22347 -70426296.12144  23347590.5394                   23347590.0944
 -21832110.17648 -16954531.31246  21738155.1174                   21738153.7774
 -67638339.93048 -52657907.83245  21933208.0634                   21933206.7974
 -35087520.63347 -27267270.54744  23946508.5314                   23946510.2034
 -53782677.84848 -41864142.64546  20610702.5474                   20610698.7194
 11  8 15  0 50  0.0000000  0  8G12G10G25G17G05G04G09G02
 -30925328.56248 -23816143.24646  21209651.5474                   21209648.7624
 -43323988.44548 -33718997.98846  20893633.8524                   20893632.2704
     90363.92647     81965.09044  23760509.4534                   23760510.6804
 -90485516.87146 -70457162.42244  23340051.7664                   23340051.9534
 -22012794.41047 -17095324.17246  21703771.8594                   21703770.8754
 -67655246.74248 -52671082.00045  21929991.2814                   21929989.3244
 -35101698.74647 -27278318.48844  23943811.2584                   23943812.0984
 -53874184.10548 -41935446.21946  20593289.6414                   20593285.4144
 11  8 15  0 50 30.0000000  0  8G12G10G25G17G05G04G09G02
 -31071886.37148 -23930344.13746  21181762.0784                   21181759.7664
 -43409689.47348 -33785778.00846  20877325.5864                   20877323.7384
   -101064.60547    -67199.96944  23724081.6954                   23724082.6134
 -90524915.15647 -70487862.41444  23332555.2584                   23332554.6374
 -22193080.93747 -17235807.14146  21669464.0704                   21669462.9104
 -67671995.65648 -52684133.13345  21926803.7344                   21926802.5554
 -35115723.73047 -27289247.12144  23941142.4224                   23941143.5744
 -53965368.48048 -42006498.97746  20575938.3134                   20575933.9494
 11  8 15  0 51  0.0000000  0  8G12G10G25G17G05G04G09G02
 -31217922.98048 -24044138.89146  21153972.0314                   21153969.8444
 -43494711.25448 -33852028.75446  20861146.3834                   20861144.3754
   -292220.60247   -216152.64544  23687706.1334                   23687707.1684
 -90564099.66847 -70518395.88744  23325099.1954                   23325098.7344
 -22372967.99247 -17375978.82046  21635233.2584                   21635231.8714
 -67688589.17647 -52697063.16845  21923646.0004                   21923644.7704
 -35129599.45747 -27300059.43044  23938501.9844                   23938503.2194
 -54056232.82848 -42077302.36746  20558646.9924                   20558643.0514
 11  8 15  0 51 30.0000000  0  8G12G10G25G17G05G04G09G02
 -31363434.06248 -24157524.14146  21126282.7504                   21126280.2424
 -43579051.29348 -33917748.26646  20845097.1484                   20845095.3404
   -483099.13747   -364889.13744  23651382.6724                   23651384.3524
 -90603067.59047 -70548760.52044  23317683.1334                   23317683.0784
 -22552450.37148 -17515835.17646  21601078.4844                   21601077.1414
 -67705026.72748 -52709871.68745  21920518.0864                   21920516.8164
 -35143327.02347 -27310756.28144  23935888.8444                   23935890.4614
 -54146775.77048 -42147855.30946  20541417.1564                   20541413.1804
 11  8 15  0 52  0.0000000  0  8G12G10G25G17G05G04G09G02
 -31508422.35948 -24270502.02346  21098692.1094                   21098689.5984
 -43662715.07048 -33982940.81646  20829176.1884                   20829174.7814
   -673702.44147   -513411.16444  23615112.4304                   23615113.6684
 -90641823.54747 -70578960.03944  23310308.0864                   23310307.9494
 -22731530.11748 -17655377.78146  21567000.7894                   21566999.5084
 -67721315.08648 -52722563.94945  21917418.6094                   21917417.3244
 -35156914.52046 -27321344.02044  23933304.0234                   23933305.2114
 -54237003.53148 -42218162.65646  20524247.4384                   20524243.5744
 11  8 15  0 52 30.0000000  0  8G12G10G25G17G05G04G09G02
 -31652883.50048 -24383069.14546  21071202.4304                   21071199.9574
 -43745700.39848 -34047604.71946  20813384.7814                   20813383.0124
   -864025.27347   -661714.62944  23578894.7664                   23578896.2114
 -90680364.86346 -70608992.30144  23302974.0164                   23302974.0864
 -22910202.00848 -17794602.58646  21533000.7584                   21532999.4734
 -67737453.42248 -52735139.31645  21914347.7034                   21914346.6764
 -35170362.69946 -27331823.19943  23930744.4534                   23930745.6564
 -54326914.76648 -42288223.36746  20507137.9304                   20507134.1174
 11  8 15  0 53  0.0000000  0  8G12G10G25G17G05G04G09G02
 -31796817.95348 -24495225.84446  21043812.2584                   21043810.2114
 -43828010.28148 -34111742.28946  20797721.8914                   20797720.1484
  -1054067.71147   -809799.61744  23542731.6254                   23542732.6454
 -90718693.39146 -70638858.73444  23295679.8914                   23295679.8914
 -23088466.30148 -17933509.78146  21499077.9144                   21499076.5474
 -67753446.33248 -52747601.35945  21911304.0704                   21911303.2584
 -35183677.80546 -27342198.69543  23928210.6174                   23928212.0354
 -54416513.42248 -42358040.49646  20490087.8444                   20490083.6764
 11  8 15  0 53 30.0000000  0  8G12G10G25G17G05G04G09G02
 -31940225.55948 -24606972.02046  21016522.9844                   21016520.0634
 -43909646.89148 -34175355.22746  20782186.7344                   20782184.7384
  -1243828.71947   -957665.32844  23506621.0634                   23506621.9734
 -90756810.48447 -70668560.44944  23288427.4534                   23288426.5164
 -23266321.54747 -18072098.24246  21465233.2034                   21465232.3284
 -67769297.28548 -52759952.78145  21908287.6254                   21908286.8054
 -35196864.98846 -27352474.49643  23925702.0944                   23925703.0824
 -54505802.42248 -42427616.34446  20473096.6724                   20473092.4024
 11  8 15  0 54  0.0000000  0  8G12G10G25G17G05G04G09G02
 -30507676.54748 -23490700.05546  21289127.8594                   21289125.4694
 -42415185.03148 -33010839.49246  21066573.7114                   21066571.9884
    142123.65647    122297.59444  23770359.0554                   23770360.1954
 -89219291.57047 -69470493.77344  23581007.3674                   23581006.6294
 -21868336.32048 -16982759.05546  21731260.9144                   21731259.6334
 -66209584.59847 -51544592.28545  22205091.3524                   22205090.8134
 -33634503.93046 -26135050.38344  24223009.5944                   24223010.8134
 -53019356.77048 -41269346.99646  20755958.2734                   20755953.6414
 11  8 15  0 54 30.0000000  0  8G12G10G25G17G05G04G09G02
 -30650018.17648 -23601615.60246  21262040.9774                   21262038.4844
 -42495470.25848 -33073399.40646  21051295.6724                   21051293.7154
    -47060.35947    -25118.50044  23734357.9614                   23734359.5514
 -89256978.10247 -69499859.94144  23573836.5634                   23573835.5204
 -22045359.55548 -17120699.19946  21697574.8674                   21697573.2234
 -66225150.91047 -51556721.90645  22202129.3134                   22202127.8524
 -33647438.76247 -26145129.54743  24220547.7194                   24220549.1604
 -53108023.40648 -41338437.89546  20739085.1484                   20739081.1564
 11  8 15  0 55  0.0000000  0  8G12G10G25G17G05G04G09G02
 -30791828.11348 -23712116.85246  21235055.2274                   21235052.7304
 -42575084.49648 -33135436.47346  21036145.5004                   21036144.1294
   -235956.18047   -172310.03944  23698412.4774                   23698413.5394
 -89294453.02747 -69529061.21144  23566704.6484                   23566703.9614
 -22221967.05148 -17258315.38746  21663967.4144                   21663966.3954
 -66240581.84847 -51568746.04745  22199192.9774                   22199192.0904
 -33660256.25846 -26155117.29343  24218108.7114                   24218110.0634
 -53196384.82048 -41407290.94546  20722270.5634                   20722266.2344
 11  8 15  0 55 30.0000000  0  8G12G10G25G17G05G04G09G02
 -30933102.30148 -23822200.62546  21208171.8284                   21208169.4224
 -42654026.18048 -33196949.47746  21021123.4384                   21021121.5234
   -424558.91047   -319273.19144  23662522.5004                   23662523.9024
 -89331713.98047 -69558095.76644  23559614.1804                   23559613.5904
 -22398154.00448 -17395603.87946  21630440.1414                   21630438.6524
 -66255876.79747 -51580664.22345  22196282.1564                   22196281.2544
 -33672957.82846 -26165014.71943  24215692.4774                   24215693.3674
 -53284440.28548 -41475905.59446  20705513.9144                   20705510.1644
 11  8 15  0 56  0.0000000  0  8G12G10G25G17G05G04G09G02
 -31073839.35248 -23931865.85946  21181390.6484                   21181388.4534
 -42732296.87148 -33257939.61746  21006228.8674                   21006227.1684
   -612866.75847   -466006.54744  23626688.8204                   23626689.8634
 -89368761.40247 -69586963.93444  23552564.8984                   23552563.5394
 -22573918.40248 -17532563.10946  21596992.9064                   21596991.7774
 -66271038.79747 -51592478.79745  22193397.2274                   22193396.0984
 -33685547.83246 -26174825.17643  24213295.4304                   24213297.2384
 -53372191.68448 -41544283.31246  20688815.6254                   20688811.5084
 11  8 15  0 56 30.0000000  0  8G12G10G25G17G05G04G09G02
 -31214037.62948 -24041111.27046  21154711.8204                   21154709.3834
 -42809896.65247 -33318406.97746  20991462.0234                   20991460.4384
   -800876.81247   -612507.87944  23590911.6884                   23590912.8954
 -89405594.24247 -69615664.89544  23545556.2894                   23545555.0474
 -22749257.43748 -17669190.88346  21563627.3524                   21563625.9494
 -66286068.89147 -51604190.59045  22190536.8594                   22190536.1724
 -33698029.04746 -26184550.90243  24210921.1954                   24210922.7854
 -53459640.06248 -41612424.90646  20672174.8204                   20672170.9414
 11  8 15  0 57  0.0000000  0  8G12G10G25G17G05G04G09G02
 -31353695.49248 -24149935.57446  21128135.7584                   21128133.2934
 -42886826.71548 -33378352.48046  20976822.8914                   20976820.9304
   -988586.85247   -758775.41844  23555192.2114                   23555192.8874
 -89442212.63347 -69644198.73444  23538587.2274                   23538586.2034
 -22924169.29348 -17805485.79346  21530342.5554                   21530341.0904
 -66300969.58647 -51615801.55545  22187701.6174                   22187700.7424
 -33710405.41446 -26194194.93743  24208565.6414                   24208567.8914
 -53546787.00448 -41680331.62146  20655591.4694                   20655587.2734
 11  8 15  0 57 30.0000000  0  8G12G10G25G17G05G04G09G02
 -31492812.43748 -24258338.40646  21101662.8984                   21101660.1994
 -42963089.07048 -33437777.69546  20962310.8364                   20962309.2464
  -1175995.58247   -904808.16844  23519528.3914                   23519529.9964
 -89478617.78147 -69672566.38344  23531659.4384                   23531659.0664
 -23098652.34448 -17941446.57446  21497139.6254                   21497137.9384
 -66315743.93747 -51627314.07445  22184889.9774                   22184889.1724
 -33722681.31646 -26203760.69543  24206229.7814                   24206231.6684
 -53633635.02348 -41748005.39846  20639064.6724                   20639060.6134
 11  8 15  0 58  0.0000000  0  8G12G10G25G17G05G04G09G02
 -31631385.83648 -24366317.67646  21075292.8364                   21075290.7074
 -43038683.93448 -33496682.77746  20947925.1334                   20947923.5864
  -1363099.73047  -1050603.59444  23483923.7664                   23483925.2464
 -89514808.46147 -69700766.94944  23524772.2664                   23524772.3324
 -23272703.50448 -18077070.82046  21464018.2194                   21464017.2344
 -66330393.25847 -51638729.16045  22182102.2034                   22182101.9924
 -33734859.71146 -26213250.42243  24203912.7664                   24203913.7074
 -53720184.72348 -41815446.73446  20622594.9534                   20622590.8284
 11  8 15  0 58 30.0000000  0  8G12G10G25G17G05G04G09G02
 -31769414.05948 -24473872.14846  21049027.1484                   21049024.7034
 -43113612.32048 -33555068.52746  20933666.7974                   20933665.2074
  -1549896.94147  -1196159.85244  23448377.9844                   23448379.5164
 -89550784.74647 -69728800.44144  23517926.4774                   23517926.2464
 -23446320.56247 -18212356.79346  21430980.6174                   21430978.6644
 -66344919.21947 -51650048.13345  22179338.3834                   22179337.2384
 -33746944.08647 -26222666.90243  24201612.8054                   24201614.3794
 -53806437.69548 -41882656.84846  20606181.6414                   20606177.2624
 11  8 15  0 59  0.0000000  0  8G12G10G25G17G05G04G09G02
 -31906896.73848 -24581001.52046  21022865.0474                   21022862.7114
 -43187876.14848 -33612936.45746  20919535.1484                   20919533.1094
  -1736386.11347  -1341476.05544  23412890.2274                   23412891.7664
 -89586547.77347 -69756667.78944  23511121.8364                   23511120.6804
 -23619502.73848 -18347303.89146  21398024.8134                   21398023.6604
 -66359325.13747 -51661273.55945  22176596.9224                   22176596.3244
 -33758939.19947 -26232013.85543  24199330.6094                   24199331.9414
 -53892396.64848 -41949637.86346  20589823.8594                   20589819.9304
 11  8 15  0 59 30.0000000  0  8G12G10G25G17G05G04G09G02
 -32043832.74648 -24687704.90646  20996807.0944                   20996804.6484
 -43261476.35548 -33670287.26246  20905529.3364                   20905527.4344
  -1922564.79747  -1486550.33244  23377461.8364                   23377462.5164
 -89622097.41047 -69784368.85244  23504356.5944                   23504355.2894
 -23792247.07448 -18481909.83246  21365152.5314                   21365151.2894
 -66373613.00447 -51672407.00045  22173878.2584                   22173877.2624
 -33770848.41046 -26241293.84443  24197064.3524                   24197066.6454
 -53978063.18748 -42016391.01646  20573522.1484                   20573518.2504
 11  8 15  1  0  0.0000000  0  8G12G10G25G17G05G04G09G02
 -32180219.89848 -24793980.62146  20970853.3834                   20970851.1094
 -43334413.71548 -33727121.57046  20891649.9064                   20891648.0314
  -2108430.44947  -1631380.69544  23342092.6174                   23342093.4414
 -89657433.25847 -69811903.32844  23497631.8054                   23497631.1564
 -23964551.15248 -18616172.69946  21332364.2664                   21332363.1764
 -66387784.54747 -51683449.79745  22171181.5704                   22171180.4694
 -33782675.35546 -26250509.77043  24194813.5864                   24194815.3364
 -54063438.49248 -42082917.24246  20557275.8674                   20557271.6334
 11  8 15  1  0 30.0000000  0  8G12G10G25G17G05G04G09G02
 -32316057.49248 -24899828.11346  20945004.0474                   20945001.9574
 -43406689.78548 -33783440.58646  20877896.1024                   20877894.5824
  -2293980.88747  -1775965.42244  23306783.1334                   23306784.2734
 -89692555.27747 -69839271.15644  23490949.0394                   23490948.4774
 -24136413.15248 -18750091.10246  21299659.7894                   21299658.5554
 -66401841.83247 -51694403.56645  22168506.4454                   22168505.8094
 -33794423.65246 -26259664.39843  24192578.6174                   24192580.2074
 -54148524.29748 -42149217.88346  20541084.2894                   20541080.7504
 11  8 15  1  1  0.0000000  0  8G12G10G25G17G05G04G09G02
 -32451344.28548 -25005246.40246  20919260.0394                   20919257.9454
 -43478306.14548 -33839245.54346  20864267.9304                   20864266.3134
  -2479214.30947  -1920303.12944  23271534.6254                   23271535.4144
 -89727464.37547 -69866473.11744  23484306.3524                   23484305.6174
 -24307831.62948 -18883663.89546  21267040.1884                   21267038.7344
 -66415787.64547 -51705270.45745  22165852.9144                   22165851.5084
 -33806097.41846 -26268760.94943  24190357.6724                   24190358.7544
 -54233322.49648 -42215294.41046  20524948.0164                   20524944.1954
 11  8 15  1  1 30.0000000  0  8G12G10G25G17G05G04G09G02
 -32586077.66448 -25110233.46146  20893621.2034                   20893619.0204
 -43549263.02348 -33894536.61746  20850765.1564                   20850763.5984
  -2664127.21947  -2064391.10244  23236346.9534                   23236348.1054
 -89762159.20346 -69893508.06644  23477703.2424                   23477701.6254
 -24478802.38748 -19016887.81646  21234505.4614                   21234504.0394
 -66429622.71147 -51716051.06645  22163219.9384                   22163219.0234
 -33817699.04346 -26277801.23843  24188149.3674                   24188150.9304
 -54317833.66048 -42281147.28146  20508865.9614                   20508861.9614
 11  8 15  1  2  0.0000000  0  8G12G10G25G17G05G04G09G02
 -32720257.44148 -25214789.13746  20868087.9064                   20868085.3954
 -43619562.57848 -33949315.50846  20837387.8054                   20837386.5664
  -2848718.37947  -2208228.33645  23201220.3524                   23201221.4384
 -89796640.72747 -69920376.83644  23471142.6174                   23471141.5164
 -24649325.51648 -19149762.94946  21202055.8984                   21202054.5394
 -66443349.92647 -51726747.63745  22160607.8834                   22160607.1374
 -33829233.03146 -26286788.87143  24185954.8594                   24185956.1804
 -54402060.22348 -42346778.37546  20492838.0634                   20492834.7034
 11  8 15  1  2 30.0000000  0  8G12G10G25G17G05G04G09G02
 -31278458.83248 -24091309.70746  21142452.7664                   21142450.6724
 -42113784.93448 -32775982.28146  21123927.7974                   21123926.4414
  -1457560.53147  -1124209.20744  23465948.2664                   23465950.3404
 -88255489.14846 -68719479.53944  23764412.7974                   23764412.4574
 -23243973.94948 -18054683.77346  21469485.2114                   21469483.5984
 -64881552.25047 -50509762.47345  22457807.9384                   22457806.9804
 -32265284.02746 -25068127.40243  24483564.8204                   24483566.7814
 -52910582.34848 -41184587.83646  20776657.1484                   20776652.9694
 11  8 15  1  3  0.0000000  0  8G12G10G25G17G05G04G09G02
 -31411527.91448 -24194999.90646  21117130.4844                   21117128.1484
 -42182774.46548 -32829740.37146  21110799.5704                   21110797.8754
  -1641502.15247  -1267540.30944  23430945.5474                   23430946.8834
 -88289545.09046 -68746016.64544  23757932.9694                   23757933.0004
 -23413595.00048 -18186855.97746  21437207.4144                   21437205.8954
 -64895070.99247 -50520296.59045  22455235.6644                   22455235.1334
 -32276694.59046 -25077018.85243  24481393.4064                   24481394.4804
 -52994245.57448 -41249779.97746  20760736.3914                   20760732.5704
 11  8 15  1  3 30.0000000  0  8G12G10G25G17G05G04G09G02
 -31544039.01248 -24298255.31646  21091914.3674                   21091912.4734
 -42251110.32848 -32882989.09846  21097795.8444                   21097794.0514
  -1825114.84847  -1410615.11744  23396005.4384                   23396006.3834
 -88323387.75047 -68772387.61744  23751492.8364                   23751492.8324
 -23582761.18748 -18318673.75046  21405016.3834                   21405014.7584
 -64908487.54747 -50530751.09045  22452682.7664                   22452682.3134
 -32288047.86346 -25085865.65244  24479232.7274                   24479234.8054
 -53077628.75448 -41314753.89146  20744868.8914                   20744865.3484
 11  8 15  1  4  0.0000000  0  8G12G10G25G17G05G04G09G02
 -31675992.53948 -24401076.25446  21066804.7274                   21066802.2274
 -42318795.24648 -32935730.60246  21084915.7894                   21084913.8094
  -2008397.96147  -1553433.10544  23361127.8444                   23361128.8484
 -88357018.54747 -68798593.43444  23745093.3444                   23745092.3244
 -23751472.14148 -18450136.78946  21372911.7814                   21372909.9264
 -64921805.73447 -50541128.94945  22450148.2894                   22450147.5514
 -32299349.51246 -25094672.21543  24477082.2344                   24477084.7464
 -53160735.10248 -41379512.09846  20729054.3834                   20729050.4454
 11  8 15  1  4 30.0000000  0  8G12G10G25G17G05G04G09G02
 -31807387.35948 -24503461.82846  21041800.8984                   21041798.3444
 -42385830.88748 -32987966.16846  21072159.3134                   21072157.6134
  -2191349.49247  -1695992.70745  23326313.2114                   23326314.2114
 -88390437.67646 -68824634.34844  23738733.5004                   23738733.8634
 -23919725.89848 -18581243.57446  21340894.1024                   21340892.3324
 -64935027.67647 -50551431.80545  22447632.0704                   22447631.7814
 -32310602.87546 -25103441.15243  24474940.7974                   24474942.8634
 -53243566.40648 -41444055.98446  20713292.4144                   20713288.4614
 11  8 15  1  5  0.0000000  0  8G12G10G25G17G05G04G09G02
 -31938220.22348 -24605409.52046  21016904.2584                   21016902.4304
 -42452216.72747 -33039695.40646  21059526.4064                   21059524.5664
  -2373964.97347  -1838290.47345  23291562.8444                   23291563.8554
 -88423643.78946 -68850509.27044  23732415.1094                   23732414.7504
 -24087518.39548 -18711990.93446  21308964.0634                   21308962.5274
 -64948153.24647 -50561659.56245  22445134.2734                   22445134.0984
 -32321809.55946 -25112173.73043  24472807.8364                   24472809.9144
 -53326122.18048 -41508385.17246  20697582.4384                   20697578.9024
 11  8 15  1  5 30.0000000  0  8G12G10G25G17G05G04G09G02
 -32068489.93048 -24706918.38346  20992115.0234                   20992112.5354
 -42517953.98047 -33090919.25046  21047017.0864                   21047015.3554
  -2556242.16847  -1980324.62145  23256876.0784                   23256877.4344
 -88456636.10946 -68876217.57844  23726136.4844                   23726135.6764
 -24254847.38348 -18842377.11746  21277122.5004                   21277121.2424
 -64961184.26647 -50571813.65645  22442654.3054                   22442653.7774
 -32332973.24646 -25120872.78143  24470683.6954                   24470686.1684
 -53408403.83648 -41572500.76246  20681924.8914                   20681920.8914
 11  8 15  1  6  0.0000000  0  8G12G10G25G17G05G04G09G02
 -32198196.96548 -24807988.80946  20967432.5234                   20967430.1214
 -42583046.29748 -33141640.54346  21034630.6174                   21034629.0664
  -2738180.56647  -2122094.77744  23222254.2344                   23222255.6374
 -88489416.77746 -68901760.95744  23719898.9454                   23719897.7234
 -24421712.70748 -18972402.01246  21245368.6414                   21245367.4844
 -64974124.69547 -50581897.15245  22440192.5234                   22440191.9024
 -32344099.05946 -25129542.33244  24468566.7584                   24468569.6094
 -53490414.86748 -41636405.48046  20666318.6724                   20666314.7424
 11  8 15  1  6 30.0000000  0  8G12G10G25G17G05G04G09G02
 -32327341.03548 -24908620.54346  20942856.7584                   20942854.3014
 -42647496.46148 -33191861.46146  21022365.8984                   21022364.5944
  -2919779.35247  -2263600.31245  23187697.1024                   23187698.4694
 -88521987.25046 -68927140.54344  23713700.7034                   23713700.0234
 -24588113.83648 -19102065.19546  21213704.1174                   21213702.5084
 -64986977.71947 -50591912.55145  22437746.4534                   22437746.3094
 -32355192.16046 -25138186.40243  24466455.8834                   24466457.7934
 -53572158.25848 -41700101.64146  20650763.4534                   20650759.3874
 11  8 15  1  7  0.0000000  0  8G12G10G25G17G05G04G09G02
 -32455919.50048 -25008811.55146  20918389.2424                   20918387.2464
 -42711303.44148 -33241581.19146  21010223.7114                   21010222.2704
  -3101033.79347  -2404837.51644  23153206.0004                   23153207.1844
 -88554345.23447 -68952354.58644  23707543.5704                   23707542.7424
 -24754046.04748 -19231362.98046  21182128.0944                   21182126.6954
 -64999742.71947 -50601859.33244  22435317.1644                   22435316.7034
 -32366253.66046 -25146805.82043  24464351.1414                   24464352.8324
 -53653633.40248 -41763588.77346  20635259.2584                   20635255.0664
 11  8 15  1  7 30.0000000  0  8G12G10G25G17G05G04G09G02
 -32583929.61748 -25108559.69146  20894029.8834                   20894027.5704
 -42774467.37548 -33290799.85246  20998204.2894                   20998202.4614
  -3281940.19147  -2545803.52745  23118780.2974                   23118781.3204
 -88586489.33647 -68977401.94144  23701426.6564                   23701426.1954
 -24919506.22348 -19360292.94946  21150641.6484                   21150640.3634
 -65012420.44947 -50611738.11745  22432905.2034                   22432904.5204
 -32377285.49646 -25155402.15243  24462251.4534                   24462253.5204
 -53734840.22348 -41826866.82046  20619806.0634                   20619802.0824
 11  8 15  1  8  0.0000000  0  8G12G10G25G17G05G04G09G02
 -32711368.67648 -25207862.84846  20869779.1094                   20869776.9574
 -42836988.57847 -33339517.68046  20986306.4924                   20986304.8164
  -3462495.10547  -2686495.64844  23084422.0704                   23084423.0944
 -88618418.73847 -69002281.95344  23695350.7344                   23695350.4534
 -25084491.52348 -19488852.88746  21119245.9534                   21119244.8014
 -65025011.37147 -50621549.25445  22430508.7584                   22430507.9614
 -32388289.94146 -25163977.14543  24460157.9144                   24460160.2234
 -53815779.07848 -41889936.06646  20604403.8754                   20604399.8444
 11  8 15  1  8 30.0000000  0  8G12G10G25G17G05G04G09G02
 -32838236.75048 -25306721.08646  20845636.9694                   20845634.7854
 -42898870.06248 -33387737.02746  20974530.8284                   20974529.3634
  -3642697.49247  -2826913.08245  23050131.0784                   23050131.5864
 -88650134.24647 -69026995.36744  23689315.2504                   23689314.9304
 -25249000.72748 -19617041.84046  21087941.1804                   21087939.8754
 -65037518.62547 -50631295.18744  22428129.0234                   22428128.1094
 -32399271.78946 -25172534.53543  24458067.6174                   24458070.5474
 -53896452.67248 -41952798.60946  20589052.6954                   20589048.8284
 11  8 15  1  9  0.0000000  0  8G12G10G25G17G05G04G09G02
 -32964536.84048 -25405136.73846  20821602.7194                   20821600.7154
 -42960117.37148 -33435462.21946  20962875.8754                   20962874.5274
  -3822549.16847  -2967057.21945  23015906.0004                   23015906.8914
 -88681640.57446 -69051545.76244  23683319.2734                   23683318.9884
 -25413035.78548 -19744861.32846  21056726.1724                   21056725.0164
 -65049948.17647 -50640980.57844  22425763.6884                   22425762.6844
 -32410238.76646 -25181080.32443  24455982.0164                   24455983.4344
 -53976866.88348 -42015459.04346  20573749.5864                   20573746.0784
 11  8 15  1  9 30.0000000  0  8G12G10G25G17G05G04G09G02
 -33090264.97348 -25503106.69946  20797677.4224                   20797675.0354
 -43020729.17248 -33482692.19546  20951341.6804                   20951340.8244
  -4002044.75047  -3106923.88344  22981749.0864                   22981750.2304
 -88712934.50846 -69075930.66844  23677364.3444                   23677364.4884
 -25576592.23048 -19872307.87546  21025602.7274                   21025601.1174
 -65062298.81647 -50650604.48845  22423413.9384                   22423413.0004
 -32421191.07446 -25189614.67643  24453896.8754                   24453899.5314
 -54057019.99648 -42077916.01246  20558497.5394                   20558493.7664
 11  8 15  1 10  0.0000000  0  8G12G10G25G17G05G04G09G02
 -33215418.78548 -25600629.14846  20773861.7504                   20773859.2424
 -43080706.01248 -33529427.41446  20939928.8524                   20939927.5004
  -4181180.96147  -3246510.51644  22947660.3134                   22947661.8594
 -88744014.98446 -69100149.23044  23671450.5314                   23671449.7974
 -25739666.84848 -19999378.96946  20994570.6334                   20994569.1054
 -65074571.26247 -50660167.42645  22421077.3054                   22421077.3134
 -32432131.21946 -25198139.59843  24451815.6094                   24451817.5474
 -54136912.54348 -42140169.93746  20543294.0944                   20543290.2274
 11  8 15  1 10 30.0000000  0  8G12G10G25G17G05G04G09G02
 -31764572.88348 -24470099.87546  21049948.3204                   21049945.8834
 -41564626.98848 -32348067.14846  21228428.8674                   21228428.2854
  -2784528.99247  -2158210.24645  23213434.6414                   23213435.5164
 -87199460.66846 -67896600.44144  23965369.5704                   23965369.1094
 -24326831.62948 -18898468.37946  21263423.4454                   21263422.5704
 -63511346.49647 -49442070.23444  22718550.1414                   22718549.3834
 -30867641.82446 -23979057.02343  24749528.8524                   24749530.5274
 -52641123.05948 -40974619.68746  20827933.6564                   20827929.7074
 11  8 15  1 11  0.0000000  0  8G12G10G25G17G05G04G09G02
 -31888577.07848 -24566726.51246  21026351.1484                   21026349.0204
 -41623340.17648 -32393817.69146  21217256.4384                   21217254.7734
  -2962941.08647  -2297232.64144  23179484.2664                   23179485.1174
 -87230115.83646 -67920487.54344  23959535.7424                   23959534.7384
 -24488938.13748 -19024785.10246  21232575.6954                   21232574.5664
 -63523469.67647 -49451516.88344  22716243.4534                   22716241.7344
 -30878569.34846 -23987572.10543  24747448.2664                   24747450.8324
 -52720500.84848 -41036472.50446  20812828.3524                   20812824.4024
 11  8 15  1 11 30.0000000  0  8G12G10G25G17G05G04G09G02
 -32012005.64848 -24662904.60946  21002863.3204                   21002860.8364
 -41681425.12948 -32439078.69946  21206203.2894                   21206201.6414
  -3140988.68747  -2435971.00845  23145602.6254                   23145603.4844
 -87260559.87946 -67944210.20744  23953742.2194                   23953741.8834
 -24650558.45748 -19150722.98046  21201820.9534                   21201819.2304
 -63535521.73447 -49460908.12944  22713949.8054                   22713948.8324
 -30889496.78946 -23996087.10943  24745368.6644                   24745371.6454
 -52799624.35548 -41098127.18046  20797771.7664                   20797767.4924
 11  8 15  1 12  0.0000000  0  8G12G10G25G17G05G04G09G02
 -32134856.30148 -24758632.38346  20979485.7974                   20979483.5164
 -41738882.37548 -32483850.59446  21195269.9614                   21195267.9804
  -3318668.14847  -2574422.50844  23111790.9924                   23111792.4304
 -87290791.30146 -67967767.15643  23947989.5634                   23947988.0984
 -24811689.59448 -19276279.67246  21171158.4924                   21171157.1524
 -63547503.34047 -49470244.44944  22711669.5314                   22711668.4774
 -30900425.99246 -24004603.47743  24743289.6954                   24743291.6334
 -52878493.93048 -41159583.98046  20782763.5084                   20782759.4774
 11  8 15  1 12 30.0000000  0  8G12G10G25G17G05G04G09G02
 -32257124.77048 -24853906.51246  20956218.8204                   20956216.4224
 -41795710.10548 -32528131.94946  21184455.5554                   21184454.1414
  -3495973.92647  -2712582.83245  23078050.9774                   23078052.1524
 -87320806.82046 -67991155.90644  23942277.7664                   23942277.8204
 -24972326.56648 -19401451.30146  21140590.3054                   21140588.6564
 -63559412.72747 -49479524.53544  22709403.2034                   22709402.9414
 -30911357.12546 -24013121.35543  24741208.4924                   24741212.0664
 -52957107.80948 -41220841.54746  20767803.7344                   20767799.9654
 11  8 15  1 13  0.0000000  0  8G12G10G25G17G05G04G09G02
 -32378810.46148 -24948726.52346  20933062.8444                   20933060.7384
 -41851910.69148 -32571924.62546  21173760.9844                   21173759.4454
  -3672904.14847  -2850450.52045  23044382.2734                   23044383.5634
 -87350607.07846 -68014376.93043  23936607.6884                   23936606.8554
 -25132467.78548 -19526236.62946  21110116.2274                   21110114.6254
 -63571252.06247 -49488750.00845  22707150.1334                   22707150.0274
 -30922293.86346 -24021643.58643  24739127.8674                   24739130.6254
 -53035467.93048 -41281901.37146  20752892.2274                   20752888.0314
 11  8 15  1 13 30.0000000  0  8G12G10G25G17G05G04G09G02
 -32499914.94148 -25043093.64546  20910017.1804                   20910015.1994
 -41907488.39848 -32615231.94546  21163184.6724                   21163183.1884
  -3849458.93047  -2988025.64845  23010785.3524                   23010786.3554
 -87380194.60546 -68037432.16044  23930977.1024                   23930975.8714
 -25292113.54348 -19650635.88746  21079736.6564                   21079735.1214
 -63583025.66847 -49497924.26244  22704909.9304                   22704909.6524
 -30933242.01646 -24030174.71543  24737044.3834                   24737047.4454
 -53113578.12948 -41342766.45346  20738028.2114                   20738024.2854
 11  8 15  1 14  0.0000000  0  8G12G10G25G17G05G04G09G02
 -32620437.93448 -25137007.65646  20887082.7664                   20887079.9534
 -41962445.65248 -32658055.78546  21152727.1024                   21152725.3834
  -4025636.80547  -3125307.09845  22977260.0474                   22977260.5474
 -87409570.07846 -68060322.19143  23925386.8364                   23925386.2734
 -25451263.05148 -19774648.44546  21049451.3134                   21049449.5084
 -63594735.72747 -49507049.00844  22702681.9304                   22702680.8204
 -30944205.82046 -24038718.06243  24734958.7344                   24734960.8204
 -53191440.51648 -41403438.42646  20723211.7274                   20723207.5234
 11  8 15  1 14 30.0000000  0  8G12G10G25G17G05G04G09G02
 -32740376.45748 -25230466.23846  20864258.8444                   20864256.7194
 -42016782.45748 -32700396.16446  21142387.3284                   21142385.3364
  -4201433.46547  -3262291.48045  22943806.5164                   22943807.8244
 -87438732.03146 -68083045.81644  23919838.0704                   23919837.3554
 -25609912.47748 -19898271.34046  21019261.5704                   21019260.0084
 -63606382.19147 -49516124.19144  22700465.0784                   22700465.0354
 -30955186.47346 -24047274.53143  24732868.8134                   24732871.8054
 -53269055.07848 -41463917.30146  20708442.0474                   20708438.0044
 11  8 15  1 15  0.0000000  0  8G12G10G25G17G05G04G09G02
 -32859728.75048 -25323468.02346  20841547.1804                   20841545.0274
 -42070499.75848 -32742253.80546  21132164.9614                   21132163.3444
  -4376845.76247  -3398976.37945  22910426.8284                   22910428.1054
 -87467679.26246 -68105602.09843  23914328.3754                   23914328.8714
 -25768058.91048 -20021502.28146  20989167.2114                   20989165.3634
 -63617965.83247 -49525150.43044  22698261.6024                   22698260.6214
 -30966186.59846 -24055846.14842  24730774.9924                   24730779.1604
 -53346421.99648 -41524203.20346  20693719.6884                   20693715.6684
 11  8 15  1 15 30.0000000  0  8G12G10G25G17G05G04G09G02
 -32978492.81648 -25416011.44546  20818946.9534                   20818945.0004
 -42123598.52048 -32783629.48046  21122060.5864                   21122059.2034
  -4551870.69147  -3535359.43045  22877120.8674                   22877121.8794
 -87496411.35547 -68127990.75844  23908862.0704                   23908861.0434
 -25925699.81648 -20144339.31646  20959169.0314                   20959167.9414
 -63629487.63747 -49534128.45744  22696068.6334                   22696067.9344
 -30977208.76246 -24064434.93743  24728678.5004                   24728681.0314
 -53423541.99648 -41584296.69546  20679044.3524                   20679040.2934
 11  8 15  1 16  0.0000000  0  8G12G10G25G17G05G04G09G02
 -33096670.32448 -25508097.80546  20796458.5634                   20796456.1564
 -42176082.55948 -32824526.13346  21112073.3444                   21112071.8714
  -4726507.73047  -3671440.23445  22843888.2504                   22843889.4734
 -87524930.16046 -68150213.20743  23903434.3984                   23903433.4384
 -26082835.35548 -20266782.56246  20929267.1094                   20929265.6054
 -63640950.87947 -49543060.86344  22693887.0784                   22693886.3634
 -30988258.02746 -24073044.82843  24726576.2814                   24726577.5354
 -53500418.59448 -41644200.53546  20664414.8284                   20664410.9024
 11  8 15  1 16 30.0000000  0  8G12G10G25G17G05G04G09G02
 -33214258.94148 -25599725.29746  20774082.3364                   20774079.8954
 -42227952.29348 -32864944.11746  21102202.7584                   21102201.2424
  -4900753.40647  -3807216.08245  22810730.5004                   22810731.3674
 -87553234.62946 -68172268.64843  23898048.7504                   23898047.6644
 -26239462.52048 -20388829.66446  20899462.2504                   20899460.2504
 -63652355.88347 -49551947.91044  22691716.5554                   22691716.1414
 -30999336.35546 -24081677.32843  24724467.9384                   24724469.9144
 -53577052.06248 -41703914.92646  20649832.3204                   20649828.1254
 11  8 15  1 17  0.0000000  0  8G12G10G25G17G05G04G09G02
 -33331258.28948 -25690893.62146  20751817.9304                   20751815.3554
 -42279210.46148 -32904885.55546  21092448.5704                   21092446.8554
  -5074605.98847  -3942685.61345  22777647.2584                   22777648.6604
 -87581325.31646 -68194157.51244  23892703.2814                   23892702.9734
 -26395579.95748 -20510479.57846  20869753.8524                   20869752.0744
 -63663704.92247 -49560791.33644  22689557.0084                   22689556.5124
 -31010447.69147 -24090335.60243  24722354.1094                   24722355.3674
 -53653444.20748 -41763441.26246  20635295.2034                   20635290.9804
 11  8 15  1 17 30.0000000  0  8G12G10G25G17G05G04G09G02
 -33447669.37948 -25781603.55546  20729665.6174                   20729663.3484
 -42329860.84848 -32944353.40245  21082810.5474                   21082808.6294
  -5248064.92647  -4077848.41045  22744639.4144                   22744640.6764
 -87609204.22346 -68215881.36744  23887397.2114                   23887397.0354
 -26551187.53948 -20631732.21946  20840142.7504                   20840140.6844
 -63675001.48047 -49569593.84844  22687407.3204                   22687406.7034
 -31021596.85946 -24099023.30943  24720232.6024                   24720234.6174
 -53729598.31248 -41822782.12546  20620803.6254                   20620799.3594
 11  8 15  1 18  0.0000000  0  8G12G10G25G17G05G04G09G02
 -33563489.00848 -25871852.61746  20707625.7194                   20707623.6884
 -42379903.41048 -32983347.60946  21073287.2424                   21073285.6604
  -5421125.96947  -4212701.17245  22711706.7194                   22711708.1954
 -87636869.31646 -68237438.57444  23882133.6024                   23882131.7154
 -26706281.75048 -20752584.81646  20810628.9774                   20810627.5664
 -63686244.96547 -49578355.02344  22685267.7734                   22685267.5234
 -31032784.84847 -24107741.27743  24718102.6334                   24718105.8014
 -53805513.87148 -41881937.10546  20606357.1564                   20606353.1094
 11  8 15  1 18 30.0000000  0  8G12G10G25G17G05G04G09G02
 -33678716.44948 -25961640.23846  20685698.8674                   20685696.5984
 -42429339.43448 -33021869.19546  21063880.0314                   21063878.8954
  -5593786.41047  -4347241.76245  22678850.7664                   22678851.9804
 -87664320.24646 -68258828.91444  23876910.1564                   23876909.2854
 -26860860.35248 -20873035.64546  20781214.1484                   20781212.1954
 -63697436.59047 -49587075.77744  22683138.2274                   22683137.2934
 -31044014.89546 -24116492.03943  24715966.5004                   24715968.6294
 -53881191.87148 -41940906.97346  20591956.3134                   20591952.3364
 11  8 15  1 19  0.0000000  0  7G12G10G25G17G05G04G02
 -32217927.79348 -24823363.36346  20963677.7584                   20963675.5944
 -40902750.31648 -31832319.23845  21354380.0864                   21354378.8164
  -4190619.00447  -3253864.55945  22945864.4064                   22945865.8594
 -86116137.18446 -67052452.57444  24171519.7274                   24171518.6174
 -25439497.17648 -19765479.89546  21051690.1174                   21051688.4184
 -62133158.26247 -48368157.62944  22980810.0784                   22980810.0084
 -52381211.69548 -40772091.25046  20877393.1414                   20877389.3244
 11  8 15  1 19 30.0000000  0  7G12G10G25G17G05G04G02
 -32331967.95348 -24912225.83646  20941976.3754                   20941974.3914
 -40950979.49647 -31869900.43446  21345202.2034                   21345200.9884
  -4362471.52747  -3387775.61345  22913161.9384                   22913163.2424
 -86143160.50047 -67073509.68444  24166377.3594                   24166375.6024
 -25593039.32048 -19885123.09046  21022471.8284                   21022470.4064
 -62144250.85947 -48376801.25444  22978699.7504                   22978699.1454
 -52456418.66048 -40830694.09446  20863081.4924                   20863077.5314
 11  8 15  1 20  0.0000000  0  7G12G10G25G17G05G04G02
 -32445412.69548 -25000624.34846  20920388.7034                   20920386.3164
 -40998607.35248 -31907013.04746  21336138.9454                   21336137.6334
  -4533915.48447  -3521368.28945  22880537.6334                   22880538.1524
 -86169969.07047 -67094399.52744  24161275.1094                   24161274.6524
 -25746059.48448 -20004359.54346  20993353.4844                   20993351.8364
 -62155295.04347 -48385407.14144  22976598.6334                   22976598.2194
 -52531391.48048 -40889114.48046  20848814.8524                   20848810.4264
 11  8 15  1 20 30.0000000  0  7G12G10G25G17G05G04G02
 -32558253.96948 -25088552.62546  20898915.8524                   20898913.6024
 -41045628.86748 -31943653.19546  21327191.3204                   21327190.2074
  -4704941.39547  -3654635.21145  22847992.1334                   22847993.1214
 -86196556.03547 -67115116.63344  24156216.2194                   24156215.4694
 -25898548.83248 -20123182.37946  20964335.6254                   20964334.0594
 -62166285.10247 -48393970.85544  22974506.9774                   22974506.3794
 -52606123.71548 -40947347.39546  20834593.7894                   20834589.4344
 11  8 15  1 21  0.0000000  0  7G12G10G25G17G05G04G02
 -32670492.62948 -25176011.33646  20877557.5554                   20877555.4384
 -41092047.53948 -31979823.59446  21318358.2894                   21318356.1524
  -4875548.93747  -3787576.13745  22815526.8364                   22815527.3984
 -86222923.01646 -67135662.36744  24151197.8054                   24151198.1374
 -26050507.59848 -20241591.77046  20935418.8674                   20935416.9454
 -62177224.48447 -48402495.07044  22972425.4614                   22972423.9694
 -52680619.08248 -41005395.73446  20820417.6884                   20820413.7464
 11  8 15  1 21 30.0000000  0  7G12G10G25G17G05G04G02
 -32782129.23048 -25263000.90646  20856314.0164                   20856311.4614
 -41137866.62148 -32015526.77046  21309639.0234                   21309637.6414
  -5045736.97747  -3920190.17645  22783141.0314                   22783141.9964
 -86249071.52347 -67156037.83644  24146222.0164                   24146221.5984
 -26201935.26248 -20359587.32046  20906602.9064                   20906601.3404
 -62188115.88347 -48410981.92244  22970352.9924                   22970352.0314
 -52754880.18448 -41063261.52746  20806286.3834                   20806282.4734
 11  8 15  1 22  0.0000000  0  7G12G10G25G17G05G04G02
 -32893163.88748 -25349521.43046  20835184.5164                   20835182.4184
 -41183089.20748 -32050765.15645  21301033.3284                   21301032.1524
  -5215503.90648  -4052476.07845  22750835.5474                   22750836.0944
 -86275002.10947 -67176243.51244  24141288.0634                   24141288.0514
 -26352830.90648 -20477168.30146  20877888.3444                   20877886.4694
 -62198961.37147 -48419432.97744  22968289.2424                   22968288.6294
 -52828908.91448 -41120946.25846  20792199.3204                   20792195.0514
 11  8 15  1 22 30.0000000  0  7G12G10G25G17G05G04G02
 -33003595.64548 -25435572.15646  20814170.2504                   20814167.8134
 -41227717.20348 -32085540.22345  21292541.2664                   21292539.7664
  -5384847.32048  -4184431.97345  22718610.3984                   22718611.4024
 -86300714.95346 -67196279.50044  24136395.0634                   24136395.7194
 -26503192.67248 -20594333.28146  20849275.3524                   20849274.3094
 -62209762.01247 -48427849.09444  22966234.0704                   22966233.1294
 -52902706.38748 -41178450.78546  20778155.7424                   20778152.1884
 11  8 15  1 23  0.0000000  0  7G12G10G25G17G05G04G02
 -33113424.76648 -25521153.30146  20793270.5084                   20793267.8554
 -41271753.04748 -32119853.87145  21284161.0944                   21284159.8404
  -5553765.64148  -4316056.62545  22686466.3134                   22686467.3244
 -86326210.84446 -67216146.45744  24131543.7034                   24131543.0944
 -26653019.59848 -20711081.49246  20820764.2664                   20820762.9144
 -62220520.07447 -48436232.02344  22964186.5944                   22964185.5434
 -52976274.78948 -41235776.82446  20764156.2664                   20764152.0904
 11  8 15  1 23 30.0000000  0  7G12G10G25G17G05G04G02
 -33222652.84048 -25606266.09446  20772485.1644                   20772482.9494
 -41315201.49648 -32153709.81646  21275893.7034                   21275892.2034
  -5722259.08248  -4447350.19145  22654403.2344                   22654403.9304
 -86351492.37946 -67235846.37944  24126732.5234                   24126731.7664
 -26802312.53948 -20827413.62146  20792354.9224                   20792353.1914
 -62231239.40247 -48444584.78144  22962146.9694                   22962146.0164
 -53049617.92648 -41292927.32046  20750199.5234                   20750195.4804
 11  8 15  1 24  0.0000000  0  7G12G10G25G17G05G04G02
 -33331279.14148 -25690909.96946  20751813.9534                   20751812.0744
 -41358065.10548 -32187110.03946  21267737.0704                   21267735.6564
  -5890325.70348  -4578311.17245  22622420.8284                   22622421.6094
 -86376559.82446 -67255379.49243  24121962.6564                   24121961.8914
 -26951070.26248 -20943328.68446  20764047.1564                   20764045.6054
 -62241921.75447 -48452908.73044  22960114.4384                   22960113.2234
 -53122737.34848 -41349903.50046  20736285.3674                   20736281.4224
 11  8 15  1 24 30.0000000  0  7G12G10G25G17G05G04G02
 -33439302.43748 -25775083.96946  20731257.7504                   20731255.4454
 -41400344.21148 -32220054.80145  21259691.5704                   21259690.0354
  -6057961.40648  -4708936.38745  22590520.7584                   22590522.0554
 -86401411.92646 -67274744.77343  24117233.0704                   24117232.8134
 -27099289.41448 -21058824.09446  20735842.0314                   20735840.3954
 -62252566.82447 -48461203.62944  22958088.4144                   22958088.0514
 -53195632.60248 -41406705.00046  20722413.6174                   20722409.9534
 11  8 15  1 25  0.0000000  0  7G12G10G25G17G05G04G02
 -33546723.38748 -25858788.61346  20710816.3754                   20710814.2384
 -41442042.53948 -32252547.00446  21251756.7734                   21251755.0434
  -6225165.73048  -4839225.46145  22558702.9844                   22558703.8714
 -86426050.44946 -67293943.67243  24112545.0474                   24112544.2234
 -27246969.82048 -21173899.69946  20707739.2344                   20707737.6214
 -62263177.34447 -48469471.59044  22956068.5554                   22956068.9774
 -53268306.71948 -41463334.19546  20708584.3204                   20708580.6294
 11  8 15  1 25 30.0000000  0  7G12G10G25G17G05G04G02
 -33653540.63348 -25942022.83646  20690489.9384                   20690487.0704
 -41483161.84048 -32284588.02346  21243931.8204                   21243930.2664
  -6391935.68447  -4969176.06245  22526967.5164                   22526969.3284
 -86450474.68046 -67312975.55543  24107896.9534                   24107896.0474
 -27394109.48448 -21288553.94146  20679739.8134                   20679737.8554
 -62273754.10947 -48477713.26644  22954056.7034                   22954055.7344
 -53340760.52748 -41519791.70746  20694796.9694                   20694793.0704
 11  8 15  1 26  0.0000000  0  7G12G10G25G17G05G04G02
 -33759755.94948 -26024788.02046  20670277.6724                   20670275.5594
 -41523706.87147 -32316181.55946  21236216.2814                   21236214.5904
  -6558271.46948  -5098788.35945  22495315.2664                   22495316.2034
 -86474687.22746 -67331842.52343  24103289.8594                   24103288.9494
 -27540709.62548 -21402787.78546  20651842.5084                   20651840.8984
 -62284301.09447 -48485931.72344  22952048.9384                   22952049.5044
 -53412997.67648 -41576080.40246  20681050.6024                   20681046.3754
 11  8 15  1 26 30.0000000  0  7G12G10G25G17G05G04G02
 -33865367.25848 -26107082.55146  20650180.4774                   20650178.2814
 -41563677.71548 -32347327.68046  21228610.3444                   21228608.5204
  -6724169.18048  -5228059.28945  22463745.6724                   22463746.9574
 -86498686.60946 -67350543.32843  24098722.6724                   24098721.9774
 -27686766.68748 -21516598.44946  20624048.5554                   20624046.4654
 -62294817.65247 -48494126.49644  22950048.1174                   22950047.4224
 -53485017.79348 -41632199.98046  20667345.7344                   20667341.9614
 11  8 15  1 27  0.0000000  0  7G12G10G25G17G05G04G02
 -33970374.35948 -26188906.27046  20630198.2034                   20630196.5594
 -41603076.61348 -32378028.12546  21221112.6334                   21221111.4654
  -6889626.36747  -5356986.95745  22432260.2894                   22432261.5904
 -86522472.80146 -67369078.07843  24094196.5634                   24094194.7774
 -27832278.74248 -21629984.43446  20596358.7194                   20596357.0784
 -62305304.80547 -48502298.34844  22948052.7424                   22948052.1884
 -53556822.07048 -41688151.37546  20653681.6254                   20653677.6764
 11  8 15  1 27 30.0000000  0  7G12G10G25G17G05G04G02
 -32499353.61748 -25042656.34846  20910124.5554                   20910122.2114
 -40066485.48848 -31180684.39846  21513516.4144                   21513514.5234
  -5479216.15248  -4257966.01245  22700652.0704                   22700653.1764
 -84970625.91846 -66159846.72743  24389503.2504                   24389502.5204
 -26401820.62148 -20515341.70346  20868565.6644                   20868563.9384
 -60740344.65646 -47282848.90644  23245854.2734                   23245853.9694
 -52052989.77048 -40516334.00446  20939851.5864                   20939847.3794
 11  8 15  1 28  0.0000000  0  7G12G10G25G17G05G04G02
 -32603152.82448 -25123538.84846  20890371.6174                   20890369.5164
 -40104750.38347 -31210501.19945  21506234.6414                   21506233.4024
  -5643788.52347  -4386204.22745  22669335.7504                   22669336.5084
 -84993988.88746 -66178051.69543  24385057.1174                   24385056.8984
 -26546241.41448 -20627877.36746  20841083.2114                   20841081.6684
 -60750780.08247 -47290980.43444  23243868.6954                   23243868.9774
 -52124368.56648 -40571953.85246  20926268.5084                   20926264.7624
 11  8 15  1 28 30.0000000  0  7G12G10G25G17G05G04G02
 -32706345.95348 -25203949.09446  20870735.0474                   20870732.7774
 -40142450.42648 -31239877.87146  21499060.8444                   21499059.1024
  -5807913.91847  -4514094.14545  22638103.5314                   22638104.5354
 -85017139.34846 -66196091.02743  24380651.8754                   24380651.2424
 -26690113.26648 -20739985.27046  20813705.5944                   20813703.7624
 -60761190.41447 -47299092.43044  23241887.9694                   23241887.9734
 -52195535.28148 -40627408.43746  20912726.0784                   20912722.0944
 11  8 15  1 29  0.0000000  0  8G12G10G25G17G05G04G29G02
 -32808936.99648 -25283890.17646  20851212.6254                   20851210.3874
 -40179591.41848 -31268818.91445  21491993.2894                   21491991.6564
  -5971593.68747  -4641636.82445  22606956.1644                   22606957.0984
 -85040081.00046 -66213967.69943  24376285.8914                   24376285.9734
 -26833438.31248 -20851667.09446  20786431.4774                   20786429.9384
 -60771580.23846 -47307188.43444  23239911.2974                   23239910.3444
  17074960.62156  13338333.84453  24727510.8364                   24727510.0354
 -52266494.95348 -40682701.68746  20899222.9534                   20899218.8754
 11  8 15  1 29 30.0000000  0  8G12G10G25G17G05G04G29G02
 -32910925.43448 -25363361.69546  20831804.7664                   20831802.2234
 -40216175.93048 -31297326.33645  21485031.3444                   21485029.4414
  -6134825.84847  -4768830.73445  22575894.2034                   22575895.1334
 -85062814.03946 -66231681.75043  24371960.9144                   24371959.9844
 -26976215.48048 -20962921.98846  20759261.9924                   20759260.1524
 -60781951.24247 -47315269.77044  23237937.0944                   23237937.1564
  16902302.73047  13203795.17643  24694654.5704                   24694654.4414
 -52337248.81648 -40737834.57846  20885758.8754                   20885755.0044
 11  8 15  1 30  0.0000000  0  8G12G10G25G17G05G04G29G02
 -33012316.01648 -25442367.35546  20812510.7344                   20812508.4694
 -40252211.36748 -31325405.91445  21478173.8284                   21478172.3364
  -6297613.52747  -4895678.28145  22544916.5704                   22544917.9144
 -85085344.16046 -66249237.73443  24367672.9844                   24367671.7934
 -27118448.46948 -21073752.86746  20732195.4454                   20732194.0434
 -60792309.63347 -47323341.30144  23235966.4774                   23235966.1844
  16729587.68846  13069211.97743  24661788.2114                   24661787.9414
 -52407803.50448 -40792812.25446  20872332.8754                   20872328.8524
 11  8 15  1 30 30.0000000  0  8G12G10G25G17G05G04G29G02
 -33113110.16048 -25520908.25846  20793330.0784                   20793327.8594
 -40287701.76247 -31353060.77745  21471419.9844                   21471418.7384
  -6459956.17247  -5022179.05145  22514023.6804                   22514025.1374
 -85107673.27046 -66266637.08243  24363424.2424                   24363423.6024
 -27260137.42248 -21184159.80546  20705233.2194                   20705231.4144
 -60802658.46547 -47331405.34844  23233997.3204                   23233996.7854
  16556814.66847  12934583.58243  24628910.1484                   24628910.2074
 -52478162.19548 -40847637.21946  20858943.8594                   20858940.1024
 11  8 15  1 31  0.0000000  0  8G12G10G25G17G05G04G29G02
 -33213304.02048 -25598981.41446  20774264.2894                   20774262.1254
 -40322645.92647 -31380290.00445  21464770.5314                   21464769.0744
  -6621848.02347  -5148328.55945  22483217.0554                   22483218.0124
 -85129797.93446 -66283877.08244  24359213.6484                   24359213.0864
 -27401277.52048 -21294139.07446  20678375.1954                   20678373.1294
 -60812995.06647 -47339459.87544  23232030.1254                   23232028.9344
  16383987.69147  12799913.15643  24596022.7274                   24596021.7544
 -52548322.31248 -40902307.44546  20845593.0164                   20845589.1644
 11  8 15  1 31 30.0000000  0  8G12G10G25G17G05G04G29G02
 -33312897.81648 -25676586.98846  20755311.9774                   20755310.0784
 -40357047.21947 -31407096.22345  21458224.0084                   21458222.7624
  -6783287.43047  -5274125.51245  22452496.3134                   22452497.0784
 -85151718.98046 -66300958.46943  24355042.7814                   24355041.1564
 -27541868.03948 -21403690.10246  20651621.7894                   20651619.9494
 -60823321.56647 -47347506.52744  23230064.8914                   23230064.1454
  16211106.13346  12665200.24643  24563124.4614                   24563123.8794
 -52618285.51248 -40956824.21946  20832279.7664                   20832275.5314
 11  8 15  1 32  0.0000000  0  8G12G10G25G17G05G04G29G02
 -33411891.11348 -25753724.64846  20736474.3914                   20736472.0904
 -40390907.45348 -31433480.83645  21451781.2034                   21451779.5124
  -6944271.95347  -5399568.00845  22421861.4844                   22421862.5594
 -85173436.03146 -66317880.86343  24350909.5164                   24350908.4774
 -27681907.32448 -21512811.58646  20624973.2974                   20624971.1684
 -60833638.59046 -47355545.82044  23228102.0784                   23228101.5704
  16038171.17647  12530445.71543  24530215.9454                   24530216.0514
 -52688052.79348 -41011188.33646  20819003.2814                   20818999.2424
 11  8 15  1 32 30.0000000  0  8G12G10G25G17G05G04G29G02
 -33510278.74248 -25830390.34846  20717751.6094                   20717749.1414
 -40424224.26648 -31459442.00445  21445440.6954                   21445439.4384
  -7104794.77347  -5524650.71145  22391315.0554                   22391316.2704
 -85194944.66846 -66334640.85243  24346816.7894                   24346815.8984
 -27821389.29348 -21621498.80546  20598430.4614                   20598428.8284
 -60843942.59846 -47363574.93744  23226140.9144                   23226140.9654
  15865187.82446  12395653.44543  24497298.0234                   24497297.9884
 -52757620.89548 -41065397.25046  20805764.7664                   20805760.8634
 11  8 15  1 33  0.0000000  0  8G12G10G25G17G05G04G29G02
 -33608062.79348 -25906585.73846  20699144.1174                   20699142.0904
 -40457001.91448 -31484983.03945  21439203.4454                   21439201.8054
  -7264855.58648  -5649373.43045  22360856.6954                   22360857.8054
 -85216247.21546 -66351240.28544  24342763.1094                   24342763.3244
 -27960314.68448 -21729752.33246  20571993.9224                   20571992.2584
 -60854236.64546 -47371596.28944  23224181.7424                   23224181.9734
  15692154.34046  12260822.12543  24464371.0944                   24464370.7734
 -52826992.50848 -41119453.05546  20792563.8674                   20792559.6724
 11  8 15  1 33 30.0000000  0  8G12G10G25G17G05G04G29G02
 -33705242.96148 -25982310.56646  20680651.2584                   20680649.2234
 -40489243.02748 -31510106.00045  21433068.0944                   21433066.5274
  -7424452.46547  -5773734.61745  22330486.2584                   22330487.1604
 -85237343.82046 -66367679.22343  24338747.9144                   24338748.4384
 -28098682.30148 -21837571.21946  20545663.5704                   20545661.9224
 -60864522.06646 -47379610.91044  23222224.8754                   23222224.4064
  15519071.11346  12125952.09043  24431433.6174                   24431434.4064
 -52896169.27748 -41173357.03546  20779400.1484                   20779395.9264
 11  8 15  1 34  0.0000000  0  8G12G10G25G17G05G04G29G02
 -33801820.02348 -26057565.43746  20662273.3364                   20662270.9024
 -40520951.31647 -31534813.76245  21427034.5084                   21427032.9804
  -7583584.48447  -5897733.57045  22300204.4384                   22300205.6724
 -85258236.10946 -66383958.96544  24334773.1484                   24334773.0354
 -28236491.75448 -21944955.17646  20519439.3984                   20519437.3634
 -60874801.02346 -47387620.49644  23220268.8134                   23220268.6724
  15345937.37546  11991042.69143  24398487.6644                   24398488.2074
 -52965153.47348 -41227110.95746  20766272.7344                   20766268.4924
 11  8 15  1 34 30.0000000  0  8G12G10G25G17G05G04G29G02
 -33897792.10548 -26132348.89546  20644010.4304                   20644008.2114
 -40552127.38347 -31559106.80945  21421101.9614                   21421100.6134
  -7742247.52047  -6021367.08245  22270012.1094                   22270012.7194
 -85278921.85246 -66400077.74244  24330836.4064                   24330836.8484
 -28373740.53148 -22051902.25046  20493321.5394                   20493319.7934
 -60885072.77746 -47395624.45744  23218314.4924                   23218313.4924
  15172755.58646  11856095.88343  24365532.7344                   24365532.7344
 -53033944.35948 -41280714.25046  20753182.1334                   20753178.1454
 11  8 15  1 35  0.0000000  0  8G12G10G25G17G05G04G29G02
 -33993157.21948 -26206659.38746  20625863.1644                   20625860.8914
 -40582771.40647 -31582985.28945  21415270.4924                   21415269.1174
  -7900437.60948  -6144632.05545  22239909.0784                   22239910.4344
 -85299399.91846 -66416034.73443  24326939.6564                   24326939.4964
 -28510424.84848 -22158409.48046  20467311.5084                   20467309.5864
 -60895336.30547 -47403622.00443  23216361.3524                   23216360.5204
  14999528.12946  11721113.49643  24332568.0084                   24332568.8674
 -53102540.98848 -41334166.17646  20740128.6564                   20740124.6644
 11  8 15  1 35 30.0000000  0  8G12G10G25G17G05G04G29G02
 -34087918.06648 -26280499.02046  20607830.8284                   20607828.6054
 -40612888.95347 -31606453.52045  21409539.1884                   21409537.7234
  -8058155.33647  -6267528.94545  22209897.0084                   22209897.5784
 -85319673.12546 -66431832.06243  24323081.8054                   24323082.0084
 -28646546.63748 -22264478.38746  20441408.3134                   20441406.5984
 -60905595.68046 -47411616.33244  23214408.8834                   23214408.8284
  14826253.01646  11586093.93443  24299595.3134                   24299595.2344
 -53170947.48848 -41387469.94946  20727111.2894                   20727107.4344
 11  8 15  1 36  0.0000000  0  8G12G10G25G17G05G04G29G02
 -32606650.73848 -25126264.74646  20889706.8524                   20889704.1684
 -39067060.96548 -30401912.25045  21703700.4614                   21703699.0314
  -6639972.97347  -5162451.74645  22479767.9384                   22479768.8364
 -83764320.59446 -65219869.06243  24619055.9774                   24619055.8444
 -27206679.65248 -21142504.07846  20715405.6564                   20715403.5704
 -59340430.96546 -46192007.45344  23512249.4844                   23512249.1804
  16228356.55146  12678642.20743  24566406.1564                   24566407.0314
 -51663742.58648 -40213024.57846  21013923.0474                   21013919.0904
 11  8 15  1 36 30.0000000  0  8G12G10G25G17G05G04G29G02
 -32700202.49248 -25199162.21946  20871904.5314                   20871902.1294
 -39096132.44547 -30424565.35945  21698168.6334                   21698166.8164
  -6796739.53547  -5284607.46945  22449936.1804                   22449936.7274
 -83784184.68446 -65235347.57443  24615275.5164                   24615275.4844
 -27341672.54348 -21247693.31246  20689717.4384                   20689715.8284
 -59350684.74247 -46199997.36744  23510298.9774                   23510297.8554
  16054987.11746  12543549.15643  24533415.8984                   24533416.1094
 -51731772.30548 -40266034.74246  21000977.5164                   21000973.1954
 11  8 15  1 37  0.0000000  0  8G12G10G25G17G05G04G29G02
 -32793149.48048 -25271588.44546  20854217.0394                   20854214.5434
 -39124684.90247 -30446814.04345  21692735.4064                   21692733.5314
  -6953027.52047  -5406390.26645  22420195.5634                   22420196.4024
 -83803844.46146 -65250666.91443  24611534.2194                   24611535.0744
 -27476099.37148 -21352441.45746  20664136.7504                   20664134.8954
 -59360937.21146 -46207986.31644  23508347.7814                   23508347.4264
  15881571.44146  12408420.10943  24500415.3834                   24500416.3484
 -51799615.11748 -40318899.27046  20988067.5164                   20988063.1454
 11  8 15  1 37 30.0000000  0  7G12G10G25G05G04G29G02
 -32885490.50048 -25343542.48846  20836645.1024                   20836642.7234
 -39152719.36747 -30468659.09445  21687400.1174                   21687398.8094
  -7108833.54347  -5527797.51645  22390546.5784                   22390547.8794
 -27609957.55148 -21456746.50846  20638664.3054                   20638662.4574
 -59371188.27746 -46215974.13744  23506396.9774                   23506396.4734
  15708111.29747  12273256.38344  24467407.7734                   24467407.4844
 -51867270.99248 -40371618.14546  20975192.8444                   20975188.9264
 11  8 15  1 38  0.0000000  0  7G12G10G25G05G04G29G02
 -32977223.89148 -25415023.05946  20819188.8594                   20819186.2734
 -39180237.05147 -30490101.45745  21682163.7424                   21682162.7154
  -7264154.07047  -5648826.46145  22360989.9224                   22360990.9534
 -27743244.72748 -21560606.62147  20613300.6414                   20613298.9024
 -59381437.41046 -46223960.48044  23504446.5944                   23504446.2664
  15534608.76646  12138059.63744  24434391.0084                   24434391.3674
 -51934739.62148 -40424191.09046  20962353.7114                   20962349.6454
 11  8 15  1 38 30.0000000  0  7G12G10G25G05G04G29G02
 -33068353.44148 -25486033.09846  20801847.6414                   20801845.1524
 -39207243.66847 -30511145.59045  21677024.7424                   21677022.9964
  -7418990.34047  -5769478.06245  22331525.6174                   22331526.6524
 -27875962.71148 -21664023.21146  20588045.2504                   20588043.4734
 -59391688.82047 -46231948.59844  23502495.9304                   23502495.3444
  15361061.01247  12002827.64144  24401366.3204                   24401366.0704
 -52002025.35248 -40476621.53946  20949549.6644                   20949545.5204
 11  8 15  1 39  0.0000000  0  7G12G10G25G05G04G29G02
 -33158869.08248 -25556564.77046  20784623.2974                   20784620.7894
 -39233731.51647 -30531785.48445  21671984.4534                   21671982.3204
  -7573330.13347  -5889742.80545  22302155.6644                   22302156.5204
 -28008100.65248 -21766987.81647  20562900.5394                   20562898.4384
 -59401933.31246 -46239931.30144  23500546.2894                   23500546.2234
  15187478.68446  11867568.71543  24368334.4774                   24368334.1414
 -52069119.09048 -40528902.37946  20936782.2734                   20936778.4884
 11  8 15  1 39 30.0000000  0  7G12G10G25G05G04G29G02
 -33248774.52748 -25626620.95746  20767514.4614                   20767512.4104
 -39259707.14548 -30552026.23045  21667041.2664                   21667039.7384
  -7727175.27748  -6009622.11345  22272879.9304                   22272881.1764
 -28139661.32048 -21869502.59047  20537865.1724                   20537863.1954
 -59412175.54346 -46247912.29344  23498596.5234                   23498597.1804
  15013858.80947  11732280.48844  24335295.4224                   24335295.8094
 -52136025.63748 -40581037.35246  20924050.4694                   20924046.5204
 11  8 15  1 40  0.0000000  0  7G12G10G25G05G04G29G02
 -33338070.30948 -25696202.08246  20750522.0784                   20750520.0164
 -39285173.72347 -30571870.33245  21662195.1564                   21662193.6684
  -7880524.46148  -6129114.94945  22243698.5394                   22243699.1684
 -28270644.30148 -21971567.21947  20512939.7344                   20512937.7544
 -59422417.39546 -46255892.98844  23496648.0234                   23496648.4304
  14840201.11747  11596962.82844  24302249.9144                   24302249.9844
 -52202746.98448 -40633028.02046  20911353.7504                   20911350.1174
 11  8 15  1 40 30.0000000  0  7G12G10G25G05G04G29G02
 -33426758.10248 -25765309.46146  20733645.3204                   20733642.9804
 -39310135.24247 -30591320.89545  21657445.3524                   21657443.6054
  -8033377.12548  -6248220.90645  22214611.7504                   22214612.2504
 -28401050.13348 -22073182.12547  20488124.3364                   20488122.5434
 -59432661.11346 -46263875.15644  23494698.7584                   23494698.8714
  14666504.86747  11461615.10944  24269196.2894                   24269195.7894
 -52269285.73448 -40684876.39846  20898692.1174                   20898688.3204
 11  8 15  1 41  0.0000000  0  7G12G10G25G05G04G29G02
 -33514838.24248 -25833943.33246  20716884.0634                   20716882.1644
 -39334594.70747 -30610380.22345  21652790.6804                   21652789.4384
  -8185731.69548  -6366938.73445  22185619.2194                   22185619.9304
 -28530878.03548 -22174346.69547  20463418.7664                   20463417.2074
 -59442908.02346 -46271859.79744  23492749.5314                   23492749.3164
  14492770.44547  11326237.65244  24236135.6174                   24236136.2034
 -52335643.14548 -40736583.47746  20886064.6414                   20886060.8834
 11  8 15  1 41 30.0000000  0  7G12G10G25G05G04G29G02
 -33602310.77348 -25902103.75046  20700238.7894                   20700236.2194
 -39358554.24247 -30629049.99645  21648231.7274                   21648230.3204
  -8337585.50448  -6485266.37145  22156722.5164                   22156723.3524
 -28660126.41848 -22275059.68447  20438823.9534                   20438822.2854
 -59453158.31246 -46279847.06644  23490798.5864                   23490798.2344
  14318998.90246  11190831.23843  24203068.5864                   24203067.8794
 -52401819.52748 -40788149.49246  20873471.9064                   20873468.1454
 11  8 15  1 42  0.0000000  0  7G12G10G25G05G04G29G02
 -33689175.50848 -25969790.56246  20683709.1094                   20683706.8594
 -39382016.39147 -30647332.20745  21643766.4774                   21643765.2194
  -8488936.61348  -6603202.29345  22127921.6254                   22127921.8634
 -28788794.45748 -22375320.46547  20414339.1174                   20414337.1564
 -59463412.84846 -46287837.64144  23488846.2734                   23488846.9924
  14145191.14846  11055396.58243  24169993.5234                   24169993.7974
 -52467816.13748 -40839575.42646  20860912.7814                   20860909.1294
 11  8 15  1 42 30.0000000  0  7G12G10G25G05G04G29G02
 -33775436.63348 -26037007.03146  20667294.1254                   20667291.7934
 -39404987.37547 -30665231.68445  21639395.4304                   21639394.5664
  -8639786.78148  -6720747.87945  22099215.7584                   22099216.6884
 -28916884.81648 -22475131.10247  20389964.5164                   20389962.5634
 -59473676.53546 -46295835.35944  23486894.2274                   23486894.3714
  13971343.74646  10919931.08643  24136911.3054                   24136911.9024
 -52533637.64148 -40890864.91446  20848387.3674                   20848383.5704
 11  8 15  1 43  0.0000000  0  7G12G10G25G05G04G29G02
 -33861094.19148 -26103753.18446  20650993.9694                   20650991.7664
 -39427469.59047 -30682750.30545  21635117.3524                   21635115.5944
  -8790133.91448  -6837901.48445  22070605.5864                   22070606.6764
 -29044396.63348 -22574490.93447  20365699.2504                   20365697.5664
 -59483949.70746 -46303840.47344  23484939.1334                   23484939.5554
  13797457.53946  10784435.35943  24103822.0634                   24103822.2464
 -52599284.79348 -40942018.55546  20835895.3524                   20835891.2664
 11  8 15  1 43 30.0000000  0  7G12G10G25G05G04G29G02
 -33946145.28548 -26170026.77346  20634809.1024                   20634807.2304
 -39449463.15247 -30699888.16045  21630932.0944                   21630930.7584
  -8939973.41848  -6954659.54345  22042092.0474                   22042092.8554
 -29171326.32848 -22673397.15247  20341545.5634                   20341543.8714
 -59494230.70346 -46311851.67244  23482983.0004                   23482982.5944
  13623536.32846  10648912.32843  24070725.8674                   24070725.8014
 -52664756.29748 -40993035.32046  20823436.4844                   20823432.8244
 11  8 15  1 44  0.0000000  0  7G12G10G25G05G04G29G02
 -34030593.11348 -26235830.28146  20618739.6094                   20618737.1994
 -39470973.07047 -30716649.15645  21626838.6564                   21626837.3554
  -9089305.75048  -7071022.39846  22013675.0394                   22013675.8914
 -29297675.28148 -22771850.84847  20317501.9774                   20317499.9924
 -59504522.62947 -46319871.39543  23481024.5084                   23481023.8594
  13449578.63346  10513360.87143  24037621.8754                   24037622.8014
 -52730055.22348 -41043917.61746  20811010.7504                   20811006.9654
 11  8 15  1 44 30.0000000  0  7G12G10G25G05G04G29G02
 -32539013.78148 -25073560.68046  20902577.5004                   20902575.3634
 -37916580.10247 -29505433.86745  21922629.8204                   21922628.6134
  -7662702.74248  -5959383.69546  22285148.6414                   22285149.4414
 -27848017.23848 -21642247.15247  20593363.0474                   20593361.0234
 -57939404.72747 -45100299.01243  23778856.2194                   23778855.7774
  14851011.84846  11605386.78943  24304306.5944                   24304306.4734
 -51219759.23848 -39867063.61346  21098410.2584                   21098406.3794
 11  8 15  1 45  0.0000000  0  7G12G10G25G05G04G29G02
 -32622255.70748 -25138424.52046  20886737.1254                   20886734.6564
 -37937130.76647 -29521447.38345  21918718.9144                   21918717.9534
  -7811015.03148  -6074951.71545  22256925.7424                   22256926.4924
 -27973202.35948 -21739793.96947  20569540.8914                   20569539.3164
 -57949721.28547 -45108337.93043  23776893.3984                   23776893.4024
  14676982.59046  11469779.59043  24271190.1484                   24271190.3714
 -51284716.50848 -39917679.68446  21086049.0784                   21086045.4964
 11  8 15  1 45 30.0000000  0  7G12G10G25G05G04G29G02
 -32704895.59448 -25202819.24246  20871011.2424                   20871008.8094
 -37957206.12547 -29537090.53145  21914898.8364                   21914897.6804
  -7958815.00848  -6190120.52746  22228799.6414                   22228800.9654
 -28097804.95348 -21836886.87547  20545829.9304                   20545828.1764
 -57960051.80147 -45116387.69943  23774927.8834                   23774927.0864
  14502918.05546  11334144.89543  24238066.6254                   24238066.1684
 -51349504.59048 -39968163.91446  21073720.6334                   21073716.6524
 11  8 15  1 46  0.0000000  0  7G12G10G25G05G04G29G02
 -32786934.75448 -25266745.86746  20855399.6094                   20855397.1024
 -37976809.94147 -29552366.25445  21911168.3914                   21911167.2074
  -8106101.69148  -6304889.37146  22200772.1254                   22200773.6294
 -28221825.27048 -21933526.05547  20522229.2734                   20522227.5554
 -57970397.76647 -45124449.51643  23772958.9844                   23772958.4574
  14328818.30146  11198482.77043  24204936.6334                   24204936.0554
 -51414125.41448 -40018517.81246  21061423.4924                   21061419.8134
 11  8 15  1 46 30.0000000  0  7G12G10G25G05G04G29G02
 -32868373.26648 -25330204.44546  20839902.4304                   20839900.1684
 -37995944.43747 -29567276.25445  21907527.5394                   21907525.9304
  -8252872.80548  -6419256.46946  22172842.9144                   22172844.2154
 -28345262.04348 -22029710.52747  20498740.3674                   20498738.4924
 -57980759.78147 -45132523.82044  23770987.3914                   23770986.5594
  14154684.25046  11062793.93443  24171799.5784                   24171800.0084
 -51478579.85248 -40068742.06246  21049158.3134                   21049154.4964
 11  8 15  1 47  0.0000000  0  7G12G10G25G05G04G29G02
 -32949214.08648 -25393197.30146  20824518.7974                   20824516.5904
 -38014615.21947 -29581824.93445  21903974.7814                   21903973.3594
  -8399129.12148  -6533222.42646  22145010.7274                   22145011.8984
 -28468117.02048 -22125441.65647  20475361.6254                   20475359.8324
 -57991141.20347 -45140613.22743  23769011.4384                   23769010.3954
  13980514.32846  10927077.16044  24138656.6804                   24138656.6994
 -51542871.39148 -40118839.37546  21036924.0944                   21036920.5594
 11  8 15  1 47 30.0000000  0  7G12G10G25G05G04G29G02
 -33029455.51648 -25455723.09446  20809249.5394                   20809247.5354
 -38032822.30547 -29596012.29745  21900509.8674                   21900508.3404
  -8544866.63348  -6646784.12146  22117278.3674                   22117279.1134
 -28590387.23048 -22220717.12547  20452094.6094                   20452092.5314
 -58001540.33246 -45148716.47343  23767032.2664                   23767031.9574
  13806311.61746  10791334.81644  24105506.5944                   24105507.2074
 -51606998.50048 -40168808.56246  21024721.2114                   21024717.2664
 11  8 15  1 48  0.0000000  0  7G12G10G25G05G04G29G02
 -33109095.82448 -25517780.48446  20794094.7584                   20794092.2114
 -38050566.34847 -29609838.84445  21897133.6174                   21897132.1334
  -8690081.28948  -6759938.39546  22089644.8444                   22089645.9844
 -28712069.87548 -22315534.75047  20428939.2034                   20428937.1914
 -58011956.00046 -45156832.61743  23765050.2034                   23765050.2544
  13632079.11346  10655569.26644  24072351.2814                   24072351.5664
 -51670960.12548 -40218648.80146  21012549.5704                   21012545.9844
 11  8 15  1 48 30.0000000  0  7G12G10G25G05G04G29G02
 -33188137.85948 -25579371.68046  20779053.1724                   20779051.0234
 -38067852.50447 -29623308.58645  21893843.8594                   21893842.2934
  -8834773.76248  -6872685.77046  22062110.5314                   22062112.0514
 -28833166.79348 -22409895.94947  20405895.1954                   20405893.3244
 -58022391.27346 -45164964.03143  23763064.3914                   23763064.4614
  13457815.16047  10519779.22344  24039189.9534                   24039189.5744
 -51734759.91048 -40268362.92246  21000409.0004                   21000405.1214
 11  8 15  1 49  0.0000000  0  7G12G10G25G05G04G29G02
 -33266580.48448 -25640495.80946  20764126.3524                   20764123.8364
 -38084682.21547 -29636422.64845  21890641.3594                   21890639.8404
  -8978940.82848  -6985023.74646  22034676.8364                   22034677.9494
 -28953675.85548 -22503799.09047  20382963.0394                   20382960.7894
 -58032845.48846 -45173110.18043  23761075.3364                   23761075.4414
  13283521.95747  10383966.37144  24006022.6564                   24006023.1604
 -51798396.82848 -40317950.14146  20988299.4144                   20988295.6294
 11  8 15  1 49 30.0000000  0  7G12G10G25G05G04G29G02
 -33344423.71548 -25701152.88346  20749312.8674                   20749310.8834
 -38101057.33247 -29649182.50445  21887524.9384                   21887523.8524
  -9122580.15248  -7096950.50046  22007343.2894                   22007344.1804
 -29073595.89548 -22597243.25047  20360142.6484                   20360140.9304
 -58043318.63746 -45181271.12543  23759082.4694                   23759082.8554
  13109200.94547  10248131.88344  23972850.7814                   23972851.2074
 -51861871.53548 -40367410.94946  20976220.5944                   20976216.9654
 11  8 15  1 50  0.0000000  0  7G12G10G25G05G04G29G02
 -33421671.51248 -25761345.98446  20734613.2034                   20734610.9884
 -38116983.70747 -29661592.67245  21884494.7194                   21884493.1454
  -9265692.94148  -7208466.95346  21980109.4384                   21980110.5004
 -29192929.13348 -22690230.16847  20337434.5474                   20337432.2774
 -58053814.36746 -45189449.60943  23757084.7734                   23757084.8874
  12934850.19947  10112274.19944  23939672.5234                   23939673.3484
 -51925187.83648 -40416748.32446  20964171.7424                   20964167.8364
 11  8 15  1 50 30.0000000  0  7G12G10G25G05G04G29G02
 -33498324.43048 -25821075.53946  20720026.8204                   20720024.8324
 -38132464.06647 -29673655.29745  21881548.5554                   21881547.2934
  -9408277.42248  -7319571.74646  21952976.8834                   21952977.7624
 -29311675.13348 -22782759.49647  20314837.7894                   20314835.8284
 -58064333.28547 -45197646.18743  23755083.3364                   23755083.4884
  12760470.40247   9976393.86344  23906489.7274                   23906489.6454
 -51988346.55548 -40465962.91846  20952153.1724                   20952149.2304
 11  8 15  1 51  0.0000000  0  7G12G10G25G05G04G29G02
 -33574384.66048 -25880343.26246  20705553.0164                   20705550.8244
 -38147502.92247 -29685373.89845  21878686.9304                   21878685.6374
  -9550333.69548  -7430264.96146  21925944.2584                   21925945.2154
 -29429835.30548 -22874832.33247  20292352.6174                   20292351.0514
 -58074877.89147 -45205862.75844  23753077.5864                   23753077.0354
  12586060.59446   9840490.16044  23873300.5234                   23873300.8714
 -52051350.26648 -40515056.71946  20940163.8984                   20940160.0984
 11  8 15  1 51 30.0000000  0  7G12G10G25G05G04G29G02
 -33649848.37548 -25939146.16846  20691192.8674                   20691191.0004
 -38162098.89547 -29696747.37545  21875909.4844                   21875908.4024
  -9691856.03148  -7540542.10946  21899013.2274                   21899014.2854
 -29547404.84448 -22966444.94147  20269980.0944                   20269977.7664
 -58085444.84846 -45214096.77044  23751066.0314                   23751066.4614
  12411626.13347   9704567.25844  23840107.1484                   23840107.0394
 -52114195.91848 -40564027.35246  20928204.9774                   20928201.1454
 11  8 15  1 52  0.0000000  0  7G12G10G25G05G04G29G02
 -33724717.88348 -25997486.05546  20676945.2504                   20676943.4734
 -38176256.80547 -29707779.52045  21873215.4614                   21873214.0554
  -9832844.57848  -7650403.32446  21872184.1954                   21872185.4614
 -29664385.00848 -23057598.29347  20247719.4384                   20247717.5204
 -58096036.61346 -45222350.05144  23749050.2194                   23749049.8444
  12237165.83647   9568624.18844  23806908.4614                   23806908.1054
 -52176886.70348 -40612877.32046  20916275.0474                   20916271.0124
 11  8 15  1 52 30.0000000  0  7G12G10G25G05G04G29G02
 -33798996.44148 -26055365.46546  20662810.9614                   20662808.8284
 -38189980.94547 -29718473.66445  21870603.9454                   21870602.5084
  -9973299.27748  -7759848.55546  21845456.5084                   21845458.1094
 -29780777.06248 -23148293.38347  20225570.6804                   20225568.7074
 -58106655.32447 -45230624.37944  23747030.1024                   23747029.8324
  12062679.42646   9432660.78544  23773704.0784                   23773704.6724
 -52239424.48048 -40661608.05946  20904374.7194                   20904370.5124
 11  8 15  1 53  0.0000000  0  7G12G10G25G05G04G29G02
 -32297258.23048 -24885179.85246  20948582.0084                   20948579.8134
 -36627850.12547 -28501228.86745  22167867.1024                   22167865.9104
  -8537790.29348  -6641270.12546  22118625.0084                   22118625.9654
 -28321153.13748 -22010924.07447  20503327.7584                   20503325.6914
 -56541877.94146 -44011317.30943  24044797.0784                   24044797.4384
  13463596.50447  10524284.50044  24040290.2194                   24040290.2074
 -50726384.04348 -39482615.50846  21192297.0474                   21192292.7934
 11  8 15  1 53 30.0000000  0  7G12G10G25G05G04G29G02
 -32370352.32048 -24942136.29746  20934673.0314                   20934670.3404
 -36640710.98447 -28511250.32845  22165419.8984                   22165418.8594
  -8677168.57048  -6749876.56646  22092102.0004                   22092102.9574
 -28436363.88348 -22100698.65647  20481403.7194                   20481401.6524
 -56552548.78947 -44019632.21543  24042766.6804                   24042766.8714
  13289063.16847  10388284.53544  24007077.0314                   24007077.5704
 -50788614.50448 -39531106.77746  21180454.4144                   21180450.3754
 11  8 15  1 54  0.0000000  0  7G12G10G25G05G04G29G02
 -32442853.77348 -24998630.94146  20920876.2814                   20920874.0864
 -36653143.19947 -28520937.78545  22163054.1644                   22163053.1884
  -8816004.91048  -6858060.72346  22065682.4304                   22065683.0004
 -28550981.90648 -22190011.37947  20459592.6484                   20459590.8554
 -56563245.31646 -44027967.16044  24040731.3914                   24040731.4654
  13114509.72747  10252268.90244  23973860.8594                   23973861.2194
 -50850691.50848 -39579478.45746  21168641.7114                   21168637.8324
 11  8 15  1 54 30.0000000  0  7G12G10G25G05G04G29G02
 -32514766.95748 -25054667.19546  20907191.5164                   20907189.1764
 -36665152.66047 -28530295.80545  22160768.7424                   22160767.3984
  -8954300.99648  -6965823.90246  22039365.4774                   22039366.5164
 -28665010.35248 -22278864.69547  20437894.0234                   20437891.9304
 -56573971.41446 -44036325.09843  24038690.0314                   24038689.3404
  12939933.59046  10116235.58644  23940639.7194                   23940640.1334
 -50912619.08248 -39627733.70346  21156857.0004                   21156853.1254
 11  8 15  1 55  0.0000000  0  7G12G10G25G05G04G29G02
 -32586090.41848 -25110243.93446  20893619.3834                   20893616.9064
 -36676740.04747 -28539324.94545  22158563.4454                   22158562.4534
  -9092052.95748  -7073163.07846  22013152.1804                   22013153.2854
 -28778446.44548 -22367256.43447  20416307.8284                   20416305.9104
 -56584725.33646 -44044704.76443  24036643.2664                   24036642.7934
  12765337.96147   9980187.07444  23907415.8834                   23907415.5274
 -50974395.80548 -39675871.41446  21145101.6484                   21145097.3164
 11  8 15  1 55 30.0000000  0  7G12G10G25G05G04G29G02
 -32656825.98448 -25165362.57046  20880158.7894                   20880156.7154
 -36687909.61747 -28548028.51245  22156438.3364                   22156437.0004
  -9229260.43048  -7180077.98046  21987042.5944                   21987042.9384
 -28891290.95748 -22455187.20347  20394833.9614                   20394832.3634
 -56595508.69546 -44053107.34043  24034590.8364                   24034591.4064
  12590722.47746   9844123.09043  23874186.9534                   23874186.8754
 -51036023.65648 -39723893.11346  21133373.8054                   21133370.1524
 11  8 15  1 56  0.0000000  0  7G12G10G25G05G04G29G02
 -32726975.16848 -25220024.27746  20866809.7894                   20866807.6024
 -36698664.53547 -28556408.98845  22154391.8984                   22154390.0354
  -9365922.55148  -7286567.94546  21961036.6804                   21961037.5314
 -29003544.30548 -22542657.32447  20373473.2664                   20373470.9774
 -56606322.84846 -44061533.87543  24032533.6024                   24032533.0784
  12416087.63346   9708044.00043  23840955.8754                   23840954.9344
 -51097504.12148 -39771799.96546  21121674.5164                   21121670.8754
 11  8 15  1 56 30.0000000  0  7G12G10G25G05G04G29G02
 -32796540.97748 -25274231.41046  20853571.5864                   20853569.5984
 -36709009.46947 -28564469.98845  22152423.0164                   22152421.7664
  -9502040.01248  -7392633.48446  21935134.1094                   21935135.2274
 -29115208.35248 -22629668.25047  20352223.8674                   20352221.8324
 -56617170.71146 -44069986.75043  24030469.2344                   24030468.9494
  12241432.42646   9571949.05943  23807720.0784                   23807719.2664
 -51158840.25848 -39819594.35946  21110002.7194                   21109998.9224
 11  8 15  1 57  0.0000000  0  7G12G10G25G05G04G29G02
 -32865525.16848 -25327985.33246  20840444.5704                   20840442.5204
 -36718948.14847 -28572214.42245  22150532.1174                   22150530.3834
  -9637611.82048  -7498273.84446  21909335.6094                   21909336.6254
 -29226283.53148 -22716220.31647  20331087.2424                   20331085.4384
 -56628053.00846 -44078466.41443  24028398.0634                   24028398.0594
  12066756.71946   9435838.14544  23774479.9454                   23774480.3204
 -51220033.16848 -39867277.15646  21098357.8524                   21098353.8054
 11  8 15  1 57 30.0000000  0  7G12G10G25G05G04G29G02
 -32933924.42248 -25381283.45746  20827428.7274                   20827426.1804
 -36728479.42647 -28579641.40645  22148718.4064                   22148716.9454
  -9772632.61748  -7603484.84046  21883642.3524                   21883643.3364
 -29336765.45348 -22802310.10247  20310062.8364                   20310060.8674
 -56638966.63746 -44086970.50443  24026321.0084                   24026321.4024
  11892066.33647   9299715.79744  23741237.1024                   23741236.9224
 -51281080.22348 -39914846.29346  21086740.9534                   21086737.3874
 11  8 15  1 58  0.0000000  0  7G12G10G25G05G04G29G02
 -33001741.11348 -25434127.62946  20814523.4304                   20814520.9774
 -36737607.87947 -28586754.49245  22146980.8754                   22146979.8204
  -9907102.45748  -7708266.52346  21858053.5234                   21858054.3554
 -29446655.60248 -22887938.77047  20289151.7814                   20289149.6844
 -56649913.50446 -44095500.49243  24024238.4144                   24024238.5394
  11717360.44947   9163581.35544  23707992.0474                   23707991.2814
 -51341983.29348 -39962303.23446  21075151.7274                   21075147.9304
 11  8 15  1 58 30.0000000  0  7G12G10G25G05G04G29G02
 -33068982.17648 -25486523.27046  20801728.1024                   20801725.4964
 -36746341.69147 -28593560.06645  22145319.0864                   22145318.0394
 -10041025.50448  -7812622.12546  21832568.6094                   21832569.7034
 -29555959.46948 -22973110.59047  20268351.8914                   20268349.7704
 -56660899.79346 -44104061.15643  24022147.7274                   24022147.3444
  11542634.60247   9027431.37944  23674742.9144                   23674742.9924
 -51402748.86748 -40009653.04346  21063588.3524                   21063584.5704
 11  8 15  1 59  0.0000000  0  7G12G10G25G05G04G29G02
 -33135643.07848 -25538466.83246  20789042.9774                   20789040.8444
 -36754678.07447 -28600055.95745  22143732.8674                   22143731.9844
 -10174394.74648  -7916546.19946  21807189.1334                   21807190.3164
 -29664671.04748 -23057820.88347  20247664.5474                   20247662.7344
 -56671920.31646 -44112648.54743  24020049.9534                   24020050.4804
  11367895.50047   8891271.05944  23641490.8524                   23641490.4964
 -51463371.93748 -40056891.80546  21052052.3834                   21052048.4534
 11  8 15  1 59 30.0000000  0  7G12G10G25G05G04G29G02
 -33201725.60948 -25589959.71146  20776468.1644                   20776465.6054
 -36762621.55947 -28606245.69945  22142221.0704                   22142220.3444
 -10307210.13348  -8020038.69146  21781915.4384                   21781916.4534
 -29772791.55948 -23142070.60947  20227089.9614                   20227088.1174
 -56682976.94146 -44121264.04343  24017946.9224                   24017946.4454
  11193142.58647   8755099.97344  23608236.5634                   23608236.6214
 -51523854.68748 -40104021.21946  21040542.8204                   21040538.9734
 11  8 15  2  0  0.0000000  0  7G12G10G25G05G04G29G02
 -33267230.25848 -25641002.29746  20764002.5784                   20764000.4884
 -36770173.80947 -28612130.57845  22140784.0004                   22140782.8984
 -10439469.50048  -8123097.92246  21756747.0554                   21756748.1484
 -29880320.44548 -23225859.32447  20206627.8594                   20206625.9224
 -56694069.31046 -44129907.42043  24015835.6334                   24015836.0554
  11018377.78947   8618919.64544  23574979.8364                   23574979.8794
 -51584197.27348 -40151041.42646  21029059.9064                   21029056.2384
 11  8 15  2  0 30.0000000  0  7G12G10G25G05G04G29G02
 -33332160.77048 -25691597.49246  20751646.5394                   20751644.4884
 -36777340.27747 -28617714.85245  22139420.9614                   22139419.4494
 -10571173.84048  -8225724.66446  21731684.7814                   21731685.5984
 -29987259.73048 -23309188.60947  20186277.7424                   20186276.2234
 -56705200.15646 -44138580.77043  24013717.2814                   24013717.4964
  10843600.03147   8482729.22744  23541721.0634                   23541721.0084
 -51644403.07448 -40197955.03946  21017603.1724                   21017599.5664
 11  8 15  2  1  0.0000000  0  7G12G10G25G05G04G29G02
 -33396515.55948 -25741744.08246  20739400.4924                   20739398.7504
 -36784121.37947 -28622998.83645  22138130.0634                   22138128.8594
 -10702319.54748  -8327916.10946  21706728.4384                   21706729.4534
 -30093606.91848 -23392056.52047  20166040.5084                   20166038.8364
 -56716368.03546 -44147282.95343  24011592.3364                   24011592.0514
  10668812.73847   8346531.38344  23508460.0084                   23508459.7034
 -51704470.06248 -40244760.49246  21006173.0084                   21006169.2544
 11  8 15  2  1 30.0000000  0  7G12G10G25G05G04G29G02
 -31884874.51648 -24563841.98046  21027056.2894                   21027054.0354
 -35215100.30147 -27400385.02745  22436704.8834                   22436703.6174
  -9257481.59448  -7202068.32846  21981672.2034                   21981673.4024
 -28623939.14548 -22246860.83247  20445709.1254                   20445707.4264
 -55152153.35546 -42928414.34443  24309251.7734                   24309252.6764
  12069442.10247   9437930.93044  23774990.7814                   23774990.8954
 -50188977.60248 -39063857.27346  21294561.6174                   21294557.4844
 11  8 15  2  2  0.0000000  0  7G12G10G25G05G04G29G02
 -31948082.82048 -24613095.21146  21015028.1644                   21015026.3444
 -35221120.02747 -27405075.73045  22435559.2034                   22435558.3014
  -9387507.03948  -7303386.82846  21956928.8364                   21956930.0204
 -28729103.48048 -22328807.03947  20425697.1334                   20425695.3164
 -55163397.08646 -42937175.64843  24307112.8674                   24307112.6214
  11894637.98047   9301719.97744  23741726.7734                   23741726.5084
 -50248770.18447 -39110448.89846  21283183.8284                   21283179.6374
 11  8 15  2  2 30.0000000  0  7G12G10G25G05G04G29G02
 -32010720.11748 -24661903.49646  21003108.5164                   21003106.6054
 -35226764.34847 -27409473.92245  22434485.4924                   22434484.2114
  -9516971.33648  -7404268.08246  21932292.6254                   21932293.8714
 -28833677.13348 -22410292.98047  20405797.3134                   20405795.0904
 -55174680.31646 -42945967.70744  24304966.0784                   24304966.1724
  11719826.29747   9165503.12544  23708461.3754                   23708461.3164
 -50308427.68048 -39156935.25046  21271831.1564                   21271826.9224
 11  8 15  2  3  0.0000000  0  7G12G10G25G05G04G29G02
 -32072786.33648 -24710266.78546  20991297.7734                   20991295.6764
 -35232034.71147 -27413580.69545  22433481.9614                   22433481.3444
  -9645871.68448  -7504709.88746  21907763.5944                   21907764.4064
 -28937658.66848 -22491317.52347  20386010.1334                   20386008.5664
 -55186001.93446 -42954789.71543  24302811.1804                   24302811.1024
  11545009.77747   9029282.51244  23675194.7114                   23675194.1914
 -50367948.93748 -39203315.45746  21260504.3754                   21260500.8954
 11  8 15  2  3 30.0000000  0  7G12G10G25G05G04G29G02
 -32134285.76648 -24758188.41446  20979594.7734                   20979592.9384
 -35236937.18447 -27417400.82845  22432549.6484                   22432548.3794
  -9774210.09848  -7604713.82446  21883341.4454                   21883342.5744
 -29041051.21948 -22571883.12947  20366335.2974                   20366333.5124
 -55197365.58646 -42963644.52043  24300648.9144                   24300648.8324
  11370186.41447   8893056.55544  23641927.0314                   23641926.6684
 -50427337.98848 -39249592.62946  21249202.9224                   21249199.1174
 11  8 15  2  4  0.0000000  0  7G12G10G25G05G04G29G02
 -32195218.83248 -24805668.73446  20967999.6644                   20967997.4924
 -35241473.68447 -27420935.78945  22431686.2974                   22431685.0164
  -9901984.47348  -7704278.25446  21859027.1954                   21859028.0394
 -29143854.35548 -22651989.43747  20346772.5084                   20346770.7974
 -55208770.76646 -42972531.64143  24298478.7194                   24298477.7894
  11195358.19147   8756826.82844  23608657.8524                   23608657.4884
 -50486594.68748 -39295766.68446  21237927.0234                   21237923.1094
 11  8 15  2  4 30.0000000  0  7G12G10G25G05G04G29G02
 -32255584.58248 -24852706.97746  20956512.3444                   20956510.3094
 -35245644.75047 -27424185.97745  22430892.3284                   22430890.7464
 -10029191.14548  -7803400.31246  21834820.7894                   21834821.1604
 -29246065.59448 -22731634.53947  20327322.6414                   20327320.2734
 -55220215.39146 -42981449.52743  24296300.8284                   24296300.2814
  11020528.80147   8620596.17644  23575388.7424                   23575388.6764
 -50545717.57048 -39341836.46546  21226676.3054                   21226672.1564
 11  8 15  2  5  0.0000000  0  7G12G10G25G05G04G29G02
 -32315386.80148 -24899306.11746  20945132.4144                   20945130.5514
 -35249455.63347 -27427155.50845  22430167.0164                   22430165.9774
 -10155831.68748  -7902081.23846  21810721.6174                   21810722.5204
 -29347687.59448 -22810820.48447  20307984.3674                   20307982.3014
 -55231702.66846 -42990400.62943  24294114.5084                   24294114.4654
  10845696.88347   8484363.53944  23542120.0394                   23542119.3324
 -50604710.07848 -39387804.64546  21215449.9924                   21215446.5474
 11  8 15  2  5 30.0000000  0  7G12G10G25G05G04G29G02
 -32374627.51248 -24945467.71146  20933859.2034                   20933857.0904
 -35252910.19147 -27429847.38744  22429509.8054                   22429508.9494
 -10281905.70748  -8000320.71546  21786730.5164                   21786731.4844
 -29448721.40648 -22889548.10547  20288758.0554                   20288756.2424
 -55243233.59046 -42999385.75043  24291920.6024                   24291920.1294
  10670862.55147   8348129.02344  23508849.2734                   23508849.3364
 -50663573.03548 -39433671.87546  21204249.1414                   21204245.1454
 11  8 15  2  6  0.0000000  0  7G12G10G25G05G04G29G02
 -32433306.43048 -24991191.55146  20922693.1414                   20922690.9494
 -35256009.98047 -27432262.80944  22428919.5394                   22428918.6374
 -10407410.83248  -8098116.90246  21762847.7114                   21762848.1294
 -29549165.81648 -22967816.44947  20269643.9614                   20269642.2704
 -55254807.31246 -43008404.24243  24289717.5704                   24289716.7274
  10496028.45347   8211894.69944  23475579.8444                   23475579.8594
 -50722305.80548 -39479437.66846  21193072.3984                   21193069.0434
 11  8 15  2  6 30.0000000  0  8G12G10G25G26G05G04G29G02
 -32491424.84048 -25036478.61746  20911633.3284                   20911631.2584
 -35258757.73447 -27434403.93444  22428396.7974                   22428395.6024
 -10532345.76248  -8195468.78146  21739073.1254                   21739073.8444
  23359254.19956  18239397.04753  24779561.5084                   24779563.0124
 -29649020.96148 -23045625.62547  20250642.6644                   20250640.5984
 -55266424.01246 -43017456.23443  24287506.9064                   24287507.1134
  10321195.94547   8075661.59844  23442310.5164                   23442310.2034
 -50780909.37148 -39525102.77746  21181920.7424                   21181917.0824
 11  8 15  2  7  0.0000000  0  8G12G10G25G26G05G04G29G02
 -32548988.14848 -25081333.15246  20900679.5474                   20900677.4534
 -35261159.75447 -27436275.64844  22427940.1024                   22427938.7304
 -10656712.87948  -8292378.21546  21715406.8834                   21715408.0164
  23174548.70746  18095470.76643  24744413.6174                   24744413.9494
 -29748290.68048 -23122978.62947  20231752.1484                   20231750.2304
 -55278087.53146 -43026544.72743  24285288.0394                   24285287.6334
  10146363.04347   7939428.19544  23409040.8524                   23409040.3484
 -50839387.57048 -39570670.19546  21170792.8284                   21170788.8244
 11  8 15  2  7 30.0000000  0  8G12G10G25G26G05G04G29G02
 -32605999.02748 -25125757.21946  20889830.7194                   20889828.7384
 -35263220.45747 -27437881.38344  22427547.9844                   22427546.3984
 -10780512.74248  -8388845.62546  21691849.0084                   21691849.8524
  22989723.52046  17951451.17243  24709242.6724                   24709243.2154
 -29846976.43448 -23199876.59047  20212972.7974                   20212971.0204
 -55289799.88346 -43035671.26243  24283058.9694                   24283058.7424
   9971529.59447   7803194.36344  23375771.5164                   23375770.4384
 -50897742.70748 -39616141.73046  21159687.7734                   21159684.5744
 11  8 15  2  8  0.0000000  0  8G12G10G25G26G05G04G29G02
 -32662461.30948 -25169753.80146  20879086.4144                   20879084.2704
 -35264945.25847 -27439225.38344  22427219.5394                   22427217.7934
 -10903746.61748  -8484872.01246  21668398.0864                   21668398.9304
  22804779.09846  17807338.67643  24674048.5474                   24674049.0554
 -29945081.02748 -23276321.69947  20194304.0234                   20194302.2544
 -55301563.64146 -43044837.84043  24280819.8134                   24280819.8364
   9796694.00847   7666958.89144  23342500.9304                   23342500.9844
 -50955977.76648 -39661519.69546  21148606.2664                   21148602.3404
 11  8 15  2  8 30.0000000  0  8G12G10G25G26G05G04G29G02
 -32718376.51248 -25213324.09846  20868446.1094                   20868443.5474
 -35266337.09847 -27440309.94144  22426955.1024                   22426953.5314
 -11026413.78548  -8580456.80546  21645055.1644                   21645056.4734
  22619718.19146  17663135.40243  24638833.3134                   24638832.6214
 -30042604.96948 -23352314.35547  20175746.0314                   20175743.8794
 -55313379.27346 -43054044.86743  24278573.6724                   24278571.8054
   9621857.49247   7530722.66444  23309230.5864                   23309230.3874
 -51014093.37548 -39706804.59046  21137547.2344                   21137543.7664
 11  8 15  2  9  0.0000000  0  8G12G10G25G26G05G04G29G02
 -32773741.37948 -25256465.55146  20857910.5164                   20857908.0984
 -35267394.29347 -27441133.73444  22426753.6254                   22426753.0864
 -11148508.47348  -8675595.50446  21621821.4144                   21621822.0784
  22434548.17246  17518847.20743  24603596.1414                   24603596.0634
 -30139543.93048 -23427851.18447  20157298.9224                   20157297.2814
 -55325242.39146 -43063288.86343  24276314.7894                   24276314.5784
   9447026.14547   7394490.45744  23275961.4384                   23275960.9454
 -51072085.73448 -39751993.43046  21126511.9144                   21126507.8634
 11  8 15  2  9 30.0000000  0  8G12G10G25G26G05G04G29G02
 -32828558.62148 -25299180.28146  20847478.8754                   20847477.1884
 -35268120.58247 -27441699.68444  22426615.7734                   22426614.3634
 -11270030.74248  -8770288.16846  21598696.6804                   21598697.1644
  22249271.12946  17374475.60243  24568339.2344                   24568339.3204
 -30235899.14548 -23502933.14547  20138963.2194                   20138961.2114
 -55337154.30946 -43072570.91842  24274047.0004                   24274047.3014
   9272200.31347   7258262.57844  23242693.5864                   23242692.4064
 -51129956.27348 -39797087.35946  21115499.2664                   21115495.6454
 11  8 15  2 10  0.0000000  0  8G12G10G25G26G05G04G29G02
 -31307406.52348 -24113866.96946  21136944.6174                   21136942.7274
 -33693098.17247 -26214409.50044  22726331.9534                   22726331.0434
  -9815554.93748  -7636930.38346  21875474.2274   21875474.3834   23639316.72346
  18457628.13743                  24832854.8444                   24832855.8324
 -28756247.23448 -22349957.60247  20420531.4924                   20420529.7034
 -53773694.27346 -41854290.43043  24571564.4064                   24571564.6254
  10672807.93447   8349645.17644  23509219.9384                   23509218.9844
 -49612283.03948 -38614484.84046  21404302.8674                   21404299.1374
 11  8 15  2 10 30.0000000  0  8G12G10G25G26G05G04G29G02
 -31361128.39848 -24155728.16446  21126721.4534                   21126719.4024
 -33693167.45747 -26214463.52044  22726318.8754                   22726317.8444
  -9935925.75048  -7730725.79746  21852568.0704   21852569.5124   23453838.18446
  18313099.46143                  24797560.5084                   24797560.4654
 -28851432.64548 -22424128.03147  20402418.5554                   20402416.3134
 -53785700.96146 -41863646.26242  24569279.8054                   24569279.6604
  10498001.01647   8213432.03544  23475955.1564                   23475954.6334
 -49669907.83248 -38659387.28546  21393337.3204                   21393333.8914
 11  8 15  2 11  0.0000000  0  8G12G10G25G26G05G04G29G02
 -31414306.60248 -24197165.73046  21116602.0554                   21116599.9614
 -33692914.63747 -26214266.52744  22726367.5554                   22726365.9344
 -10055721.15248  -7824072.84446  21829772.2034   21829772.7504   23268261.46146
  18168494.30143                  24762246.5944                   24762245.8554
 -28946035.23048 -22497844.30547  20384416.0314                   20384414.2504
 -53797756.86346 -41873040.52743  24566985.2974                   24566985.4924
  10323203.63747   8077226.33244  23442692.1174                   23442691.6604
 -49727412.36748 -38704196.01246  21382394.6024                   21382391.0164
 11  8 15  2 11 30.0000000  0  8G12G10G25G26G05G04G29G02
 -31466941.86748 -24238180.22746  21106586.2274                   21106584.0864
 -33692340.85547 -26213819.44544  22726476.5164                   22726475.1954
 -10174939.02348  -7916969.85946  21807085.1804   21807086.3324   23082590.93046
  18023816.07442                  24726913.3754                   24726914.5004
 -29040054.20748 -22571105.82847  20366524.8594                   20366523.0664
 -53809861.29347 -41882472.58243  24564682.1724                   24564682.8094
  10148418.58247   7941030.24244  23409431.2894                   23409431.3714
 -49784795.89548 -38748910.44946  21371474.8594                   21371471.2304
 11  8 15  2 12  0.0000000  0  8G12G10G25G26G05G04G29G02
 -31519036.69548 -24278773.60246  21096673.2974                   21096670.8324
 -33691450.20747 -26213125.44144  22726645.5474                   22726644.3634
 -10293579.46148  -8009416.93446  21784509.0314   21784509.6174   22896828.68446
  17879066.29742                  24691564.3984                   24691564.4574
 -29133491.15648 -22643913.82447  20348744.1414                   20348742.2304
 -53822015.43446 -41891943.35243  24562369.3594                   24562368.6094
   9973646.61347   7804844.35244  23376173.2114                   23376173.4964
 -49842060.03148 -38793531.85246  21360577.9454                   21360574.1994
 11  8 15  2 12 30.0000000  0  8G12G10G25G26G05G04G29G02
 -31570589.98848 -24318945.00046  21086862.5944                   21086860.6254
 -33690243.13347 -26212184.90244  22726876.0164                   22726874.5164
 -10411639.30148  -8101411.59446  21762042.7504   21762043.9614   22710979.79346
  17734249.05142                  24656198.1724                   24656199.1094
 -29226344.01248 -22716266.67647  20331075.3444                   20331073.0004
 -53834217.13347 -41901451.22743  24560047.4924                   24560047.7624
   9798890.99646   7668671.19144  23342917.8444                   23342917.7584
 -49899202.71548 -38838058.62146  21349704.1174                   21349700.0354
 11  8 15  2 13  0.0000000  0  8G12G10G25G26G05G04G29G02
 -31621603.78148 -24358696.01246  21077154.9144                   21077152.6764
 -33688722.80547 -26211000.22344  22727164.8524                   22727163.5984
 -10529118.10548  -8192953.49246  21739687.2974   21739688.3554   22525047.00446
  17589366.36342                  24620817.0234                   24620816.9494
 -29318613.87148 -22788165.23847  20313516.6644                   20313514.3914
 -53846466.99246 -41910996.59843  24557715.6334                   24557716.0554
   9624152.68847   7532511.53144  23309667.5554                   23309666.7504
 -49956225.18748 -38882491.71546  21338852.7974                   21338849.3324
 11  8 15  2 13 30.0000000  0  8G12G10G25G26G05G04G29G02
 -31672081.42648 -24398029.25446  21067549.4534                   21067547.1994
 -33686893.58247 -26209574.88744  22727512.6334                   22727512.0004
 -10646016.68448  -8284043.27346  21717442.1024   21717443.4494   22339031.69146
  17444419.36742                  24585418.2894                   24585419.3954
 -29410302.78948 -22859611.12947  20296069.0394                   20296066.9534
 -53858766.85247 -41920580.96143  24555375.4224                   24555376.3364
   9449431.66847   7396365.34444  23276418.9454                   23276418.1684
 -50013129.38748 -38926832.63746  21328024.5314                   21328021.0634
 11  8 15  2 14  0.0000000  0  8G12G10G25G26G05G04G29G02
 -31722023.68448 -24436945.30146  21058045.6094                   21058043.5704
 -33684757.86747 -26207910.69544  22727919.6174                   22727917.9924
 -10762333.62948  -8374679.83246  21695307.7894   21695308.8404   22152937.55546
  17299411.00843                  24550006.7734                   24550007.8714
 -29501410.65248 -22930604.25047  20278731.4224                   20278729.9924
 -53871116.19947 -41930203.84843  24553026.0084                   24553025.8324
   9274730.10547   7260234.32444  23243173.6174                   23243173.9454
 -50069915.18048 -38971081.31246  21317218.2194                   21317214.4774
 11  8 15  2 14 30.0000000  0  8G12G10G25G26G05G04G29G02
 -31771433.26248 -24475446.27346  21048643.2194                   21048641.1334
 -33682319.19147 -26206010.43744  22728383.3674                   22728382.5394
 -10878068.82048  -8464863.07846  21673284.0784   21673285.2664   21966767.21546
  17154343.28143                  24514579.3524                   24514580.6094
 -29591938.68448 -23001145.55147  20261504.5634                   20261502.8874
 -53883516.20747 -41939866.25043  24550667.1414                   24550666.3404
   9100048.55147   7124118.87544  23209933.0864                   23209932.7734
 -50126583.82848 -39015238.70746  21306434.7664                   21306430.6844
 11  8 15  2 15  0.0000000  0  8G12G10G25G26G05G04G29G02
 -31820310.18048 -24513532.19146  21039342.3524                   21039340.0354
 -33679578.83647 -26203875.11344  22728904.9694                   22728904.0164
 -10993220.01248  -8554591.25446  21651371.5864   21651372.4414   21780525.19946
  17009219.73043                  24479138.8204                   24479138.4224
 -29681885.87548 -23071234.24647  20244387.9384                   20244385.8404
 -53895965.26647 -41949566.86743  24548297.6334                   24548296.5554
   8925390.34847   6988021.62545  23176696.9064                   23176696.5664
 -50183134.29747 -39059304.00046  21295673.4304                   21295669.7974
 11  8 15  2 15 30.0000000  0  8G12G10G25G26G05G04G29G02
 -31868654.96548 -24551203.46146  21030142.6644                   21030140.3324
 -33676538.76646 -26201506.23044  22729483.4774                   22729481.6994
 -11107785.38748  -8643862.94946  21629570.4064   21629571.3834   21594215.63746
  16864043.56643                  24443685.1724                   24443685.0274
 -29771251.64148 -23140869.89147  20227382.6334                   20227380.5784
 -53908462.40247 -41959304.94543  24545919.4224                   24545919.1804
   8750757.83247   6851944.41044  23143465.3134                   23143464.7194
 -50239565.86748 -39103276.65646  21284935.2974                   21284931.1994
 11  8 15  2 16  0.0000000  0  8G12G10G25G26G05G04G29G02
 -31916473.16848 -24588464.39546  21021043.1724                   21021040.9384
 -33673205.65646 -26198909.00844  22730118.0704                   22730116.1214
 -11221768.18448  -8732680.69146  21607880.2894   21607880.8794   21407837.60546
  16718814.06343                  24408218.3134                   24408217.8444
 -29860040.75048 -23210056.18747  20210486.4454                   20210484.5594
 -53921011.59047 -41969083.58643  24543531.8444                   24543530.5784
   8576148.33647   6715885.11744  23110238.0784                   23110237.9224
 -50295882.50847 -39147159.75446  21274218.3204                   21274214.6524
 11  8 15  2 16 30.0000000  0  8G12G10G25G26G05G04G29G02
 -31963765.69948 -24625315.71946  21012044.0234                   21012041.7814
 -33669581.33246 -26196084.87544  22730807.3984                   22730806.4804
 -11335166.76648  -8821043.19946  21586300.9534   21586302.2894   21221395.40646
  16573534.52043                  24372739.4224                   24372739.1254
 -29948252.62148 -23278792.69547  20193700.3364                   20193698.5434
 -53933612.22747 -41978902.31243  24541134.3364                   24541133.2894
   8401564.67647   6579845.94545  23077015.7034                   23077014.8484
 -50352084.27747 -39190953.34046  21263523.6884                   21263519.8444
 11  8 15  2 17  0.0000000  0  8G12G10G25G26G05G04G29G02
 -32010533.62948 -24661758.27346  21003144.3134                   21003142.5514
 -33665667.69547 -26193035.30544  22731552.5164                   22731551.0984
 -11447979.66048  -8908949.33246  21564833.3984   21564834.6414   21034892.67247
  16428207.78943                  24337249.4924                   24337248.8324
 -30035887.25848 -23347079.41047  20177024.0554                   20177022.0474
 -53946263.48046 -41988760.53543  24538726.0004                   24538726.3094
   8227009.29347   6443828.81344  23043799.1954                   23043798.6214
 -50408170.70348 -39234657.04746  21252850.4384                   21252846.8674
 11  8 15  2 17 30.0000000  0  8G12G10G25G26G05G04G29G02
 -32056779.79348 -24697794.24246  20994343.7274                   20994341.8204
 -33661468.51246 -26189763.22744  22732350.6804                   22732350.3754
 -11560207.24648  -8996399.37946  21543477.4304   21543478.3524   20848331.65647
  16282835.66843                  24301747.3204                   24301747.9184
 -30122946.39148 -23414917.68047  20160457.0234                   20160454.6684
 -53958966.57846 -41998659.10943  24536308.8594                   24536308.7504
   8052482.62547   6307834.05145  23010587.8674                   23010586.9774
 -50464142.93048 -39278271.77346  21242199.4064                   21242195.5904
 11  8 15  2 18  0.0000000  0  8G12G10G25G26G05G04G29G02
 -32102506.73448 -24733425.62546  20985641.8364                   20985640.2934
 -33656987.68447 -26186271.67644  22733204.3594                   22733202.2894
 -11671850.00848  -9083393.71146  21522232.7424   21522233.1024   20661714.55146
  16137419.85243                  24266235.4924                   24266236.5904
 -30209431.64548 -23482308.76647  20143999.4844                   20143997.4494
 -53971722.76246 -42008599.04743  24533882.2424                   24533881.5634
   7877984.87147   6171861.83645  22977381.7504                   22977380.9694
 -50520002.66848 -39321798.84046  21231569.4844                   21231565.7894
 11  8 15  2 18 30.0000000  0  7G12G10G25G26G05G29G02
 -32147715.05948 -24768652.89846  20977039.3134                   20977037.3954
 -33652226.82447 -26182561.94544  22734110.4304                   22734108.9414
 -11782906.02348  -9169930.84846  21501099.1954   21501100.1564   20475045.73447
  15991963.71543                  24230714.5084                   24230713.9804
 -30295342.41048 -23549252.20347  20127651.5554                   20127649.2774
   7703519.19547   6035914.61745  22944181.8754                   22944181.4064
 -50575749.14848 -39365237.67246  21220961.1094                   21220957.9614
 11  8 15  2 19  0.0000000  0  7G12G10G25G26G05G29G02
 -30616984.84848 -23575876.10546  21268327.5394                   21268325.6524
 -32071768.52347 -24951036.01244  23034861.2584                   23034860.0354
 -10317950.89848  -8028407.35546  21779871.0554   21779871.6844   21863754.77747
  17074074.75843                  24494976.8754                   24494976.4144
 -28805256.53148 -22388146.30947  20411205.3674                   20411202.9574
   9104512.97347   7127598.14844  23210782.2664                   23210781.9264
 -49055960.53548 -38180986.81246  21510167.8914                   21510163.5204
 11  8 15  2 19 30.0000000  0  7G12G10G25G26G05G29G02
 -30661157.74248 -23610296.53946  21259922.1644                   21259920.0904
 -32066452.16447 -24946893.39844  23035872.9384                   23035871.5944
 -10427828.10948  -8114025.93746  21758962.0634   21758962.7194   21676996.06347
  16928548.61343                  24459437.6954                   24459438.2154
 -28890017.38748 -22454193.71147  20395075.4774                   20395073.2344
   8930119.46147   6991707.18044  23177596.3364                   23177595.8244
 -49111477.46948 -38224246.76246  21499603.0944                   21499599.4454
 11  8 15  2 20  0.0000000  0  7G12G10G25G26G05G29G02
 -30704812.82848 -23644313.48846  21251614.3914                   21251612.5594
 -32060859.50447 -24942535.51244  23036937.3594                   23036936.2814
 -10537112.22748  -8199182.37546  21738165.8914   21738166.9024   21490200.00447
  16782993.31343                  24423891.1484                   24423891.2344
 -28974201.07848 -22519791.37947  20379056.1724                   20379053.9804
   8755767.50847   6855848.58644  23144418.0234                   23144417.5594
 -49166877.35248 -38267415.50046  21489060.9144                   21489057.3054
 11  8 15  2 20 30.0000000  0  7G12G10G25G26G05G29G02
 -30747953.57048 -23677929.64546  21243405.1954                   21243403.0234
 -32054994.78147 -24937965.61344  23038053.1954                   23038052.0664
 -10645804.44148  -8283877.59446  21717482.4694   21717483.3444   21303368.16447
  16637410.19143                  24388337.9454                   24388337.8204
 -29057810.43048 -22584941.50447  20363146.0634                   20363143.6254
   8581456.84447   6720022.16045  23111247.6334                   23111247.4454
 -49222162.20747 -38310494.60246  21478540.4694                   21478536.9734
 11  8 15  2 21  0.0000000  0  7G12G10G25G26G05G29G02
 -30790581.02048 -23711145.83246  21235293.9064                   21235291.3954
 -32048860.57847 -24933185.71944  23039220.7584                   23039219.4304
 -10753903.66048  -8368110.73846  21696911.8674   21696912.7424   21116504.48046
  16491802.26243                  24352779.3054                   24352779.0824
 -29140845.56648 -22649644.19147  20347344.5234                   20347342.3204
   8407189.97347   6584229.88344  23078085.3594                   23078085.4024
 -49277331.98047 -38353484.04346  21468041.8754                   21468038.3134
 11  8 15  2 21 30.0000000  0  7G12G10G25G26G05G29G02
 -30832699.46148 -23743965.39846  21227278.5704                   21227276.7664
 -32042461.66047 -24928199.56244  23040438.2034                   23040436.5984
 -10861411.57448  -8451883.12146  21676453.9384   21676454.3014   20929609.79346
  16346170.15243                  24317214.0004                   24317213.6804
 -29223309.86348 -22713902.06647  20331652.1954                   20331650.3324
   8232966.12547   6448471.12545  23044932.2814                   23044931.7664
 -49332388.82448 -38396385.47746  21457565.1644                   21457561.2814
 11  8 15  2 22  0.0000000  0  7G12G10G25G26G05G29G02
 -30874310.11348 -23776389.27346  21219359.9304                   21219358.2774
 -32035799.94146 -24923008.63344  23041706.3444                   23041705.2664
 -10968326.87548  -8535193.73046  21656108.4844   21656108.9774   20742688.32446
  16200517.18443                  24281644.6334                   24281643.5554
 -29305202.62148 -22777714.58647  20316068.2974                   20316066.3484
   8058787.89147   6312747.89845  23011787.3754                   23011786.6764
 -49387332.33648 -38439198.59446  21447109.5704                   21447106.1054
 11  8 15  2 22 30.0000000  0  7G12G10G25G26G05G29G02
 -30915418.53148 -23808421.80946  21211537.4614                   21211535.5234
 -32028881.77046 -24917617.88744  23043022.2894                   23043020.8914
 -11074652.93748  -8618045.19946  21635875.0004   21635876.0234   20555739.74646
  16054843.07043                  24246068.2734                   24246068.3444
 -29386528.43048 -22841085.32447  20300592.6414                   20300590.5234
   7884653.14147   6177058.57045  22978650.0554                   22978649.9534
 -49442166.46948 -38481926.47746  21436675.0864                   21436671.1564
 11  8 15  2 23  0.0000000  0  7G12G10G25G26G05G29G02
 -30956029.27748 -23840066.54346  21203809.6724                   21203807.7194
 -32021712.30146 -24912031.29344  23044386.6174                   23044385.7234
 -11180391.87948  -8700439.16846  21615753.5554   21615754.6914   20368764.74646
  15909148.37943                  24210489.1174                   24210488.6844
 -29467291.09848 -22904017.26247  20285224.0394                   20285221.7504
   7710561.22347   6041402.62945  22945521.7034                   22945520.8554
 -49496894.38348 -38524571.59046  21426260.4534                   21426256.8484
 11  8 15  2 23 30.0000000  0  7G12G10G25G26G05G29G02
 -30996141.63748 -23871322.93446  21196176.7664                   21196174.7304
 -32014291.87546 -24906249.16044  23045798.7584                   23045797.7704
 -11285540.69548  -8782373.30146  21595744.6174   21595745.3954   20181769.37946
  15763437.79743                  24174903.8674                   24174904.9844
 -29547488.94548 -22966509.07047  20269962.6644                   20269960.5664
   7536516.26247   5905783.26245  22912402.2034                   22912401.3554
 -49551513.51248 -38567131.94146  21415866.9224                   21415863.1294
 11  8 15  2 24  0.0000000  0  7G12G10G25G26G05G29G02
 -31035755.65648 -23902191.00046  21188638.0474                   21188635.8444
 -32006621.56246 -24900272.30544  23047258.0164                   23047256.6954
 -11390097.25848  -8863845.93046  21575848.2424   21575848.9454   19994758.71946
  15617715.25043                  24139318.1094                   24139317.2194
 -29627120.82048 -23028559.86747  20254809.5234                   20254807.2384
   7362521.77347   5770203.21945  22879291.9534                   22879291.0394
 -49606021.94948 -38609606.03546  21405494.2504                   21405490.8014
 11  8 15  2 24 30.0000000  0  7G12G10G25G26G05G29G02
 -31074877.12148 -23932675.25446  21181193.4224                   21181191.7234
 -31998707.64846 -24894105.64844  23048764.9064                   23048763.1764
 -11494065.10248  -8944859.82446  21556063.5314   21556064.4344   19807732.36346
  15471980.48443                  24103727.0474                   24103726.9924
 -29706191.80548 -23090173.59847  20239762.4844                   20239760.4344
   7188575.88747   5634661.04345  22846190.8834                   22846190.4414
 -49660424.36748 -38651997.52046  21395141.5864                   21395138.4064
 11  8 15  2 25  0.0000000  0  7G12G10G25G26G05G29G02
 -31113507.21148 -23962776.62546  21173842.5864                   21173840.7504
 -31990551.88346 -24887750.52344  23050316.2974                   23050315.3204
 -11597442.83248  -9025413.87946  21536391.5554   21536392.4224   19620694.40647
  15326236.62943                  24068135.5004                   24068134.8364
 -29784701.55548 -23151350.01247  20224822.6024                   20224820.7274
   7014681.21547   5499158.77345  22813099.9144                   22813099.2774
 -49714719.87948 -38694305.69146  21384809.5634                   21384805.9844
 11  8 15  2 25 30.0000000  0  7G12G10G25G26G05G29G02
 -31151647.37948 -23992496.23046  21166584.4614                   21166582.7464
 -31982156.43447 -24881208.66444  23051914.0314                   23051912.8984
 -11700229.66448  -9105507.50446  21516831.6644   21516832.6094   19433649.19547
  15180487.19943                  24032541.1334                   24032541.4064
 -29862650.67248 -23212089.56647  20209989.4924                   20209987.3524
   6840840.19547   5363698.32445  22780019.1644                   22780018.3284
 -49768907.95748 -38736530.14846  21374497.8984                   21374493.9804
 11  8 15  2 26  0.0000000  0  7G12G10G25G26G05G29G02
 -31189299.76648 -24021835.75846  21159420.0314                   21159418.0634
 -31973524.39147 -24874482.42244  23053557.0944                   23053555.7344
 -11802425.64148  -9185140.71946  21497384.7974   21497385.4454   19246599.47747
  15034734.25844                  23996947.3984                   23996946.6564
 -29940040.68748 -23272393.46147  20195262.5784                   20195260.5554
   6667053.97347   5228280.55545  22746948.5004                   22746947.6564
 -49822989.34848 -38778671.48446  21364206.5314                   21364203.6174
 11  8 15  2 26 30.0000000  0  7G12G10G25G26G05G29G02
 -31226467.09448 -24050797.30946  21152346.7894                   21152345.0274
 -31964659.01647 -24867574.35544  23055243.4144                   23055242.6134
 -11904031.00848  -9264313.71146  21478049.4844   21478050.3754   19059548.40647
  14888980.23843                  23961352.9384                   23961351.8754
 -30016872.42248 -23332262.33247  20180641.9924                   20180639.6844
   6493324.13747   5092906.73445  22713889.0634                   22713888.3164
 -49876964.50048 -38820730.03146  21353935.6094                   21353931.4414
 11  8 15  2 27  0.0000000  0  7G12G10G25G26G05G29G02
 -31263152.32848 -24079383.19946  21145366.0554                   21145364.3054
 -31955564.22747 -24860487.55544  23056974.8914                   23056973.7704
 -12005046.85948  -9343027.34846  21458826.9694   21458827.7734   18872497.92647
  14743226.70744                  23925757.9454                   23925757.9064
 -30093148.63748 -23391698.32447  20166127.1644                   20166124.8054
   6319650.91447   4957577.01645  22680839.6254                   22680838.9384
 -49930834.96948 -38862707.01246  21343684.5164                   21343680.5904
 11  8 15  2 27 30.0000000  0  7G12G10G25G26G05G29G02
 -29723932.49648 -22879991.12146  21438269.7424                   21438268.0864
 -30370818.98047 -23625621.15644  23358542.2584                   23358540.3444
 -10530045.57448  -8193675.68746  21739510.8364   21739511.3914   20260881.82847
  15825084.36744                  24189958.7664                   24189958.0474
 -28593443.68748 -22223097.04747  20451511.4614                   20451509.4774
   7721466.03147   6049900.55545  22947595.8444                   22947595.3444
 -48409175.34048 -37676998.21146  21633246.3444                   21633242.8914
 11  8 15  2 28  0.0000000  0  7G12G10G25G26G05G29G02
 -29759655.56648 -22907827.28146  21431471.9304                   21431469.8634
 -30361268.41847 -23618179.19944  23360359.1484                   23360357.7774
 -10629876.82448  -8271466.25046  21720513.1644   21720513.8954   20073847.77747
  15679343.59044                  24154367.5784                   24154366.1254
 -28668606.65248 -22281665.57047  20437208.4454                   20437206.1954
   7547916.84847   5914667.47745  22914570.9384                   22914570.2854
 -48462832.52748 -37718808.99246  21623035.7974                   21623032.0044
 11  8 15  2 28 30.0000000  0  7G12G10G25G26G05G29G02
 -29794903.75448 -22935293.40246  21424764.4224                   21424762.7734
 -30351497.15247 -23610565.26244  23362218.1254                   23362217.2034
 -10729118.78948  -8348797.63346  21701628.2424   21701628.9224   19886824.00846
  15533610.80943                  24118778.1484                   24118776.5594
 -28743218.23448 -22339804.44547  20423010.2034                   20423008.3444
   7374429.23447   5779482.39145  22881557.0164                   22881556.4774
 -48516386.35248 -37760539.23846  21612844.9384                   21612841.2934
 11  8 15  2 29  0.0000000  0  7G12G10G25G26G05G29G02
 -29829679.50048 -22962391.38746  21418146.8594                   21418145.0044
 -30341508.31647 -23602781.80944  23364119.2734                   23364117.7974
 -10827771.66848  -8425669.99646  21682855.0554   21682855.5514   19699813.81346
  15387888.66443                  24083191.0784                   24083190.3134
 -28817279.88748 -22397514.80547  20408917.1174                   20408914.5164
   7201004.77347   5644346.50845  22848556.0234                   22848554.9144
 -48569837.47748 -37802189.46146  21602673.1334                   21602669.8204
 11  8 15  2 29 30.0000000  0  7G12G10G25G26G05G29G02
 -29863984.97748 -22989122.92246  21411618.6724                   21411616.9694
 -30331304.46547 -23594830.80543  23366061.0944                   23366060.0044
 -10925835.54348  -8502083.39546  21664194.0554   21664194.6214   19512820.36346
  15242179.50843                  24047607.3284                   24047606.7854
 -28890792.35248 -22454797.23047  20394927.8444                   20394925.4144
   7027644.90247   5509260.97345  22815566.0474                   22815565.4064
 -48623186.16448 -37843759.85946  21592521.4304                   21592518.0904
 11  8 15  2 30  0.0000000  0  7G12G10G25G26G05G29G02
 -29897822.76648 -23015490.03546  21405179.6954                   21405177.4804
 -30320888.54747 -23586714.53943  23368042.8054                   23368041.9924
 -11023310.52048  -8578037.91046  21645645.3284   21645646.2344   19325846.71546
  15096485.86743                  24012026.4384                   24012026.6374
 -28963756.99648 -22511652.77347  20381043.0314                   20381040.6844
   6854351.64147   5374227.33245  22782589.4454                   22782588.6604
 -48676432.70348 -37885250.66446  21582389.1094                   21582385.1724
 11  8 15  2 30 30.0000000  0  7G12G10G25G26G05G29G02
 -29931191.39848 -23041491.56246  21398829.7814                   21398827.3524
 -30310259.71547 -23578432.35543  23370065.3984                   23370064.5474
 -11120193.21148  -8653530.89846  21627208.7274   21627209.7734   19138900.03146
  14950813.21544                  23976452.6644                   23976451.3594
 -29036171.83248 -22568079.90247  20367262.7114                   20367260.6644
   6681130.05547   5239249.55545  22749626.6644                   22749625.5904
 -48729573.75048 -37926659.26646  21572276.2584                   21572273.0634
 11  8 15  2 31  0.0000000  0  7G12G10G25G26G05G29G02
 -29964097.23848 -23067132.48046  21392568.3204                   21392566.0044
 -30299424.64147 -23569989.47343  23372127.7274                   23372126.5514
 -11216487.37148  -8728565.29346  21608884.9774   21608885.5434   18951979.88746
  14805161.28543                  23940882.6254                   23940881.8244
 -29108041.63348 -22624082.32047  20353586.6254                   20353584.5204
   6507978.11347   5104326.04345  22716676.7194                   22716675.6724
 -48782613.26248 -37967988.75446  21562183.7194                   21562179.6334
 11  8 15  2 31 30.0000000  0  7G12G10G25G26G05G29G02
 -29996543.83248 -23092415.53946  21386393.5084                   21386391.7544
 -30288387.61347 -23561389.18044  23374228.1884                   23374226.5864
 -11312194.54348  -8803142.29746  21590672.3524   21590673.1604   18765088.26646
  14659531.54343                  23905317.9774                   23905317.4884
 -29179369.27748 -22679662.28547  20340013.6334                   20340011.3444
   6334896.27347   4969457.15645  22683740.1884                   22683739.4144
 -48835553.09048 -38009240.56246  21552109.4144                   21552105.8874
 11  8 15  2 32  0.0000000  0  7G12G10G25G26G05G29G02
 -30028530.96548 -23117340.57046  21380306.6174                   21380304.7114
 -30277148.70347 -23552631.60243  23376366.8284                   23376365.3484
 -11407312.45348  -8877260.13746  21572572.0864   21572572.7274   18578230.96946
  14513928.55143                  23869760.3914                   23869759.3324
 -29250153.59048 -22734818.87547  20326543.8524                   20326541.7424
   6161888.71947   4834646.16045  22650818.0474                   22650817.1374
 -48888390.76248 -38050412.75846  21542054.8594                   21542050.6374
 11  8 15  2 32 30.0000000  0  7G12G10G25G26G05G29G02
 -30060059.48847 -23141908.25046  21374306.7974                   21374304.1954
 -30265709.30547 -23543717.78943  23378543.3984                   23378542.2344
 -11501839.93748  -8950917.88746  21554583.9694   21554584.7934   18391413.02746
  14368356.26243                  23834209.7974                   23834210.3754
 -29320394.86348 -22789552.32047  20313177.2734                   20313175.2154
   5988958.94147   4699895.78145  22617910.7034                   22617909.6414
 -48941125.41048 -38091504.68746  21532020.0554                   21532015.3054
 11  8 15  2 33  0.0000000  0  7G12G10G25G26G05G29G02
 -30091136.86348 -23166124.38746  21368393.5164                   21368391.6564
 -30254076.73047 -23534653.43444  23380757.7114                   23380755.8014
 -11595781.73448  -9024119.27346  21536707.5944   21536707.9654   18204633.16046
  14222813.59443                  23798667.0944                   23798666.3634
 -29390098.84848 -22843867.08647  20299912.7584                   20299910.7734
   5816103.98447   4565203.69545  22585016.9614                   22585016.2664
 -48993761.78948 -38132520.05146  21522003.3914                   21521999.2344
 11  8 15  2 33 30.0000000  0  7G12G10G25G26G05G29G02
 -30121762.48048 -23189988.50446  21362565.4774                   21362563.7274
 -30242250.99247 -23525438.55544  23383007.7734                   23383006.8914
 -11689135.55148  -9096862.48046  21518943.0394   21518943.6604   18017897.07846
  14077304.99243                  23763132.1174                   23763131.3324
 -29459264.27048 -22897762.21147  20286751.1094                   20286748.9654
   5643328.03947   4430573.18045  22552139.2584                   22552138.0514
 -49046297.34848 -38173456.84046  21512006.2114                   21512002.6604
 11  8 15  2 34  0.0000000  0  7G12G10G25G26G05G29G02
 -30151937.69548 -23213501.65246  21356823.3754                   21356821.4304
 -30230234.20747 -23516074.84843  23385294.3364                   23385293.3164
 -11781900.58248  -9169146.89846  21501290.1644   21501290.6524   17831209.60946
  13931834.29743                  23727606.6094                   23727604.8634
 -29527891.65648 -22951238.08247  20273691.8674                   20273689.6134
   5470634.02047   4296006.49645  22519276.3054                   22519275.5514
 -49098731.43448 -38214314.56646  21502028.4844                   21502024.5394
 11  8 15  2 34 30.0000000  0  7G12G10G25G26G05G29G02
 -30181667.38747 -23236667.64846  21351165.6804                   21351163.9494
 -30218031.28947 -23506566.08243  23387616.4694                   23387615.6414
 -11874079.62548  -9240974.69546  21483748.9614   21483750.0314   17644571.62947
  13786402.16044                  23692091.0164                   23692089.3094
 -29595984.77048 -23004297.63347  20260734.3134                   20260731.8754
   5298021.32047   4161503.18045  22486429.8444                   22486428.3134
 -49151066.44548 -38255095.10246  21492069.3984                   21492065.5824
 11  8 15  2 35  0.0000000  0  7G12G10G25G26G05G29G02
 -30210955.27348 -23259489.37946  21345592.5554                   21345590.4384
 -30205646.07846 -23496915.30944  23389972.7034                   23389972.6524
 -11965674.27048  -9312347.11746  21466319.3594   21466319.6524   17457985.16447
  13641010.17244                  23656585.1644                   23656583.6094
 -29663546.42648 -23056943.06247  20247877.4844                   20247875.2194
   5125490.51247   4027063.66845  22453597.6724                   22453596.3094
 -49203304.11348 -38295799.77746  21482128.5944                   21482125.1054
 11  8 15  2 35 30.0000000  0  7G12G10G25G26G05G29G02
 -30239801.89847 -23281967.26646  21340102.9614                   21340101.0514
 -30193079.49646 -23487123.15643  23392364.3134                   23392363.9264
 -12056682.87148  -9383262.89146  21449000.8364   21449001.5124   17271455.68047
  13495662.58244                  23621089.1564                   23621087.3444
 -29730575.97348 -23109173.87147  20235122.2274                   20235120.1484
   4953045.60548   3892691.10245  22420782.5944                   22420781.4774
 -49255442.71548 -38336427.25046  21472207.3284                   21472203.1764
 11  8 15  2 36  0.0000000  0  7G12G10G25G26G05G29G02
 -28692790.27348 -22076503.66446  21634489.6884                   21634487.7934
 -28604916.18047 -22249593.31643  23694581.6484                   23694581.3444
 -10571684.33648  -8226121.14846  21731586.5164   21731587.1374   18660411.66847
  14577966.02344                  23885398.2974                   23885396.8444
 -28221654.50048 -21933390.89547  20522260.4454                   20522257.9344
   6356112.65247   4985990.17245  22687776.7424                   22687776.2274
 -47732062.10548 -37149377.43446  21762096.8984                   21762092.9844
 11  8 15  2 36 30.0000000  0  7G12G10G25G26G05G29G02
 -28720761.52048 -22098299.44146  21629166.6804                   21629164.9024
 -28591994.89847 -22239524.79343  23697040.5944                   23697039.9574
 -10661522.03948  -8296124.52346  21714490.9924   21714491.8444   18474006.89546
  14432715.62943                  23849925.8524                   23849925.1134
 -28287624.60248 -21984796.15247  20509706.6564                   20509704.2854
   6183845.03547   4851755.75045  22654995.2504                   22654994.5784
 -47784002.90248 -37189850.78546  21752212.7894                   21752209.3404
 11  8 15  2 37  0.0000000  0  7G12G10G25G26G05G29G02
 -28748298.07847 -22119756.49646  21623926.7974                   21623924.8324
 -28578899.91047 -22229320.88743  23699532.5634                   23699531.0234
 -10750774.39148  -8365671.78946  21697507.0394   21697507.5354   18287670.21146
  14287518.30544                  23814468.1564                   23814466.6764
 -28353066.86348 -22035790.11747  20497253.3754                   20497251.3984
   6011669.28548   4717592.89845  22622232.0234                   22622230.8444
 -47835844.49648 -37230246.81246  21742347.4614                   21742343.6254
 11  8 15  2 37 30.0000000  0  8G12G10G25G26G05G15G29G02
 -28775404.85548 -22140878.66446  21618768.2734                   21618766.4614
 -28565635.80147 -22218985.21543  23702056.5474                   23702055.7344
 -10839443.64148  -8434764.69546  21680633.5704   21680634.4024   18101403.24646
  14142375.31644                  23779022.1024                   23779021.7934
 -28417984.41848 -22086375.21547  20484900.2344                   20484897.7504
  29660926.34855  23158342.59452  24703024.2974                   24703024.4574
   5839585.50047   4583501.70345  22589485.1804                   22589483.8984
 -47887588.79748 -37270567.06646  21732500.7664                   21732497.2544
 11  8 15  2 38  0.0000000  0  8G12G10G25G26G05G15G29G02
 -28802085.52048 -22161668.78546  21613691.6564                   21613689.3754
 -28552206.30947 -22208520.63343  23704612.1094                   23704611.2934
 -10927531.48048  -8503404.53946  21663870.9454   21663871.7704   17915208.19146
  13997288.34443                  23743590.2274                   23743589.5434
 -28482380.00448 -22136553.57447  20472646.0704                   20472643.7894
  29476096.49646  23014319.49242  24667852.7034                   24667853.0204
   5667594.16447   4449482.54345  22556756.1484                   22556754.8794
 -47939237.21948 -37310812.59046  21722672.9224                   21722668.7814
 11  8 15  2 38 30.0000000  0  8G12G10G25G26G05G15G29G02
 -28828345.03148 -22182130.74246  21608694.4064                   21608692.0824
 -28538616.89847 -22197931.50843  23707198.5084                   23707197.6644
 -11015041.20748  -8571593.91846  21647218.7424   21647219.1454   17729085.83646
  13852257.99244                  23708172.5474                   23708171.2544
 -28546258.15648 -22186328.75047  20460490.3204                   20460488.2194
  29291144.22346  22870200.91843  24632657.0314                   24632657.5314
   5495694.53947   4315534.85945  22524044.6884                   22524043.4774
 -47990792.78948 -37350985.76246  21712861.9224                   21712858.6764
 11  8 15  2 39  0.0000000  0  8G12G10G25G26G05G15G29G02
 -28854186.58248 -22202267.01246  21603776.8594                   21603774.7544
 -28524871.05947 -22187220.39843  23709814.0394                   23709812.0704
 -11101974.16448  -8639333.86746  21630675.7894   21630676.2664   17543038.87946
  13707286.41043                  23672768.9454                   23672768.0004
 -28609621.43048 -22235702.72347  20448432.8524                   20448430.3984
  29106071.17646  22725988.28943  24597438.6884                   24597439.2304
   5323887.84047   4181659.56345  22491351.1334                   22491349.7934
 -48042256.27048 -37391087.18046  21703069.0634                   21703065.1484
 11  8 15  2 39 30.0000000  0  8G12G10G25G26G05G15G29G02
 -28879612.32048 -22222079.27346  21598938.6334                   21598936.8754
 -28510970.94147 -22176389.08643  23712458.6644                   23712458.1414
 -11188330.30948  -8706624.35546  21614242.5864   21614243.1724   17357071.48446
  13562376.80544                  23637380.3914                   23637379.8204
 -28672470.68048 -22284676.15247  20436472.9924                   20436470.8244
  28920880.62146  22581684.07043  24562198.4144                   24562198.2584
   5152176.59847   4047858.65245  22458675.1884                   22458674.1604
 -48093627.37948 -37431116.61746  21693293.2894                   21693289.3484
 11  8 15  2 40  0.0000000  0  8G12G10G25G26G05G15G29G02
 -28904621.78148 -22241567.16446  21594179.3524                   21594177.4224
 -28496916.05147 -22165437.21943  23715133.0634                   23715131.9734
 -11274107.30148  -8773463.56646  21597920.0634   21597920.0824   17171190.03146
  13417534.15644                  23602007.5944                   23602007.4614
 -28734804.57048 -22333248.01247  20424610.7814                   20424609.1524
  28735578.05146  22437292.55143  24526936.1254                   24526936.0434
   4980565.73447   3914135.95745  22426019.0634                   22426017.7274
 -48144903.37548 -37471071.93746  21683535.6884                   21683532.0084
 11  8 15  2 40 30.0000000  0  8G12G10G25G26G05G15G29G02
 -28929216.94948 -22260732.22746  21589499.0314                   21589496.9144
 -28482708.56246 -22154366.43443  23717837.3984                   23717835.8444
 -11359305.07848  -8839851.44546  21581707.3914   21581708.1564   16985398.85547
  13272761.88344                  23566653.8284                   23566653.0274
 -28796624.18448 -22381419.13347  20412847.5554                   20412845.0204
  28550166.76246  22292816.35544  24491653.5164                   24491653.4344
   4809057.64547   3780493.34045  22393381.8754                   22393380.5664
 -48196083.58648 -37510952.62946  21673796.5314                   21673792.6644
 11  8 15  2 41  0.0000000  0  8G12G10G25G26G05G15G29G02
 -28953402.73848 -22279578.30146  21584896.6484                   21584894.5164
 -28468353.23447 -22143180.44943  23720568.9694                   23720567.3094
 -11443926.34848  -8905790.09446  21565604.3984   21565605.2344   16799699.25047
  13128060.95344                  23531314.9384                   23531315.1764
 -28857933.18048 -22429192.37147  20401180.2734                   20401178.1484
  28364647.21547  22148255.80544  24456350.9144                   24456350.4224
   4637652.20347   3646930.70745  22360764.3914                   22360763.0904
 -48247170.14848 -37550760.32046  21664075.1804                   21664071.4144
 11  8 15  2 41 30.0000000  0  8G12G10G25G26G05G15G29G02
 -28977178.66448 -22298104.99246  21580372.2504                   21580369.9414
 -28453849.78146 -22131879.03143  23723328.6414                   23723327.3324
 -11527968.93448  -8971277.83246  21549611.4614   21549612.0744   16614097.78147
  12983436.47744                  23495997.0634                   23495996.6994
 -28918730.27348 -22476566.72747  20389611.1564                   20389609.2894
  28179024.91447  22003615.19944  24421028.1644                   24421027.7504
   4466354.43047   3513451.98045  22328167.5944                   22328166.3914
 -48298160.25847 -37590492.87545  21654371.8444                   21654368.4844
 11  8 15  2 42  0.0000000  0  8G12G10G25G26G05G15G29G02
 -29000548.90248 -22316315.57446  21575924.9614                   21575923.2194
 -28439202.50446 -22120465.55943  23726116.3134                   23726114.5904
 -11611435.24248  -9036316.52346  21533728.4224   21533729.4574   16428596.32447
  12838889.95344                  23460697.8284                   23460696.9494
 -28979019.12148 -22523545.05147  20378138.5004                   20378136.7074
  27993300.70347  21858895.15244  24385685.6884                   24385684.6954
   4295164.39147   3380057.19545  22295591.1094                   22295590.0314
 -48349055.86347 -37630151.77345  21644687.0164                   21644682.9104
 11  8 15  2 42 30.0000000  0  8G12G10G25G26G05G15G29G02
 -29023517.18448 -22334212.94546  21571554.4384                   21571552.4224
 -28424415.12146 -22108942.96143  23728930.2344                   23728929.2384
 -11694326.89148  -9100907.42246  21517954.9534   21517955.3674   16243197.44147
  12694423.33644                  23425417.4064                   23425416.1644
 -29038802.14548 -22570129.21947  20366762.0864                   20366760.1374
  27807476.05947  21714096.86744  24350324.1884                   24350323.6454
   4124083.14147   3246747.19945  22263035.5784                   22263034.5474
 -48399857.78148 -37669737.66846  21635019.5634                   21635016.1254
 11  8 15  2 43  0.0000000  0  8G12G10G25G26G05G15G29G02
 -29046084.00448 -22351797.48446  21567260.2734                   21567258.3594
 -28409487.86747 -22097311.33643  23731770.7734                   23731770.1484
 -11776642.42248  -9165049.39846  21502290.8834   21502291.6214   16057906.86747
  12550041.10244                  23390157.5004                   23390155.9574
 -29098079.04348 -22616319.01247  20355482.3444                   20355480.0664
  27621555.82846  21569224.09844  24314944.0474                   24314944.0784
   3953114.99647   3113525.32845  22230501.2194                   22230500.0204
 -48450564.03548 -37709249.02746  21625370.6564                   21625366.1024
 11  8 15  2 43 30.0000000  0  8G12G10G25G26G05G15G29G02
 -29068252.89848 -22369071.94546  21563041.6094                   21563039.8524
 -28394424.19547 -22085573.43043  23734636.6414                   23734636.2274
 -11858383.63348  -9228743.85946  21486735.8524   21486736.2234   15872726.96947
  12405745.11744                  23354919.6094                   23354917.1954
 -29156852.54348 -22662116.54747  20344297.9534                   20344295.6884
  27435541.75846  21424278.19544  24279546.7894                   24279547.2274
   3782260.75047   2980392.21145  22197988.7734                   22197987.1954
 -48501176.05148 -37748686.95745  21615739.1954                   21615735.7734
 11  8 15  2 44  0.0000000  0  8G12G10G25G26G05G15G29G02
 -29090024.87147 -22386037.12946  21558898.8754                   21558896.1454
 -28379225.10947 -22073729.99644  23737529.2344                   23737528.7194
 -11939549.78148  -9291990.22346  21471290.4774   21471291.1564   15687663.12147
  12261539.54744                  23319702.5474                   23319700.8484
 -29215122.95348 -22707522.06247  20333209.4844                   20333207.2234
  27249438.10546  21279262.50844  24244132.1174                   24244132.3554
   3611524.12547   2847350.73845  22165498.5164                   22165497.0354
 -48551691.99648 -37788050.01246  21606126.2814                   21606122.4304
 11  8 15  2 44 30.0000000  0  8G12G10G25G26G05G15G29G02
 -27535981.45348 -21175094.21146  21854623.0784                   21854620.8364
 -26788473.33247 -20834183.17643  24040240.1254                   24040237.7894
 -10444718.43448  -8127186.57846  21755747.3984   21755747.8364   17078145.54347
  13345032.39544                  23584302.6484                   23584300.9884
 -27697469.30947 -21524934.80547  20622009.3914                   20622006.9804
  28638674.21146  22361784.26643  24508495.2034                   24508495.2114
   5016333.39848   3942007.37945  22432824.4924                   22432823.4574
 -47026689.71948 -36599736.53946  21896325.0004                   21896320.9804
 11  8 15  2 45  0.0000000  0  8G12G10G25G26G05G15G29G02
 -27556966.01248 -21191445.82446  21850630.0784                   21850627.9344
 -26773009.78547 -20822133.68744  24043182.2344                   24043181.2304
 -10524734.85948  -8189537.05146  21740520.4924   21740521.2774   16893326.64147
  13201017.70344                  23549132.5944                   23549131.2544
 -27754736.58648 -21569558.66447  20611112.0314                   20611109.6914
  28452400.97346  22216636.39143  24473048.5864                   24473048.1604
   4845840.07048   3809155.50845  22400380.9304                   22400379.5984
 -47077011.58248 -36638948.36745  21886748.5554                   21886745.3054
 11  8 15  2 45 30.0000000  0  8G12G10G25G26G05G15G29G02
 -27577567.66448 -21207499.06246  21846709.2114                   21846707.2664
 -26757424.57447 -20809989.36743  24046148.5004                   24046146.5354
 -10604184.44148  -8251445.81246  21725402.1254   21725402.3404   16708628.90247
  13057097.44544                  23513985.1024                   23513985.0474
 -27811511.77748 -21613799.06646  20600308.0164                   20600305.4414
  28266040.51246  22071420.54743  24437584.7814                   24437585.1294
   4675464.46947   3676395.37145  22367959.4534                   22367958.2464
 -47127243.33648 -36678089.98045  21877190.2274                   21877186.2894
 11  8 15  2 46  0.0000000  0  8G12G10G25G26G05G15G29G02
 -27597783.09448 -21223251.35246  21842862.1254                   21842860.4534
 -26741714.59847 -20797747.87943  24049137.2584                   24049136.5704
 -10683062.59048  -8312909.30946  21710391.8594   21710392.7774   16524061.10947
  12913278.43844                  23478863.8444                   23478862.6804
 -27867791.34448 -21657653.27747  20589598.3754                   20589596.1524
  28079600.46146  21926142.69943  24402106.5394                   24402105.8954
   4505214.26247   3543732.92245  22335562.0004                   22335560.4344
 -47177379.47347 -36717157.08645  21867649.4304                   21867645.6024
 11  8 15  2 46 30.0000000  0  8G12G10G25G26G05G15G29G02
 -27617615.79348 -21238705.39846  21839088.7974                   21839086.6804
 -26725882.59846 -20785411.25043  24052150.0474                   24052148.8244
 -10761370.34448  -8373928.34046  21695490.5004   21695491.2154   16339626.89847
  12769563.50444                  23443766.8284                   23443765.5784
 -27923577.17648 -21701122.75447  20578982.7584                   20578980.2234
  27893083.76246  21780805.14143  24366614.0004                   24366612.8364
   4335091.48847   3411169.80545  22303188.7274                   22303187.4024
 -47227420.28547 -36756149.91045  21858126.4614                   21858123.3014
 11  8 15  2 47  0.0000000  0  8G12G10G25G26G05G15G29G02
 -27637070.49247 -21253864.91046  21835386.5084                   21835384.3324
 -26709933.22746 -20772983.19143  24055185.0784                   24055183.5634
 -10839110.81648  -8434505.32046  21680697.1094   21680697.7274   16155327.74647
  12625953.82044                  23408695.9144                   23408694.9534
 -27978873.09448 -21744210.47747  20568460.1564                   20568457.9654
  27706491.03546  21635408.30543  24331106.7894                   24331105.3284
   4165095.97347   3278705.83245  22270839.6024                   22270837.9774
 -47277367.62147 -36795069.89845  21848622.1174                   21848618.3164
 11  8 15  2 47 30.0000000  0  8G12G10G25G26G05G15G29G02
 -27656146.50048 -21268729.34046  21831756.4224                   21831754.6994
 -26693866.01246 -20760463.29743  24058242.8754                   24058241.6134
 -10916281.94148  -8494638.66046  21666011.8364   21666012.6174   15971170.37146
  12482454.60244                  23373650.8364                   23373650.3094
 -28033678.21148 -21786915.77046  20558031.1414                   20558028.7894
  27519827.53546  21489956.32443  24295585.2814                   24295585.2114
   3995232.61347   3146344.84045  22238515.1724                   22238514.4264
 -47327218.73848 -36833914.91845  21839136.0554                   21839132.1454
 11  8 15  2 48  0.0000000  0  8G12G10G25G26G05G15G29G02
 -27674847.88348 -21283301.84846  21828197.9224                   21828195.9104
 -26677684.52746 -20747854.38343  24061321.9534                   24061320.9304
 -10992885.52748  -8554329.75046  21651434.5634   21651435.2424   15787157.80947
  12339068.23044                  23338635.3674                   23338634.2234
 -28087995.27048 -21829240.73846  20547694.5474                   20547692.2664
  27333095.41447  21344450.87543  24260051.6804                   24260050.9924
   3825502.85547   3014087.95745  22206216.5394                   22206215.6374
 -47376974.48447 -36872685.61345  21829667.7424                   21829663.9574
 11  8 15  2 48 30.0000000  0  8G12G10G25G26G05G15G29G02
 -27693179.68047 -21297586.35946  21824709.2974                   21824706.9574
 -26661393.50846 -20735160.12543  24064421.5004                   24064420.9694
 -11068925.13348  -8613581.37546  21636964.9144   21636965.5984   15603290.63347
  12195795.19944                  23303646.5234                   23303645.5234
 -28141828.41448 -21871188.63747  20537450.6644                   20537448.5664
  27146294.80147  21198892.08244  24224504.3054                   24224503.9384
   3655906.11747   2881934.72345  22173943.9304                   22173942.2074
 -47426637.52347 -36911384.06245  21820216.7814                   21820213.2234
 11  8 15  2 49  0.0000000  0  8G12G10G25G26G05G15G29G02
 -27711144.27747 -21311584.74246  21821290.5234                   21821288.6254
 -26644995.17246 -20722382.23443  24067542.1174                   24067541.4734
 -11144401.29748  -8672393.94946  21622602.2424   21622602.7734   15419573.53947
  12052639.05944                  23268686.1954                   23268685.7464
 -28195179.03548 -21912760.54346  20527298.8914                   20527296.2074
  26959428.91447  21053282.39844  24188945.2274                   24188943.9964
   3486445.12947   2749887.27045  22141696.3524                   22141694.8834
 -47476206.98847 -36950009.60945  21810784.3204                   21810780.6374
 11  8 15  2 49 30.0000000  0  8G12G10G25G26G05G15G29G02
 -27728743.60247 -21325298.50046  21817941.8984                   21817939.7304
 -26628491.44546 -20709522.25443  24070682.3914                   24070681.9694
 -11219314.39548  -8730767.77346  21608346.5864   21608347.0744   15236010.49647
  11909602.96144                  23233754.7734                   23233755.1254
 -28248048.59848 -21953957.60546  20517237.8284                   20517235.3834
  26772501.40647  20907624.69944  24153374.0944                   24153373.1644
   3317122.46947   2617947.58245  22109474.8674                   22109473.5314
 -47525682.47748 -36988561.92645  21801369.8284                   21801365.5984
 11  8 15  2 50  0.0000000  0  8G12G10G25G26G05G15G29G02
 -27745982.54347 -21338731.43446  21814661.4064                   21814659.3484
 -26611886.63746 -20696583.49243  24073843.0474                   24073841.9804
 -11293667.56648  -8788705.28946  21594197.2974   21594198.1724   15052603.36747
  11766688.36744                  23198853.0864                   23198853.0084
 -28300441.32848 -21994783.09446  20507267.5164                   20507265.5004
  26585512.73047  20761919.37944  24117791.4534                   24117790.3014
   3147938.38747   2486115.88345  22077280.2344                   22077279.3014
 -47575065.76648 -37027042.38745  21791972.0084                   21791968.0084
 11  8 15  2 50 30.0000000  0  8G12G10G25G26G05G15G29G02
 -27762861.50447 -21351883.87546  21811449.2504                   21811447.2074
 -26595181.37546 -20683566.45343  24077021.8524                   24077021.1524
 -11367460.00048  -8846205.86746  21580155.6094   21580156.3324   14869357.51647
  11623899.42244                  23163983.8364                   23163982.5784
 -28352356.80948 -22035236.70346  20497388.7274                   20497386.2074
  26398467.60947  20616170.07844  24082197.2194                   24082196.2704
   2978896.89847   2354395.30145  22045112.9144                   22045110.9574
 -47624354.89148 -37065449.47745  21782592.8594                   21782588.7234
 11  8 15  2 51  0.0000000  0  8G12G10G25G26G05G15G29G02
 -27779383.65248 -21364758.27346  21808305.6724                   21808303.0394
 -26578377.65246 -20670472.70743  24080219.8524                   24080219.0164
 -11440692.35948  -8903270.02046  21566219.7734   21566219.8444   14686277.16847
  11481239.43844                  23129144.6724                   23129143.2584
 -28403796.66848 -22075319.70346  20487600.2274                   20487597.4024
  26211369.33647  20470379.36744  24046593.6334                   24046593.2664
   2810000.24647   2222787.57046  22012973.2344                   22012971.4104
 -47673549.71948 -37103783.09045  21773231.2664                   21773227.2734
 11  8 15  2 51 30.0000000  0  8G12G10G25G26G05G15G29G02
 -27795552.90247 -21377357.68746  21805228.3594                   21805226.5704
 -26561479.39546 -20657305.27043  24083435.5784                   24083434.6764
 -11513367.23848  -8959899.77046  21552390.0394   21552390.6174   14503364.59447
  11338710.19144                  23094337.6644                   23094336.0004
 -28454764.05548 -22115034.53946  20477900.5554                   20477898.3674
  26024219.58646  20324548.53544  24010980.6954                   24010979.9734
   2641249.70747   2091293.70346  21980860.8984                   21980859.4454
 -47722651.33247 -37142044.07045  21763887.4064                   21763883.0904
 11  8 15  2 52  0.0000000  0  8G12G10G25G26G05G15G29G02
 -27811370.00047 -21389682.69546  21802218.4774                   21802216.3594
 -26544487.06246 -20644064.52343  24086669.0864                   24086667.5514
 -11585483.92248  -9016094.57046  21538666.6024   21538667.5864   14320625.34447
  11196315.98444                  23059562.9614                   23059562.1764
 -28505259.37147 -22154381.52746  20468292.1174                   20468289.7384
  25837022.27746  20178680.64844  23975357.4304                   23975356.9064
   2472648.92247   1959916.52745  21948777.2814                   21948775.4384
 -47771657.98447 -37180231.03945  21754561.7274                   21754557.8834
 11  8 15  2 52 30.0000000  0  8G12G10G25G26G05G15G29G02
 -27826838.32447 -21401735.93446  21799274.9224                   21799272.6844
 -26527403.47746 -20630752.70743  24089919.9144                   24089919.1334
 -11657043.93448  -9071855.60546  21525049.5944   21525049.9104   14138062.70747
  11054059.42244                  23024822.4844                   23024821.8404
 -28555284.86747 -22193362.43046  20458772.4454                   20458770.2384
  25649780.06646  20032777.82844  23939726.1804                   23939725.1604
   2304199.88747   1828657.59045  21916722.4844                   21916720.4964
 -47820569.68747 -37218344.03945  21745254.0784                   21745250.0984
 11  8 15  2 53  0.0000000  0  8G12G10G25G26G05G15G29G02
 -27841963.15647 -21413521.52046  21796396.5784                   21796394.9224
 -26510234.03146 -20617373.94943  24093187.3054                   24093185.8324
 -11728051.35248  -9127186.05146  21511537.0554   21511537.3984   13955677.71947
  10911941.27344                  22990115.5084                   22990114.5824
 -28604845.64848 -22231981.19946  20449341.2814                   20449339.1174
  25462493.33646  19886840.23444  23904087.0474                   23904085.7154
   2135901.78147   1697516.27045  21884696.2194                   21884694.0124
 -47869389.28548 -37256385.26645  21735963.9844                   21735959.6844
 11  8 15  2 53 30.0000000  0  8G12G10G25G26G05G15G29G02
 -26281326.96947 -20197441.37146  22093375.9454                   22093373.7814
 -24917561.34846 -19376330.41843  24396263.2034                   24396262.2274
 -10223084.84048  -7954484.86346  21797922.6024   21797923.3244   15348900.17647
  11997569.19144                  23255237.0784                   23255235.9414
 -27078521.55548 -21042637.73846  20739791.3834                   20739788.9024
  26850591.00046  20968474.88743  24168232.6024                   24168231.1024
   3543182.79347   2794098.92246  22152492.9454                   22152491.1994
 -46342694.74247 -36066753.13745  22026484.2894                   22026480.1954
 11  8 15  2 54  0.0000000  0  8G12G10G25G26G05G15G29G02
 -26295769.96548 -20208695.66446  22090627.3674                   22090625.3284
 -24900223.17646 -19362820.20343  24399561.9224                   24399560.6174
 -10292987.03148  -8008954.09846  21784620.5554   21784621.5004   15166885.16847
  11855739.31344                  23220601.2114                   23220599.6844
 -27127154.30148 -21080533.36746  20730536.5164                   20730534.0984
  26663226.78546  20822476.89543  24132578.1564                   24132576.9774
   3375197.30147   2663201.19146  22120526.2504                   22120524.5864
 -46391326.12947 -36104647.70345  22017230.2034                   22017226.4184
 11  8 15  2 54 30.0000000  0  8G12G10G25G26G05G15G29G02
 -26309877.39148 -20219688.46546  22087942.4924                   22087940.7464
 -24882805.52046 -19349248.04343  24402876.1024                   24402875.0824
 -10362339.64848  -8062995.09846  21771423.3054   21771424.0434   14985059.53547
  11714057.03544                  23186000.2734                   23186000.1884
 -27175327.62148 -21118071.00046  20721369.6804                   20721367.2344
  26475827.22346  20676451.35543  24096917.4454                   24096915.7734
   3207369.92647   2532426.66446  22088589.6564                   22088588.0594
 -46439864.40648 -36142469.72745  22007993.3674                   22007990.1094
 11  8 15  2 55  0.0000000  0  8G12G10G25G26G05G15G29G02
 -26323651.47348 -20230421.50445  22085321.8284                   22085319.8404
 -24865310.38346 -19335615.53543  24406206.1804                   24406204.8524
 -10431143.56248  -8116608.52746  21758330.5084   21758331.3554   14803427.54347
  11572525.62144                  23151437.4614                   23151436.3954
 -27223042.80148 -21155251.64546  20712289.6954                   20712287.2424
  26288395.19947  20530400.47343  24061250.5084                   24061248.3984
   3039703.54747   2401777.59446  22056683.5784                   22056682.0044
 -46488309.10547 -36180218.82845  21998775.0554                   21998771.3914
 11  8 15  2 55 30.0000000  0  8G12G10G25G26G05G15G29G02
 -26337093.31248 -20240895.66846  22082763.5944                   22082762.1914
 -24847738.08646 -19321922.90242  24409549.6254                   24409549.2384
 -10499398.26648  -8169794.01246  21745342.2034   21745342.6214   14621994.69547
  11431149.36344                  23116911.9144                   23116910.5744
 -27270299.84848 -21192075.29746  20703297.0164                   20703294.6644
  26100935.69547  20384328.19944  24025578.4224                   24025575.8834
   2872202.21947   2271257.12946  22024809.1564                   22024807.3634
 -46536658.34447 -36217893.53545  21989574.1724                   21989570.3714
 11  8 15  2 56  0.0000000  0  8G12G10G25G26G05G15G29G02
 -26350207.68048 -20251114.66045  22080268.2664                   22080266.0004
 -24830093.10546 -19308173.69542  24412908.0784                   24412907.7234
 -10567107.03948  -8222554.09846  21732457.3134   21732457.7234   14440762.68447
  11289929.61744                  23082424.4534                   23082423.5474
 -27317102.98048 -21228545.26246  20694390.8134                   20694388.4104
  25913449.74647  20238235.31644  23989900.9694                   23989899.1134
   2704866.21548   2140865.49246  21992966.1174                   21992964.7584
 -46584913.68748 -36255495.08645  21980391.4844                   21980387.3324
 11  8 15  2 56 30.0000000  0  8G12G10G25G26G05G15G29G02
 -26362999.23448 -20261082.09845  22077834.0084                   22077832.0234
 -24812379.42546 -19294370.87242  24416278.1484                   24416277.8404
 -10634272.94148  -8274891.15646  21719676.1724   21719676.6174   14259733.73847
  11148868.08644                  23047976.1174                   23047974.8674
 -27363456.06248 -21264664.52346  20685569.9774                   20685567.5124
  25725938.50047  20092122.72744  23954218.6564                   23954217.2274
   2537695.93047   2010602.99246  21961154.7974                   21961153.4414
 -46633076.92248 -36293024.86745  21971226.0084                   21971222.7304
 11  8 15  2 57  0.0000000  0  8G12G10G25G26G05G15G29G02
 -26375470.08648 -20270799.65245  22075461.2584                   22075458.8754
 -24794598.28946 -19280515.52342  24419661.8444                   24419661.5314
 -10700896.39548  -8326805.53546  21706998.1644   21706998.7304   14078912.69947
  11007968.59044                  23013566.4694                   23013565.8524
 -27409360.09048 -21300433.88346  20676834.8674                   20676832.3594
  25538405.67647  19945993.28544  23918531.8134                   23918530.7894
   2370694.66847   1880472.19546  21929375.8134                   21929373.7814
 -46681146.59847 -36330481.74245  21962078.7274                   21962074.7624
 11  8 15  2 57 30.0000000  0  9G12G10G25G26G05G15G29G21G02
 -26387623.36748 -20280269.73445  22073148.5234                   22073146.3444
 -24776752.85246 -19266610.03942  24423057.8204                   24423056.9064
 -10766979.46148  -8378298.83646  21694423.0234   21694423.3484   13898302.37147
  10867233.27344                  22979197.7424                   22979197.0594
 -27454817.67648 -21335855.37146  20668184.3524                   20668181.9614
  25350853.42646  19799848.72344  23882842.3674                   23882840.5164
   2203863.99648   1750474.32846  21897628.8284                   21897626.6644
  32865632.42616                  25172988.461
 -46729123.46548 -36367866.28945  21952948.9304                   21952944.9264
 11  8 15  2 58  0.0000000  0  9G12G10G25G26G05G15G29G21G02
 -26399460.87148 -20289493.76245  22070895.8754                   22070893.3954
 -24758844.02746 -19252655.14143  24426466.8754                   24426465.3054
 -10832522.49648  -8429371.33246  21681950.4384   21681951.3754   13717907.73047
  10726666.01644                  22944869.8364                   22944868.8874
 -27499829.98048 -21370929.87946  20659619.0314                   20659616.2304
  25163286.11346  19653692.37544  23847149.3284                   23847147.2034
   2037207.41447   1620612.09846  21865915.0474                   21865913.2074
  32717614.01246  25692654.14152  25144820.6024                   25144821.2074
 -46777006.27347 -36405177.55945  21943837.4064                   21943833.3324
 11  8 15  2 58 30.0000000  0  9G12G10G25G26G05G15G29G21G02
 -26410991.91448 -20298478.98445  22068701.6884                   22068699.2584
 -24740880.89846 -19238657.92643  24429884.4304                   24429883.2114
 -10897533.58248  -8480029.31246  21669579.4064   21669579.7504   13537725.87547
  10586264.59844                  22910582.1564                   22910581.2734
 -27544405.68748 -21405664.18746  20651136.2814                   20651134.0904
  24975699.46546  19507521.00844  23811452.3364                   23811451.1334
   1870720.30148   1490881.93846  21834233.4614                   21834231.5514
  32569606.34846  25577323.62142  25116656.0394                   25116656.7274
 -46824801.55547 -36442420.61345  21934742.1024                   21934738.5864
 11  8 15  2 59  0.0000000  0  9G12G10G25G26G05G15G29G21G02
 -26422220.20748 -20307228.30146  22066564.8594                   22066563.0204
 -24722866.07846 -19224620.42643  24433313.4844                   24433311.2154
 -10962014.37948  -8530274.09446  21657309.5474   21657309.7934   13357760.33247
  10446031.68044                  22876335.8204                   22876335.3754
 -27588547.11348 -21440060.09046  20642736.5394                   20642733.9654
  24788096.64846  19361337.00844  23775753.3134                   23775752.1214
   1704404.83248   1361285.52346  21802584.4774                   21802582.4024
  32421608.77746  25462000.95742  25088492.6804                   25088493.5474
 -46872508.98448 -36479595.21145  21925664.0314                   21925660.3794
 11  8 15  2 59 30.0000000  0  9G12G10G25G26G05G15G29G21G02
 -26433148.27048 -20315743.67646  22064485.2344                   22064483.4574
 -24704801.83646 -19210544.46943  24436750.3284                   24436748.3244
 -11025966.64548  -8580107.02346  21645139.3284   21645139.8204   13178014.67247
  10305970.12544                  22842131.5864                   22842131.0274
 -27632256.59048 -21474119.41846  20634418.9224                   20634416.4924
  24600480.25046  19215142.43444  23740050.0554                   23740049.2304
   1538263.26648   1231824.60946  21770968.8364                   21770966.7854
  32273620.51246  25346685.52742  25060331.2664                   25060331.7464
 -46920128.85947 -36516701.57845  21916601.8834                   21916598.1604
 11  8 15  3  0  0.0000000  0  9G12G10G25G26G05G15G29G21G02
 -26443776.13748 -20324025.13346  22062463.1724                   22062461.0904
 -24686687.29746 -19196429.30543  24440197.2814                   24440196.3404
 -11089388.65248  -8629526.76246  21633070.5394   21633071.2304   12998495.96547
  10166085.43044                  22807970.1954                   22807969.4884
 -27675533.25048 -21507841.47746  20626183.5944                   20626181.1884
  24412856.46146  19068942.12944  23704346.9304                   23704345.5204
   1372300.94148   1102503.37146  21739387.2274                   21739385.5164
  32125644.41446  25231379.62543  25032173.0864                   25032173.0594
 -46967657.81248 -36553737.09845  21907557.7424                   21907554.1914
 11  8 15  3  0 30.0000000  0  9G12G10G25G26G05G15G29G21G02
 -26454104.41447 -20332073.14845  22060497.7424                   22060495.6524
 -24668522.76646 -19182275.04743  24443654.0314                   24443652.0514
 -11152279.80548  -8678532.84046  21621102.9454   21621103.1764   12819209.93847
  10026382.02044                  22773853.5944                   22773852.2234
 -27718376.92648 -21541226.15246  20618030.6724                   20618028.3834
  24225230.27046  18922739.98044  23668642.1884                   23668641.0004
   1206522.27047    973325.23846  21707840.6174                   21707838.8404
  31977682.03546  25116084.38742  25004015.9774                   25004016.3094
 -47015093.29748 -36590699.78945  21898531.1414                   21898527.2814
 11  8 15  3  1  0.0000000  0  9G12G10G25G26G05G15G29G21G02
 -26464136.26247 -20339890.16845  22058588.6804                   22058586.3594
 -24650310.74246 -19168083.96543  24447119.9454                   24447118.8164
 -11214642.09048  -8727126.82846  21609235.3914   21609235.8444   12640160.06647
   9886862.64544                  22739781.2424                   22739780.4804
 -27760789.71148 -21574275.07846  20609959.7664                   20609957.3874
  24037604.59846  18776538.22344  23632938.8984                   23632937.6414
   1040929.34048    844291.83646  21676329.0084                   21676327.5274
  31829732.61746  25000799.21543  24975861.8594                   24975862.9184
 -47062435.79348 -36627590.00845  21889521.9304                   21889518.1604
 11  8 15  3  1 30.0000000  0  9G12G10G25G26G05G15G29G21G02
 -26473876.85947 -20347480.24246  22056735.0004                   22056732.6604
 -24632055.66846 -19153859.26243  24450592.9304                   24450592.5704
 -11276479.39548  -8775311.73446  21597468.5164   21597469.1294   12461347.80547
   9747528.42244                  22705754.2814                   22705753.1414
 -27802776.39848 -21606991.97746  20601969.8594                   20601967.5434
  23849979.70346  18630337.06644  23597234.9304                   23597233.7504
    875521.57048    715402.71546  21644853.1484                   21644851.2624
  31681793.22746  24885521.93043  24947710.2664                   24947709.6174
 -47109687.24248 -36664409.29745  21880530.3444                   21880526.6954
 11  8 15  3  2  0.0000000  0  8G12G25G26G05G15G29G21G02
 -24907907.07047 -19127244.05146  22354729.1954                   22354727.0204
  -9762369.45748  -7595485.79746  21885593.8674   21885594.1884   13858204.76247
  10835988.41044                  22971567.3444                   22971566.4694
 -26268916.15248 -20411776.20346  20893854.1254                   20893851.4184
  25237786.86347  19711745.30144  23861325.6094                   23861324.5944
   2285728.99647   1814265.69146  21913206.2814                   21913204.2704
  33109290.18846  25997857.33643  25219353.6484                   25219353.7384
 -45581424.16048 -35473554.89845  22171349.3524                   22171345.2934
 11  8 15  3  2 30.0000000  0  8G12G25G26G05G15G29G21G02
 -24917066.33247 -19134381.14845  22352986.2194                   22352984.0824
  -9823153.93448  -7642850.31646  21874027.0394   21874027.3524   13679886.91047
  10697039.45344                  22937634.2114                   22937633.7894
 -26310049.66448 -20443828.28946  20886026.4844                   20886023.9884
  25050180.75447  19565558.77744  23825625.1954                   23825623.6254
   2120707.05147   1685677.21146  21881803.7584                   21881802.1294
  32961377.38346  25882600.73843  25191205.5394                   25191205.9804
 -45628485.16847 -35510225.77345  22162393.4304                   22162389.7194
 11  8 15  3  3  0.0000000  0  8G12G25G26G05G15G29G21G02
 -24925938.25047 -19141294.32445  22351297.7194                   22351295.8674
  -9883413.16848  -7689805.55546  21862559.9304   21862560.6214   13501822.93047
  10558288.34444                  22903749.7274                   22903749.1844
 -26350758.62548 -20475549.55946  20878279.7974                   20878277.4414
  24862589.36746  19419383.71944  23789928.5864                   23789926.5634
   1955882.85548   1557242.82446  21850438.9774                   21850437.0664
  32813478.47346  25767354.93042  25163061.8444                   25163062.1454
 -45675449.42648 -35546821.25045  22153456.7584                   22153452.8914
 11  8 15  3  3 30.0000000  0  8G12G25G26G05G15G29G21G02
 -24934525.07447 -19147985.36745  22349663.4844                   22349662.0554
  -9943148.37948  -7736352.46146  21851192.7504   21851193.4844   13324017.31647
  10419738.55144                  22869914.9844                   22869913.2664
 -26391044.30548 -20506941.00046  20870613.6174                   20870611.2974
  24675016.43847  19273223.05144  23754234.0004                   23754232.1804
   1791259.16048   1428964.67646  21819111.9924                   21819110.2034
  32665593.19546  25652119.79342  25134920.6484                   25134920.6294
 -45722316.04748 -35583340.65245  22144538.0234                   22144534.0274
 11  8 15  3  4  0.0000000  0  8G12G25G26G05G15G29G21G02
 -24942829.10547 -19154456.05145  22348083.8204                   22348081.3754
 -10002360.78148  -7782491.98446  21839924.9534   21839925.6604   13146474.35947
  10281393.40244                  22836129.3444                   22836128.0634
 -26430908.64848 -20538004.13346  20863027.6644                   20863025.0634
  24487465.38346  19127079.43844  23718543.6254                   23718542.6134
   1626838.46148   1300844.69546  21787823.7274                   21787821.8014
  32517721.92646  25536895.55942  25106781.3834                   25106781.4384
 -45769084.29348 -35619783.39545  22135638.8054                   22135634.3874
 11  8 15  3  4 30.0000000  0  8G12G25G26G05G15G29G21G02
 -24950849.95347 -19160706.06245  22346557.1414                   22346555.3954
 -10061048.58248  -7828222.72346  21828757.1644   21828757.3134   12969201.32447
  10143258.63744                  22802395.7344                   22802394.1914
 -26470350.40648 -20568737.97746  20855522.2584                   20855519.7384
  24299942.84047  18980958.04344  23682859.8054                   23682857.4454
   1462626.91448   1172887.69946  21756575.5004                   21756573.5164
  32369867.35346  25421684.35743  25078645.6484                   25078645.2424
 -45815750.82848 -35656146.88345  22126758.1414                   22126754.1374
 11  8 15  3  5  0.0000000  0  8G12G25G26G05G15G29G21G02
 -24958595.48047 -19166741.54745  22345083.1414                   22345080.9884
 -10119218.61348  -7873550.01646  21817687.2194   21817688.3164   12792197.00047
  10005333.27044                  22768712.2194                   22768711.3404
 -26509376.88348 -20599148.21946  20848095.7814                   20848093.4884
  24112446.79346  18834857.26644  23647180.2274                   23647178.3714
   1298621.68448   1045091.45346  21725365.9534                   21725364.2934
  32222024.27746  25306482.07843  25050512.2894                   25050511.6294
 -45862320.12947 -35692434.59845  22117896.1094                   22117892.0044
 11  8 15  3  5 30.0000000  0  8G12G25G26G05G15G29G21G02
 -24966068.25847 -19172564.50045  22343661.5944                   22343659.1684
 -10176872.02748  -7918474.74646  21806716.5944   21806717.4694   12615465.63747
   9867620.59044                  22735081.7344                   22735080.5784
 -26547989.66848 -20629236.10546  20840748.0314                   20840745.7854
  23924980.78147  18688779.94944  23611506.3364                   23611504.7734
   1134825.71948    917458.28146  21694197.1644                   21694195.1334
  32074192.41446  25191288.53143  25022380.9064                   25022380.4964
 -45908791.48447 -35728646.00845  22109052.8284                   22109048.9774
 11  8 15  3  6  0.0000000  0  8G12G25G26G05G15G29G21G02
 -24973270.72347 -19178176.81245  22342290.9454                   22342288.2974
 -10234010.80548  -7962998.45346  21795843.2664   21795843.9024   12439010.64547
   9730123.27744                  22701503.0234                   22701501.6254
 -26586191.13748 -20659003.49246  20833478.7664                   20833475.7344
  23737547.64847  18542728.22344  23575839.1174                   23575837.4694
    971241.34048    789989.97346  21663067.7424                   21663066.0394
  31926371.36346  25076103.40643  24994250.8054                   24994250.0124
 -45955164.75047 -35764780.99645  22100228.5554                   22100224.1254
 11  8 15  3  6 30.0000000  0  8G12G25G26G05G15G29G21G02
 -24980210.76647 -19183584.64145  22340970.0234                   22340968.0704
 -10290640.76648  -8007125.69146  21785067.0084   21785067.8244   12262832.02347
   9592841.33244                  22667977.4844                   22667976.0864
 -26623987.69148 -20688455.35246  20826285.7664                   20826283.4654
  23550146.11347  18396701.11344  23540177.6954                   23540176.3284
    807866.85548    662685.22746  21631978.2344                   21631976.8634
  31778556.53946  24960923.12543  24966122.9614                   24966122.2074
 -46001443.85247 -35800842.59845  22091421.6724                   22091417.0904
 11  8 15  3  7  0.0000000  0  8G12G25G26G05G15G29G21G02
 -24986887.80147 -19188787.53545  22339699.2034                   22339697.6724
 -10346760.42648  -8050855.27346  21774388.0554   21774388.6174   12086936.57447
   9455780.00045                  22634506.0234                   22634504.9534
 -26661378.35948 -20717590.93446  20819170.9144                   20819168.4104
  23362782.90247  18250703.88344  23504523.5704                   23504521.9804
    644707.78948    535548.33246  21600930.0864                   21600928.4344
  31630751.02346  24845750.10543  24937996.4844                   24937996.0354
 -46047624.98847 -35836827.87545  22082633.7034                   22082629.3204
 11  8 15  3  7 30.0000000  0  8G12G25G26G05G15G29G21G02
 -24993306.07847 -19193788.79745  22338478.1954                   22338476.1094
 -10402373.33648  -8094190.00846  21763805.1414   21763805.8204   11911326.61347
   9318941.13744                  22601088.4384                   22601086.7304
 -26698366.59448 -20746412.91846  20812132.3594                   20812129.8554
  23175459.07447  18104737.34044  23468876.7114                   23468875.7384
    481764.69948    408579.73846  21569923.3524                   21569921.4024
  31482952.43846  24730582.50043  24909870.0944                   24909870.5864
 -46093709.80547 -35872738.11345  22073864.0474                   22073859.8554
 11  8 15  3  8  0.0000000  0  8G12G25G26G05G15G29G21G02
 -24999468.55547 -19198590.71545  22337305.2894                   22337303.4384
 -10457481.06648  -8137131.09046  21753318.3284   21753319.0944   11736006.12147
   9182327.82845                  22567725.6564                   22567724.0394
 -26734954.72748 -20774923.15246  20805169.7734                   20805167.1884
  22988177.84447  17958803.98044  23433238.8444                   23433237.4774
    319040.48848    281781.69546  21538958.0164                   21538956.1054
  31335160.77346  24615420.25843  24881747.2734                   24881746.8634
 -46139697.36747 -35908572.56645  22065113.0314                   22065108.4384
 11  8 15  3  8 30.0000000  0  8G12G25G26G05G15G29G21G02
 -25005379.35547 -19203196.54745  22336180.5634                   22336178.5434
 -10512086.59448  -8179680.84046  21742927.2424   21742927.9454   11560977.65647
   9045942.05144                  22534419.5704                   22534417.8914
 -26771146.16048 -20803124.25846  20798282.8364                   20798280.6804
  22800941.84447  17812905.84444  23397609.5164                   23397607.5044
    156536.06348    155154.90646  21508034.3524                   21508032.3484
  31187374.42646  24500262.16043  24853623.0554                   24853623.3324
 -46185588.93047 -35944332.19945  22056379.8914                   22056376.0784
 11  8 15  3  9  0.0000000  0  8G12G25G26G05G15G29G21G02
 -25011041.83247 -19207608.87145  22335103.1484                   22335101.2464
 -10566192.40248  -8221841.19546  21732631.3364   21732631.6214   11386244.49647
   8909786.35945                  22501168.2894                   22501167.1914
 -26806943.42648 -20831018.22346  20791470.8984                   20791468.1214
  22613753.18447  17667044.59044  23361988.2194                   23361986.4964
     -5746.41848     28701.06646  21477152.6254                   21477150.9144
  31039592.28146  24385107.32843  24825502.4844                   24825502.3244
 -46231384.52047 -35980017.05945  22047665.4224                   22047661.3834
 11  8 15  3  9 30.0000000  0  8G12G25G26G05G15G29G21G02
 -25016458.05147 -19211829.31245  22334072.6804                   22334070.8634
 -10619799.54348  -8263612.98846  21722430.5704   21722430.8674   11211811.32847
   8773864.43045                  22467975.1564                   22467973.5204
 -26842348.12148 -20858606.28146  20784733.2664                   20784730.8954
  22426615.55547  17521223.10944  23326376.8984                   23326375.3284
   -167803.64148    -97577.24646  21446314.2814                   21446312.2854
  30891815.12946  24269956.38343  24797380.7274                   24797380.9344
 -46277082.99248 -36015626.24645  22038969.0164                   22038964.8954
 11  8 15  3 10  0.0000000  0  8G12G25G26G05G15G29G21G02
 -25021632.97347 -19215861.72745  22333088.2194                   22333085.7894
 -10672911.83248  -8304999.17646  21712323.2114   21712323.6334   11037679.90247
   8638177.61745                  22434838.9064                   22434837.3054
 -26877364.60948 -20885891.85246  20778070.3594                   20778067.3244
  22239530.52747  17375442.64545  23290775.9694                   23290774.3524
   -329635.36748   -223679.84846  21415518.9144                   21415516.8134
  30744040.17246  24154807.13343  24769259.9694                   24769259.6844
 -46322686.00848 -36051161.04345  22030291.3834                   22030287.1604
 11  8 15  3 10 30.0000000  0  8G12G25G26G05G15G29G21G02
 -23451146.89547 -17992106.34445  22631941.2274                   22631939.2774
  -9150107.09048  -7118398.07846  22002103.3204   22002103.9264   12439282.44947
   9730335.41845                  22701554.5164                   22701553.1484
 -25336571.05548 -19685273.48446  21071273.2274                   21071271.1844
  23627929.71547  18457312.17244  23554979.1484                   23554977.6174
   1084188.70748    878001.29346  21684560.2584                   21684558.5354
  32171694.49646  25267265.14142  25040933.6954                   25040933.1374
 -44792769.26648 -34859018.11745  22321424.6254                   22321420.3754
 11  8 15  3 11  0.0000000  0  8G12G25G26G05G15G29G21G02
 -23455842.76647 -17995765.48445  22631047.6884                   22631046.0784
  -9202230.41448  -7159013.64546  21992184.6644   21992185.2274   12265771.22347
   9595131.85545                  22668536.5084                   22668536.0864
 -25370812.06248 -19711954.77346  21064757.5164                   21064754.8674
  23440964.12147  18311624.76244  23519400.9694                   23519399.8164
    922820.53548    752259.90246  21653853.0554                   21653851.0164
  32023927.87946  25152122.41443  25012813.8054                   25012814.0784
 -44838175.35548 -34894399.46945  22312784.1484                   22312780.6334
 11  8 15  3 11 30.0000000  0  8G12G25G26G05G15G29G21G02
 -23460306.75047 -17999243.93045  22630198.1174                   22630196.2624
  -9253865.70748  -7199248.93746  21982358.9064   21982359.6134   12092572.03147
   9460171.44545                  22635578.2584                   22635576.9184
 -25404672.36348 -19738339.41446  21058313.8054                   21058311.3444
  23254059.28546  18165984.71144  23483833.5864                   23483832.2274
    761684.39548    626699.32446  21623190.1884                   21623188.1884
  31876161.53946  25036979.90243  24984695.4694                   24984694.7894
 -44883485.69548 -34929706.18745  22304162.2584                   22304157.3244
 11  8 15  3 12  0.0000000  0  8G12G25G26G05G15G29G21G02
 -23464538.77047 -18002541.62145  22629392.6174                   22629391.0904
  -9305011.30948  -7239102.65246  21972625.9924   21972626.5514   11919692.68447
   9325460.24645                  22602680.2344                   22602678.9844
 -25438150.65248 -19764426.39146  21051943.3134                   21051940.7974
  23067222.05947  18020397.28944  23448279.8524                   23448278.2154
    600786.06348    501324.05946  21592572.1334                   21592569.6094
  31728398.77046  24921840.19543  24956576.9454                   24956576.7274
 -44928696.41848 -34964935.30145  22295558.5944                   22295554.0744
 11  8 15  3 12 30.0000000  0  8G12G25G26G05G15G29G21G02
 -23468542.59847 -18005661.50045  22628631.3524                   22628629.1764
  -9355670.30548  -7278577.18746  21962985.7734   21962986.5784   11747135.69947
   9191000.24245                  22569843.6094                   22569842.5944
 -25471249.88348 -19790217.98446  21045644.5314                   21045642.1994
  22880454.61347  17874864.23444  23412739.7734                   23412737.3754
    440127.28948    376135.44146  21561999.4224                   21561997.3554
  31580638.09446  24806702.12943  24928458.9144                   24928459.1644
 -44973808.34448 -35000087.43045  22286974.6024                   22286970.0044
 11  8 15  3 13  0.0000000  0  8G12G25G26G05G15G29G21G02
 -23472320.03147 -18008604.98045  22627912.0474                   22627910.5744
  -9405843.59048  -7317673.26246  21953438.0704   21953438.7584   11574905.94947
   9056795.20345                  22537069.0864                   22537067.9494
 -25503971.74648 -19815715.53946  21039417.9844                   21039415.5634
  22693760.64546  17729388.43044  23377212.7344                   23377210.5824
    279711.63348    251136.28146  21531473.4694                   21531471.3554
  31432879.86346  24691565.94543  24900340.6564                   24900341.5354
 -45018819.99248 -35035161.43445  22278408.5944                   22278404.6884
 11  8 15  3 13 30.0000000  0  8G12G25G26G05G15G29G21G02
 -23475877.84847 -18011377.33245  22627235.8914                   22627233.4654
  -9455537.08248  -7356395.45746  21943981.7974   21943982.2504   11403003.39547
   8922845.14845                  22504357.3834                   22504356.2034
 -25536322.19147 -19840923.67246  21033261.4454                   21033259.6254
  22507140.21547  17583969.97744  23341699.7814                   23341698.3874
    119537.41048    126325.24646  21500993.2504                   21500991.1254
  31285119.86746  24576428.32843  24872224.3054                   24872223.3014
 -45063734.68048 -35070159.87545  22269861.9224                   22269857.3984
 11  8 15  3 14  0.0000000  0  8G12G25G26G05G15G29G21G02
 -23479217.06647 -18013979.32845  22626599.9384                   22626597.7664
  -9504751.08648  -7394744.03546  21934616.6174   21934617.2734   11231433.44947
   8789154.25445                  22471708.6954                   22471707.3364
 -25568301.72348 -19865842.78546  21027176.2274                   21027173.6484
  22320597.51647  17438612.06644  23306202.2424                   23306200.0554
    -40391.17648      1705.61746  21470559.7034                   21470557.9184
  31137359.56346  24461290.52043  24844105.8284                   24844104.7304
 -45108550.36348 -35105081.19145  22261333.4304                   22261329.0594
 11  8 15  3 14 30.0000000  0  8G12G25G26G05G15G29G21G02
 -23482341.02047 -18016413.58645  22626005.2664                   22626003.6094
  -9553487.96548  -7432720.82046  21925342.8204   21925343.0984   11060199.89547
   8655725.45745                  22439124.5864                   22439122.6954
 -25599912.71948 -19890474.71946  21021160.9534                   21021158.6644
  22134135.98447  17293317.39144  23270719.9844                   23270717.7114
   -200072.02048   -122720.96146  21440173.5704                   21440171.7974
  30989598.25846  24346151.94543  24815987.4224                   24815987.2894
 -45153267.11748 -35139925.39145  22252824.0394                   22252820.0784
 11  8 15  3 15  0.0000000  0  8G12G25G26G05G15G29G21G02
 -23485255.20747 -18018684.41045  22625451.0004                   22625448.6334
  -9601752.30548  -7470329.39846  21916158.2194   21916158.8164   10889303.67647
   8522559.55545                  22406603.8754                   22406602.5664
 -25631160.09848 -19914823.33246  21015214.8674                   21015212.5784
  21947756.23047  17148086.44544  23235253.0084                   23235250.6954
   -359504.88348   -246954.32046  21409834.2424                   21409832.5704
  30841833.25846  24231010.46943  24787869.0234                   24787868.8834
 -45197886.95348 -35174694.07845  22244333.0704                   22244329.0274
 11  8 15  3 15 30.0000000  0  8G12G25G26G05G15G29G21G02
 -23487960.96547 -18020792.80145  22624936.0704                   22624934.0864
  -9649544.52348  -7507570.09446  21907063.1024   21907064.2584   10718750.62947
   8389661.07445                  22374148.1804                   22374146.9734
 -25662044.57848 -19938889.15646  21009337.8204                   21009335.2274
  21761462.99247  17002922.92244  23199801.6094                   23199800.4574
   -518685.62948   -370991.21546  21379543.2274                   21379541.3244
  30694065.79746  24115867.09843  24759749.6884                   24759749.3484
 -45242408.03947 -35209385.84445  22235861.3834                   22235856.9964
 11  8 15  3 16  0.0000000  0  8G12G25G26G05G15G29G21G02
 -23490461.34047 -18022741.16445  22624460.5554                   22624458.3134
  -9696866.89148  -7544444.67646  21898058.5314   21898059.4224   10548544.09447
   8257032.60245                  22341759.3674                   22341758.3914
 -25692568.71948 -19962674.19146  21003529.0944                   21003526.3834
  21575259.36747  16857829.24245  23164369.4144                   23164367.2584
   -677612.27048   -494830.10946  21349300.6724                   21349298.4734
  30546294.96146  24000721.05943  24731629.8674                   24731629.4734
 -45286829.62548 -35244000.05545  22227407.6174                   22227404.2154
 11  8 15  3 16 30.0000000  0  8G12G25G26G05G15G29G21G02
 -23492760.14547 -18024532.44945  22624023.2424                   22624020.5274
  -9743722.64148  -7580955.64846  21889142.1024   21889142.6134   10378686.63747
   8124676.16845                  22309436.6024                   22309435.0274
 -25722735.44148 -19986180.72746  20997788.6024                   20997785.7114
  21389147.35947  16712806.92645  23128953.0084                   23128951.0824
   -836283.04348   -618469.64146  21319106.5704                   21319104.5234
  30398519.57446  23885571.50443  24703508.2424                   24703508.1294
 -45331152.46147 -35278537.33245  22218973.2664                   22218969.7384
 11  8 15  3 17  0.0000000  0  8G12G25G26G05G15G29G21G02
 -23494860.84447 -18026169.36745  22623623.2424                   22623620.9964
  -9790114.27048  -7617104.97746  21880314.2034   21880314.7734   10209182.02347
   7992594.66445                  22277180.9614                   22277179.9694
 -25752547.66448 -20009411.02746  20992115.7504                   20992112.9614
  21203129.63347  16567858.09445  23093555.1024                   23093553.4654
   -994695.95348   -741908.22346  21288961.5634                   21288959.2934
  30250738.97746  23770417.89843  24675387.3444                   24675386.2504
 -45375376.66847 -35312997.75045  22210558.1174                   22210554.2274
 11  8 15  3 17 30.0000000  0  8G12G25G26G05G15G29G21G02
 -23496762.90647 -18027651.51245  22623261.0634                   22623259.3324
  -9836040.52048  -7652891.65646  21871574.5704   21871574.8954   10040037.23447
   7860793.55945                  22244993.9224                   22244992.2624
 -25782004.27048 -20032364.21946  20986510.2424                   20986507.7624
  21017213.10547  16422988.12944  23058176.4224                   23058174.2894
  -1152845.14548   -865141.31646  21258866.7344                   21258864.6644
  30102956.06346  23655262.44943  24647265.2344                   24647264.0004
 -45419498.42248 -35347378.32045  22202162.1094                   22202157.5704
 11  8 15  3 18  0.0000000  0  8G12G25G26G05G15G29G21G02
 -23498471.86747 -18028983.19545  22622935.8284                   22622933.9304
  -9881506.14147  -7688319.42646  21862922.7114   21862923.4224
   9871253.31347   7729273.64545  22212875.3754                   22212873.8754
 -25811110.10948 -20055044.09446  20980971.7034                   20980969.1764
  20831398.38747  16278197.48445  23022817.0164                   23022814.8324
  -1310730.75448   -988169.02346  21228821.9304                   21228819.4654
  29955168.01246  23540103.03943  24619141.5474                   24619140.9804
 -45463519.67247 -35381680.58245  22193785.6414                   22193780.8794
 11  8 15  3 18 30.0000000  0  8G12G25G26G05G15G29G21G02
 -23499992.46147 -18030168.09445  22622646.5944                   22622644.5864
  -9926515.20348  -7723391.42646  21854357.9694   21854358.4494
   9702832.39847   7598036.61745  22180825.5164                   22180824.2974
 -25839869.14148 -20077453.71946  20975498.8134                   20975496.2194
  20645686.62947  16133487.07845  22987477.0394                   22987475.2154
  -1468352.00448  -1110990.75046  21198827.6884                   21198824.9454
  29807372.59046  23424937.86743  24591017.0944                   24591016.3954
 -45507442.09447 -35415905.83245  22185427.0234                   22185422.1454
 11  8 15  3 19  0.0000000  0  8G12G25G26G05G15G29G21G02
 -23501327.62547 -18031208.49245  22622393.1804                   22622390.4694
  -9971069.79748  -7758109.28946  21845879.4144   21845880.4454
   9534778.14847   7467085.30545  22148846.2974                   22148844.5044
 -25868283.76248 -20099594.96946  20970091.3134                   20970088.9884
  20460081.31347  15988859.60545  22952157.3364                   22952155.4454
  -1625706.27748  -1233604.43046  21168884.1724                   21168882.1414
  29659569.65646  23309766.83243  24562891.1174                   24562890.2034
 -45551265.01247 -35450053.55145  22177087.8134                   22177083.0784
 11  8 15  3 19 30.0000000  0  8G12G25G26G05G15G29G21G02
 -21927059.94147 -16804506.40645  22921965.5314                   22921963.5864
  -8439750.48048  -6564873.47746  22137279.5634   22137280.1844
  10942520.10247   8564027.14845  22416730.4384                   22416729.2234
 -24320935.26248 -18893868.85946  21264542.3444                   21264540.0084
  21850011.92247  17071922.48044  23216652.3444                   23216650.4534
   -207365.75048   -128403.98446  21438785.2424                   21438783.2544
  31087183.80146                  24422193.54343  24834557.0784   24834556.0274
 -44019566.41848 -34256522.15645  22468560.4384                   22468555.9144
 11  8 15  3 20  0.0000000  0  8G12G25G26G05G15G29G21G02
 -21928028.60947 -16805261.22745  22921781.1884                   22921778.8524
  -8483398.65648  -6598885.04746  22128973.8524   22128974.1804
  10775214.73447   8433659.37145  22384892.8914                   22384891.9964
 -24348663.58648 -18915475.32846  21259265.6334   21259263.5274   21664633.25447
  16927471.62544                  23181375.4774                   23181373.7584
   -364174.60548   -250592.67246  21408945.5784                   21408943.2234
  30939368.61346                  24307012.96943  24806428.5944   24806427.8404
 -44063184.87547 -34290510.55545  22460260.0784                   22460255.5554
 11  8 15  3 20 30.0000000  0  8G12G25G26G05G15G29G21G02
 -21928820.12147 -16805878.02345  22921630.8444                   22921628.9734
  -8526598.64848  -6632547.38746  22120753.0164   22120753.8674
  10608287.75047   8303586.46945  22353127.5474                   22353126.4224
 -24376053.91848 -18936818.44146  21254053.6884   21254050.6804   21479371.12147
  16783111.55944                  23146121.6174                   23146119.4024
   -520708.62148   -372567.20346  21379158.0864                   21379155.9384
  30791545.31646                  24191826.07443  24778298.4694   24778297.2584
 -44106701.82447 -34324419.85545  22451978.7034                   22451974.2664
 11  8 15  3 21  0.0000000  0  8G12G25G26G05G15G29G21G02
 -21929435.16047 -16806357.28945  22921514.2194                   22921511.9964
  -8569350.30148  -6665860.37146  22112617.4924   22112618.4264
  10441745.28947   8173813.17645  22321435.9384                   22321434.7734
 -24403106.09848 -18957898.05146  21248905.9694   21248902.9224   21294231.22747
  16638846.75444                  23110890.2504                   23110888.4964
   -676962.69148   -494323.60246  21349423.5084                   21349421.4414
  30643715.93446                  24076634.44943  24750167.7274   24750166.7704
 -44150114.66447 -34358248.01645  22443717.4694                   22443713.4534
 11  8 15  3 21 30.0000000  0  8G12G25G26G05G15G29G21G02
 -21929878.17247 -16806702.50045  22921429.8204                   22921427.6374
  -8611657.67648  -6698827.16846  22104567.1954   22104567.5164
  10275589.45747   8044341.15245  22289817.3754                   22289816.4964
 -24429824.32048 -18978717.44146  21243821.6564   21243819.0044   21109215.06647
  16494678.40244                  23075683.3914                   23075680.9144
   -832936.23048   -615861.38746  21319742.8594                   21319740.7274
  30495878.49646                  23961436.54343  24722035.3984   24722034.4024
 -44193424.51647 -34391995.92245  22435475.9774                   22435471.8874
 11  8 15  3 22  0.0000000  0  8G12G25G26G05G15G29G21G02
 -21930151.85547 -16806915.77045  22921377.3284                   22921375.3554
  -8653522.90248  -6731449.42646  22096600.1254   22096600.7974
  10109823.84847   7915173.21145  22258273.4064                   22258272.1094
 -24456210.41048 -18999278.01246  21238800.0634   21238797.7734   20924326.02747
  16350609.06645                  23040500.1954                   23040497.3284
   -988626.57048   -737178.50446  21290116.4064                   21290113.9654
  30348032.84046                  23846232.23443  24693901.2894   24693900.0904
 -44236631.02747 -34425663.31245  22427254.2344                   22427249.8094
 11  8 15  3 22 30.0000000  0  9G12G18G25G26G05G15G29G21G02
 -21930262.86347 -16807002.30145  22921356.1414                   22921354.2274
  37544058.19956  29297354.85952  24715468.0704                   24715468.3674
  -8694951.85948  -6763731.74246  22088716.6484   22088717.1914
   9944448.87947   7786309.65245  22226804.0164                   22226802.0434
 -24482270.36348 -19019584.46546  21233841.1414   21233838.6174   20739563.71147
  16206638.46545                  23005341.2194                   23005338.4224
  -1144034.74248   -858275.75046  21260543.0634                   21260540.5394
  30200175.00046                  23731018.46143  24665764.5864   24665763.0044
 -44279737.17247 -34459252.51245  22419051.0944                   22419046.9064
 11  8 15  3 23  0.0000000  0  9G12G18G25G26G05G15G29G21G02
 -21930215.93047 -16806965.72345  22921365.0004                   22921363.1954
  37363614.16046  29156749.09843  24681131.0634                   24681129.8284
  -8735948.82048  -6795677.43046  22080915.2734   22080915.8984
   9779466.06347   7657751.67245  22195408.0554                   22195406.7384
 -24508008.52048 -19039640.16046  21228943.5554   21228940.8444   20554929.34447
  16062767.61345                  22970206.1024                   22970204.0904
  -1299160.21548   -979152.70746  21231023.7034                   21231021.1254
  30052302.35546                  23615793.13743  24637625.0164   24637623.7194
 -44322744.27747 -34492764.52745  22410867.0394                   22410862.8284
 11  8 15  3 23 30.0000000  0  9G12G18G25G26G05G15G29G21G02
 -21930016.20747 -16806810.10945  22921403.0944                   22921401.9654
  37183329.46946  29016267.52343  24646823.7194                   24646822.8484
  -8776518.60948  -6827290.25846  22073195.0004   22073195.3054
   9614876.64147   7529500.22745  22164087.8284                   22164086.7664
 -24533429.57848 -19059448.76646  21224105.7424   21224103.6914   20370423.87147
  15918997.18445                  22935095.6414                   22935093.8834
  -1454002.91448  -1099809.31646  21201558.0004                   21201555.7114
  29904412.32046                  23500554.25843  24609482.4454   24609481.6024
 -44365654.37147 -34526200.95345  22402701.7274                   22402697.2074
 11  8 15  3 24  0.0000000  0  9G12G18G25G26G05G15G29G21G02
 -21929664.18047 -16806535.81645  22921470.2664                   22921468.5554
  37003208.22746  28875913.36743  24612548.0864                   24612546.2894
  -8816660.83248  -6858569.92646  22065556.0164   22065556.6564
   9450687.18848   7401560.44545  22132843.5164                   22132842.5204
 -24558533.30948 -19079010.11746  21219329.2504   21219326.1024   20186053.42647
  15775331.94545                  22900010.8754                   22900008.7814
  -1608557.45748  -1220241.39146  21172147.1094                   21172145.0474
  29756507.39546                  23385303.76643  24581336.6254   24581336.3204
 -44408464.29747 -34559559.31645  22394554.9224                   22394551.3984
 11  8 15  3 24 30.0000000  0  9G12G18G25G26G05G15G29G21G02
 -21929162.53947 -16806144.93745  22921566.0944                   22921563.8164
  36823252.62146  28735688.25443  24578303.4454                   24578302.6764
  -8856377.50048  -6889517.99646  22057998.4534   22057998.5824
   9286901.67247   7273935.41845  22101676.2894                   22101674.5394
 -24583321.34448 -19098325.45746  21214611.9844   21214609.3834   20001821.14847
  15631774.37945                  22864952.8754                   22864951.0124
  -1762820.85948  -1340446.60546  21142791.8444                   21142789.5514
  29608587.83646                  23270041.85243  24553188.5634   24553188.3634
 -44451173.02347 -34592838.85245  22386427.9144                   22386423.8054
 11  8 15  3 25  0.0000000  0  9G12G18G25G26G05G15G29G21G02
 -21928515.35247 -16805640.64545  22921688.8134                   22921687.1054
  36643461.99246  28595591.72343  24544090.5784                   24544089.7304
  -8895672.25048  -6920137.28946  22050520.4694   22050521.8874
   9123522.37147   7146626.92645  22070586.4844                   22070584.7034
 -24607797.27348 -19117397.60946  21209954.0474   21209951.5124   19817729.45747
  15488326.37545                  22829921.1564                   22829919.5164
  -1916792.26248  -1460424.28546  21113491.5004                   21113489.7664
  29460651.91046                  23154767.19143  24525037.3444   24525036.3244
 -44493781.47347 -34626040.23045  22378319.7194                   22378315.7344
 11  8 15  3 25 30.0000000  0  9G12G18G25G26G05G15G29G21G02
 -21927722.66447 -16805022.98445  22921839.4774                   22921837.7074
  36463840.71546  28455627.18042  24509908.7344                   24509908.7854
  -8934544.90648  -6950427.67246  22043123.7814   22043124.0474
   8960555.78948   7019640.01645  22039574.6804                   22039573.2074
 -24631960.80148 -19136226.32046  21205355.8524   21205353.4574   19633783.88747
  15344992.21545                  22794917.5474                   22794915.4614
  -2070466.42648  -1580170.34846  21084248.5004                   21084246.6054
  29312701.87946                  23039481.54343  24496883.0314   24496882.1524
 -44536286.65247 -34659161.16445  22370231.4614                   22370227.7074
 11  8 15  3 26  0.0000000  0  9G12G18G25G26G05G15G29G21G02
 -21926786.87947 -16804293.83245  22922017.8914                   22922015.5704
  36284391.53546  28315796.66843  24475761.7194                   24475760.7624
  -8972997.09048  -6980390.42646  22035806.1484   22035806.8014
   8798006.20748   6892978.04745  22008642.2114                   22008640.9964
 -24655813.62948 -19154812.94546  21200817.0234   21200814.4414   19449988.89547
  15201775.38345                  22759942.5164                   22759940.7624
  -2223839.79348  -1699682.02046  21055062.6564                   21055060.0474
  29164738.17246                  22924185.25042  24468726.5474   24468725.2304
 -44578687.15647 -34692200.53545  22362162.7194                   22362158.3164
 11  8 15  3 26 30.0000000  0  9G12G18G25G26G05G15G29G21G02
 -21925711.09847 -16803455.57045  22922222.7734                   22922220.1994
  36105115.27046  28176100.96542  24441646.8674                   24441645.7544
  -9011031.37548  -7010027.55146  22028568.8134   22028569.4414
   8635877.00047   6766643.66045  21977790.3134                   21977788.8324
 -24679358.19148 -19173159.35946  21196336.7194   21196334.2344   19266347.43047
  15058678.19545                  22724996.5704                   22724995.0634
  -2376910.23448  -1818957.63746  21025934.1804                   21025931.6644
  29016760.65646                  22808878.19542  24440566.5554   24440566.0314
 -44620982.59447 -34725158.02745  22354114.4694                   22354109.8914
 11  8 15  3 27  0.0000000  0  9G12G18G25G26G05G15G29G21G02
 -21924498.53147 -16802510.71945  22922453.3754                   22922451.0784
  35926012.57846  28036540.48443  24407564.2424                   24407563.6414
  -9048650.89848  -7039341.46146  22021409.9144   22021410.2624
   8474171.38748   6640639.34445  21947018.7504                   21947016.7544
 -24702597.40648 -19191267.84446  21191914.2274   21191911.7624   19082862.15647
  14915702.71145                  22690080.9924                   22690079.2194
  -2529675.70748  -1937995.63346  20996863.9064                   20996861.6214
  28868767.80546                  22693559.21943  24412405.3284   24412403.7424
 -44663173.19147 -34758033.80945  22346085.8834                   22346081.5124
 11  8 15  3 27 30.0000000  0  9G12G18G25G26G05G15G29G21G02
 -21923151.77347 -16801461.30944  22922709.3914                   22922707.4264
  35747085.68046  27897116.96143  24373514.9304                   24373514.7194
  -9085857.45348  -7068333.59046  22014329.6484   22014329.9844
   8312893.28548   6514968.14845  21916328.2894                   21916326.5904
 -24725533.03948 -19209139.76646  21187549.6334   21187547.5234   18899536.89847
  14772851.89545                  22655194.5394                   22655192.8444
  -2682133.09848  -2056793.55946  20967852.2894                   20967850.0474
  28720760.44946                  22578228.91443  24384240.3834   24384239.1484
 -44705257.68447 -34790826.94145  22338077.5554                   22338073.0394
 11  8 15  3 28  0.0000000  0  9G12G18G25G26G05G15G29G21G02
 -20346255.35247 -15572710.87144  23222782.7034                   23222780.8324
  37143760.48446  28985435.05943  24639293.5084                   24639292.7274
  -7547233.84848  -5869406.10946  22307120.2344   22307120.4264
   9727470.44547   7617236.10945  22185513.5164                   22185511.6884
 -23172747.76648 -17999177.22346  21483035.0164   21483032.5004   20291799.41047
  15857731.82445                  22920133.9384                   22920131.9534
  -1258856.55948   -947746.87146  21238692.6884                   21238690.6214
  30148161.53546                  23690489.61343  24655865.9304   24655864.1564
 -43171815.82047 -33595937.19945  22629881.9144                   22629878.3404
 11  8 15  3 28 30.0000000  0  9G12G18G25G26G05G15G29G21G02
 -20344652.58247 -15571461.95744  23223087.8134                   23223085.6844
  36965185.62146  28846285.81643  24605312.4144                   24605310.8204
  -7583625.72348  -5897763.42646  22300194.6954   22300195.1914
   9567054.70347   7492236.88345  22154987.1094                   22154985.9454
 -23195086.46948 -18016584.01246  21478784.3594   21478781.6294   20108800.44947
  15715135.29345                  22885309.9454                   22885307.8164
  -1410694.47748  -1066062.09046  21209799.2344                   21209796.2664
  30000119.86746                  23575132.56643  24627694.3134   24627693.2584
 -43213690.53547 -33628566.86345  22621913.1024                   22621909.0234
 11  8 15  3 29  0.0000000  0  9G12G18G25G26G05G15G29G21G02
 -20342924.57447 -15570115.48044  23223416.5554                   23223414.5634
  36786790.72746  28707276.85543  24571364.7114                   24571363.6604
  -7619612.33248  -5925804.94946  22293347.0634   22293347.8444
   9407077.29747   7367579.22745  22124544.1804                   22124542.8554
 -23217128.65648 -18033759.74646  21474589.4304   21474587.2584   19925970.94547
  15572670.81645                  22850518.8524                   22850516.5554
  -1562217.06648  -1184131.60546  21180965.1884                   21180962.6644
  29852062.59046                  23459763.37143  24599520.1024   24599518.2234
 -43255457.70347 -33661112.72745  22613965.3444                   22613960.9844
 11  8 15  3 29 30.0000000  0  9G12G18G25G26G05G15G29G21G02
 -20341076.92647 -15568675.76644  23223768.5784                   23223765.5984
  36608573.75846  28568406.57843  24537450.9454                   24537450.4614
  -7655199.18048  -5953534.95745  22286574.7734   22286575.5904
   9247538.74247   7243263.50845  22094185.4144                   22094183.6954
 -23238879.68448 -18050708.60546  21470450.4694   21470448.3164   19743311.21147
  15430338.62145                  22815759.8134                   22815757.6174
  -1713424.85248  -1301955.82046  21152191.3674                   21152188.9534
  29703986.34846                  23344379.37543  24571341.2584   24571340.4534
 -43297120.02047 -33693576.88345  22606037.4224                   22606033.4964
 11  8 15  3 30  0.0000000  0  9G12G18G25G26G05G15G29G21G02
 -20339110.91447 -15567143.82045  23224142.5704                   23224140.4494
  36430538.29746  28429677.75443  24503571.7584                   24503571.3674
  -7690387.06248  -5980954.10246  22279879.1414   22279880.0004
   9088444.23847   7119293.81645  22063910.5394                   22063908.9844
 -23260339.94548 -18067430.89546  21466366.6414   21466364.3984   19560826.40647
  15288142.72745                  22781034.1414                   22781031.6844
  -1864313.09048  -1419531.03946  21123478.0704                   21123475.5944
  29555892.64147                  23228981.78143  24543160.2664   24543159.1054
 -43338675.25047 -33725957.61345  22598129.8444                   22598125.7734
 11  8 15  3 30 30.0000000  0  9G12G18G25G26G05G15G29G21G02
 -20337029.96147 -15565522.32045  23224538.6884                   23224536.8714
  36252685.15646  28291090.91043  24469727.3524                   24469727.0274
  -7725178.98848  -6008064.68746  22273258.2114   22273258.8594
   8929796.93447   6995672.57845  22033720.6024                   22033719.2304
 -23281512.37948 -18083928.89146  21462337.6414   21462335.1684   19378519.37947
  15146085.32845                  22746341.9924                   22746339.4774
  -2014880.71148  -1536856.42646  21094825.6414                   21094823.3094
  29407780.70347                  23113569.98044  24514975.6254   24514973.7734
 -43380123.31247 -33758254.84445  22590242.5634                   22590238.3164
 11  8 15  3 31  0.0000000  0  9G12G18G25G26G05G15G29G21G02
 -20334836.81647 -15563813.38745  23224956.1254                   23224953.7344
  36075015.69146  28152647.25443  24435918.4144                   24435917.1484
  -7759577.14147  -6034868.44546  22266712.2274   22266713.1724
   8771600.78947   6872402.91445  22003617.3134                   22003615.3674
 -23302398.75048 -18100204.00446  21458363.2584   21458361.0124   19196393.67247
  15004169.17645                  22711684.8914                   22711682.5864
  -2165124.34048  -1653929.34846  21066235.5084                   21066233.1644
  29259650.53546                  22998143.98043  24486786.7344   24486785.8914
 -43421463.18747 -33790467.76645  22582376.1414                   22582371.4884
 11  8 15  3 31 30.0000000  0  9G12G18G25G26G05G15G29G21G02
 -20332532.69947 -15562017.98045  23225394.5394                   23225392.2424
  35897532.66046  28014348.84443  24402144.2974                   24402142.8914
  -7793582.80947  -6061366.38345  22260241.8444   22260242.2934
   8613860.54347   6749488.49645  21973600.3594                   21973598.5704
 -23323000.17648 -18116257.05946  21454442.9224   21454440.4494   19014453.78947
  14862397.77045                  22677062.6024                   22677060.5234
  -2315040.21148  -1770746.87546  21037707.4694                   21037705.0084
  29111503.10246                  22882704.49243  24458595.7974   24458594.1914
 -43462693.25847 -33822595.10545  22574529.7504                   22574525.9774
 11  8 15  3 32  0.0000000  0  9G12G18G25G26G05G15G29G21G02
 -20330121.75847 -15560139.34845  23225853.4534                   23225851.5164
  35720236.32446  27876195.99643  24368406.1644                   24368404.3054
  -7827199.72347  -6087561.37945  22253844.5704   22253844.6024
   8456578.49647   6626931.10245  21943670.3284                   21943668.9804
 -23343320.11748 -18132090.78146  21450576.0784   21450573.7774   18832701.75847
  14720772.73845                  22642476.7584                   22642474.4654
  -2464626.94148  -1887307.92646  21009242.1484                   21009239.7384
  28963337.35546                  22767250.76644  24430400.7664   24430399.2734
 -43503813.76247 -33854637.10945  22566705.0314                   22566700.6334
 11  8 15  3 32 30.0000000  0  9G12G18G25G26G05G15G29G21G02
 -20327607.62547 -15558180.28945  23226331.7274                   23226329.8444
  35543127.32846  27738189.08243  24334703.3284                   24334702.1374
  -7860431.15647  -6113456.01645  22247520.7344   22247521.7544
   8299757.61748   6504733.09845  21913828.3524                   21913826.5314
 -23363361.60948 -18147707.53146  21446762.7194   21446759.9844   18651140.50847
  14579296.34045                  22607926.6564                   22607924.4184
  -2613882.84048  -2003611.19946  20980839.8444                   20980837.3794
  28815152.02347                  22651781.79344  24402201.8754   24402200.4774
 -43544825.40247 -33886594.24245  22558900.5164                   22558896.4224
 11  8 15  3 33  0.0000000  0  9G12G18G25G26G05G15G29G21G02
 -20324993.87947 -15556143.61745  23226829.1254                   23226827.5744
  35366206.34846  27600328.66443  24301035.7664                   24301034.9924
  -7893280.37147  -6139052.82445  22241269.6954   22241269.9884
   8143400.31348   6382896.29745  21884074.5704                   21884072.4884
 -23383127.53148 -18163109.54746  21443001.3984   21442998.5944   18469772.41447
  14437970.47345                  22573413.5864                   22573411.0704
  -2762805.91448  -2119655.11746  20952500.3594                   20952498.0004
  28666946.28946                  22536296.92244  24373998.7034   24373997.8244
 -43585727.99247 -33918466.41845  22551116.6094                   22551112.9534
 11  8 15  3 33 30.0000000  0  9G12G18G25G26G05G15G29G21G02
 -20322280.76247 -15554029.52344  23227344.7194                   23227343.8164
  35189477.49246  27462617.93443  24267405.8284                   24267404.9454
  -7925747.41047  -6164351.81246  22235091.1644   22235092.3164
   7987512.88348   6261425.64145  21854410.2034                   21854408.4104
 -23402617.77748 -18178296.74646  21439292.2194   21439289.7154   18288603.52347
  14296799.82445                  22538938.5164                   22538936.2854
  -2911390.96948  -2235435.65246  20924225.5084                   20924222.9614
  28518722.32446                  22420797.82444  24345792.6414   24345791.6954
 -43626518.46947 -33950251.25445  22543354.9844                   22543350.6604
 11  8 15  3 34  0.0000000  0  9G12G18G25G26G05G15G29G21G02
 -20319472.79347 -15551841.52745  23227879.4534                   23227877.8794
  35012940.12546  27325056.44943  24233811.4454                   24233810.5784
  -7957836.46947  -6189356.29745  22228985.1174   22228985.6994
   7832097.10548   6140322.51645  21824835.1484                   21824833.5984
 -23421836.04348 -18193272.02046  21435635.3914   21435633.0084   18107635.45347
  14155785.66045                  22504500.6954                   22504498.9064
  -3059637.13348  -2350952.11346  20896015.0554                   20896012.8634
  28370478.29346                  22305283.12144  24317582.8834   24317581.7664
 -43667197.85247 -33981949.49245  22535614.6174                   22535609.6644
 11  8 15  3 34 30.0000000  0  9G12G18G25G26G05G15G29G21G02
 -20316574.17647 -15549582.89845  23228431.1564                   23228429.6724
  34836593.98046  27187643.95343  24200253.3524                   24200252.5984
  -7989551.85247  -6214069.58645  22222949.4694   22222950.2624
   7677155.07048   6019588.53945  21795351.1334                   21795349.0044
 -23440786.23848 -18208038.41046  21432029.1954   21432026.5164   17926869.89847
  14014929.30945                  22470102.7274                   22470100.6914
  -3207544.10948  -2466204.27046  20867869.5314                   20867867.0124
  28222212.61746                  22189751.52743  24289368.9304   24289367.6764
 -43707767.32447 -34013562.09845  22527893.6174                   22527890.0274
 11  8 15  3 35  0.0000000  0  9G12G18G25G26G05G15G29G21G02
 -20313587.29347 -15547255.48044  23228999.7344                   23228997.7504
  34660441.02046  27050381.96943  24166732.8284                   24166732.1764
  -8020895.50047  -6238493.23445  22216985.3754   22216986.2424
   7522690.55147   5899226.65645  21765957.1884                   21765955.6484
 -23459470.06648 -18222597.23446  21428473.7344   21428471.2814   17746310.75447
  13874233.85945                  22435743.3984                   22435741.7974
  -3355108.34848  -2581189.36746  20839788.8834                   20839786.4844
  28073925.30546                  22074203.11643  24261150.2194   24261148.9024
 -43748225.30547 -34045087.82045  22520194.8674                   22520190.4224
 11  8 15  3 35 30.0000000  0  9G12G18G25G26G05G15G29G21G02
 -20310516.20747 -15544862.44944  23229583.9534                   23229582.1844
  34484481.40646  26913270.67643  24133248.1724                   24133248.0434
  -8051871.23847  -6262630.17645  22211090.9694   22211091.5744
   7368706.03947   5779238.81345  21736654.5554                   21736653.1884
 -23477890.87948 -18236951.11346  21424968.6024   21424966.0434   17565960.33647
  13733701.10545                  22401423.7734                   22401422.2464
  -3502328.53548  -2695906.37146  20811773.4144                   20811771.0554
  27925615.83646                  21958637.40644  24232928.1024   24232926.5904
 -43788572.75847 -34076527.43045  22512517.4694                   22512513.0234
 11  8 15  3 36  0.0000000  0  9G12G18G25G26G05G15G29G21G02
 -20307362.53547 -15542405.08644  23230183.6334                   23230182.0124
  34308717.93046  26776312.23043  24099802.0784                   24099801.4024
  -8082480.29747  -6286481.40245  22205266.0234   22205267.3204
   7215206.32847   5659628.74245  21707444.9384                   21707442.8754
 -23496049.81248 -18251100.92646  21421512.2424   21421510.5864   17385823.36347
  13593334.72745                  22367144.2504                   22367142.9494
  -3649200.64548  -2810352.15646  20783824.6804                   20783822.5554
  27777284.42646                  21843054.62543  24204701.4924   24204699.7934
 -43828807.71147 -34107879.37945  22504860.9844                   22504856.9064
 11  8 15  3 36 30.0000000  0  9G12G18G25G26G05G15G29G21G02
 -20304128.04747 -15539884.74644  23230799.6484                   23230797.8874
  34133152.29746  26639507.91443  24066393.1484                   24066392.3674
  -8112724.65247  -6310048.44945  22199510.7734   22199510.9184
   7062195.36747   5540399.50045  21678327.5394                   21678325.7734
 -23513948.37148 -18265047.84846  21418106.6564   21418103.8054   17205903.71547
  13453137.70345                  22332907.3284                   22332905.2504
  -3795721.80948  -2924524.47746  20755942.8754                   20755940.4494
  27628932.11346                  21727455.53143  24176470.3134   24176469.6174
 -43868928.76247 -34139142.56245  22497225.6334                   22497221.9344
 11  8 15  3 37  0.0000000  0  9G12G18G25G26G05G15G29G21G02
 -18725397.86747 -14309705.40644  23531222.4924                   23531220.3714
  35533210.03546  27730462.07443  24332815.3524                   24332814.4844
  -6567187.68747  -5105733.94946  22493616.5704   22493617.0314
   8485099.84447   6649156.32845  21949097.2424                   21949094.9344
 -21956169.72748 -17051194.35546  21714542.0634   21714539.6644   18601628.73447
  14540715.75445                  22598504.9454                   22598502.7464
  -2366466.19148  -1810818.78546  21027920.8914                   21027918.9654
  29055981.30146                  22839442.01243  24448029.0944   24448027.1684
 -42333515.97347 -32942717.03945  22789405.3984                   22789401.5634
 11  8 15  3 37 30.0000000  0  9G12G18G25G26G05G15G29G21G02
 -18722013.55947 -14307068.27744  23531866.4224                   23531863.5784
  35358041.33646  27593967.05143  24299481.1254                   24299480.7274
  -6596713.67247  -5128741.21145  22487998.3134   22487998.8364
   8333073.54347   6530694.35945  21920167.6094                   21920165.7304
 -21973556.99248 -17064742.87146  21711233.2114   21711231.0944   18422149.96947
  14400862.24645                  22564351.4694                   22564348.9534
  -2512280.38748  -1924440.22346  21000173.3364                   21000171.2384
  28907582.96146                  22723807.04743  24419790.4614   24419787.9494
 -42373410.53147 -32973803.75445  22781813.5234                   22781809.6764
 11  8 15  3 38  0.0000000  0  9G12G18G25G26G05G15G29G21G02
 -18718560.13747 -14304377.33244  23532523.5704                   23532521.2194
  35183072.19246  27457627.55243  24266185.3204                   24266184.8324
  -6625885.74247  -5151472.71945  22482446.8594   22482447.6914
   8181543.41847   6412619.04345  21891332.1804                   21891330.2544
 -21990693.26648 -17078095.80946  21707972.5234   21707970.0204   18242895.43047
  14261183.43045                  22530239.7274                   22530238.0984
  -2657738.86748  -2037784.47746  20972494.1954                   20972491.5784
  28759160.32046                  22608153.14843  24391545.7974   24391543.9804
 -42413192.40647 -33004802.64545  22774243.6564                   22774239.2894
 11  8 15  3 38 30.0000000  0  9G12G18G25G26G05G15G29G21G02
 -18715037.55147 -14301632.46544  23533193.5084                   23533191.5634
  35008305.57446  27321445.87143  24232929.1024                   24232927.5004
  -6654703.95347  -5173928.46545  22476962.9454   22476963.3134
   8030515.37947   6294934.93045  21862592.7814                   21862590.5744
 -22007578.28548 -17091252.96546  21704759.6094   21704757.0204   18063871.27047
  14121684.14145                  22496172.7734                   22496170.7154
  -2802836.51648  -2150847.56246  20944882.6094                   20944879.7384
  28610715.55946                  22492481.98043  24363297.6724   24363295.9224
 -42452858.32047 -33035711.19545  22766695.2504                   22766691.1134
 11  8 15  3 39  0.0000000  0  9G12G18G25G26G05G15G29G21G02
 -18711450.45747 -14298837.34444  23533876.8364                   23533874.2194
  34833741.26646  27185421.81343  24199710.2504                   24199709.6804
  -6683172.89847  -5196112.07045  22471545.1954   22471546.6454
   7879990.91847   6177643.22745  21833948.6644                   21833946.4774
 -22024216.15648 -17104217.53546  21701593.3364   21701590.7344   17885079.10547
  13982365.60245                  22462150.1094                   22462147.7734
  -2947572.50448  -2263628.83246  20917340.3524                   20917337.5084
  28462246.83246                  22376792.16443  24335044.7424   24335042.9224
 -42492409.40647 -33066530.24245  22759169.1644                   22759165.5204
 11  8 15  3 39 30.0000000  0  9G12G18G25G26G05G15G29G21G02
 -18707800.06647 -14295992.87144  23534571.0234                   23534568.5944
  34659382.00046  27049557.52743  24166530.9844                   24166530.2384
  -6711293.77347  -5218024.45745  22466194.2194   22466195.1134
   7729974.82847   6060747.65245  21805401.2664                   21805399.5864
 -22040607.55948 -17116990.05946  21698474.1024   21698471.5204   17706523.23447
  13843231.14845                  22428171.4924                   22428169.6564
  -3091942.88348  -2376125.20746  20889867.4064                   20889865.0234
  28313755.49646                  22261084.71143  24306788.5474   24306785.6214
 -42531843.64147 -33097258.25045  22751665.2814                   22751660.3444
 11  8 15  3 40  0.0000000  0  9G12G18G25G26G05G15G29G21G02
 -18704093.03147 -14293104.30544  23535276.0704                   23535274.6524
  34485225.51646  26913851.25043  24133389.8834                   24133389.3634
  -6739072.96547  -5239670.58645  22460907.9534   22460909.0234
   7580466.72347   5944247.89545  21776950.5234                   21776948.5314
 -22056758.53948 -17129575.24246  21695400.4694   21695398.0904   17528203.34047
  13704280.58245                  22394238.7344                   22394236.6484
  -3235949.09848  -2488337.82846  20862464.0084                   20862461.6254
  28165237.50046                  22145356.50843  24278525.5164   24278524.0394
 -42571164.07447 -33127897.57045  22744182.9144                   22744178.0554
 11  8 15  3 40 30.0000000  0  9G12G18G25G26G05G15G29G21G02
 -18700332.63346 -14290174.13744  23535991.7034                   23535990.1954
  34311272.23446  26778303.32043  24100287.1884                   24100286.2624
  -6766513.72347  -5261053.01245  22455686.0944   22455687.2304
   7431469.16447   5828145.97345  21748597.7664                   21748595.1914
 -22072671.65648 -17141975.07046  21692372.5634   21692370.0164   17350122.36747
  13565516.21545                  22360350.8984                   22360349.3714
  -3379588.91848  -2600264.94146  20835130.3134                   20835127.7114
  28016692.42646                  22029607.14843  24250258.1954   24250255.6294
 -42610370.66847 -33158448.18745  22736721.8204                   22736717.6524
